<?xml version="1.0" encoding="UTF-8" standalone="no" ?>
<gpx xmlns="http://www.topografix.com/GPX/1/1" xmlns:xsi="http://www.w3.org/2001/XMLSchema-instance" xsi:schemaLocation="http://www.topografix.com/GPX/1/1 http://www.topografix.com/GPX/1/1/gpx.xsd" version="1.1" creator="VisuGPX - https://www.visugpx.com">
  <metadata>
    <name>Forêt de Vénasque</name>
    <desc><![CDATA[Boucle de 14km, dénivelé cumulé 52 m]]></desc>
  </metadata>
  <trk>
    <name><![CDATA[forêt de Venasque: 13 MARS 2019 10:24]]></name>
    <trkseg>
      <trkpt lat="43.98641" lon="5.2041">
        <ele>444.27</ele>
        <time>2019-03-13T09:24:23Z</time>
      </trkpt>
      <trkpt lat="43.98635" lon="5.20422">
        <ele>445.71</ele>
        <time>2019-03-13T09:24:26Z</time>
      </trkpt>
      <trkpt lat="43.98629" lon="5.20438">
        <ele>445.23</ele>
        <time>2019-03-13T09:24:31Z</time>
      </trkpt>
      <trkpt lat="43.98629" lon="5.20451">
        <ele>446.67</ele>
        <time>2019-03-13T09:24:39Z</time>
      </trkpt>
      <trkpt lat="43.98633" lon="5.20461">
        <ele>446.67</ele>
        <time>2019-03-13T09:24:48Z</time>
      </trkpt>
      <trkpt lat="43.98634" lon="5.20464">
        <ele>438.02</ele>
        <time>2019-03-13T09:24:50Z</time>
      </trkpt>
      <trkpt lat="43.98634" lon="5.20466">
        <ele>449.55</ele>
        <time>2019-03-13T09:24:51Z</time>
      </trkpt>
      <trkpt lat="43.98635" lon="5.20468">
        <ele>448.11</ele>
        <time>2019-03-13T09:24:53Z</time>
      </trkpt>
      <trkpt lat="43.98639" lon="5.20477">
        <ele>448.59</ele>
        <time>2019-03-13T09:25:00Z</time>
      </trkpt>
      <trkpt lat="43.98647" lon="5.20485">
        <ele>448.11</ele>
        <time>2019-03-13T09:25:09Z</time>
      </trkpt>
      <trkpt lat="43.98649" lon="5.20487">
        <ele>449.07</ele>
        <time>2019-03-13T09:25:12Z</time>
      </trkpt>
      <trkpt lat="43.98657" lon="5.20509">
        <ele>450.03</ele>
        <time>2019-03-13T09:25:25Z</time>
      </trkpt>
      <trkpt lat="43.98659" lon="5.20526">
        <ele>451</ele>
        <time>2019-03-13T09:25:37Z</time>
      </trkpt>
      <trkpt lat="43.9867" lon="5.20541">
        <ele>451.48</ele>
        <time>2019-03-13T09:25:48Z</time>
      </trkpt>
      <trkpt lat="43.98672" lon="5.20544">
        <ele>451.96</ele>
        <time>2019-03-13T09:25:50Z</time>
      </trkpt>
      <trkpt lat="43.98682" lon="5.20565">
        <ele>452.44</ele>
        <time>2019-03-13T09:26:05Z</time>
      </trkpt>
      <trkpt lat="43.9869" lon="5.20578">
        <ele>454.36</ele>
        <time>2019-03-13T09:26:16Z</time>
      </trkpt>
      <trkpt lat="43.98699" lon="5.20595">
        <ele>454.84</ele>
        <time>2019-03-13T09:26:30Z</time>
      </trkpt>
      <trkpt lat="43.98704" lon="5.20612">
        <ele>455.32</ele>
        <time>2019-03-13T09:26:42Z</time>
      </trkpt>
      <trkpt lat="43.98709" lon="5.20625">
        <ele>456.76</ele>
        <time>2019-03-13T09:26:55Z</time>
      </trkpt>
      <trkpt lat="43.98714" lon="5.20641">
        <ele>458.21</ele>
        <time>2019-03-13T09:27:09Z</time>
      </trkpt>
      <trkpt lat="43.9872" lon="5.20653">
        <ele>459.65</ele>
        <time>2019-03-13T09:27:23Z</time>
      </trkpt>
      <trkpt lat="43.98733" lon="5.20673">
        <ele>461.57</ele>
        <time>2019-03-13T09:27:37Z</time>
      </trkpt>
      <trkpt lat="43.98746" lon="5.20692">
        <ele>462.53</ele>
        <time>2019-03-13T09:27:52Z</time>
      </trkpt>
      <trkpt lat="43.98764" lon="5.20718">
        <ele>463.49</ele>
        <time>2019-03-13T09:28:05Z</time>
      </trkpt>
      <trkpt lat="43.98772" lon="5.20751">
        <ele>464.45</ele>
        <time>2019-03-13T09:28:18Z</time>
      </trkpt>
      <trkpt lat="43.98772" lon="5.20772">
        <ele>466.38</ele>
        <time>2019-03-13T09:28:32Z</time>
      </trkpt>
      <trkpt lat="43.98776" lon="5.20783">
        <ele>466.38</ele>
        <time>2019-03-13T09:28:40Z</time>
      </trkpt>
      <trkpt lat="43.98779" lon="5.20787">
        <ele>467.34</ele>
        <time>2019-03-13T09:28:42Z</time>
      </trkpt>
      <trkpt lat="43.98787" lon="5.20812">
        <ele>469.74</ele>
        <time>2019-03-13T09:28:57Z</time>
      </trkpt>
      <trkpt lat="43.98786" lon="5.20819">
        <ele>469.26</ele>
        <time>2019-03-13T09:29:10Z</time>
      </trkpt>
      <trkpt lat="43.98784" lon="5.20823">
        <ele>471.18</ele>
        <time>2019-03-13T09:29:13Z</time>
      </trkpt>
      <trkpt lat="43.98783" lon="5.20828">
        <ele>472.14</ele>
        <time>2019-03-13T09:29:20Z</time>
      </trkpt>
      <trkpt lat="43.98783" lon="5.20829">
        <ele>468.78</ele>
        <time>2019-03-13T09:29:21Z</time>
      </trkpt>
      <trkpt lat="43.98783" lon="5.20829">
        <ele>473.59</ele>
        <time>2019-03-13T09:29:22Z</time>
      </trkpt>
      <trkpt lat="43.98783" lon="5.20831">
        <ele>470.22</ele>
        <time>2019-03-13T09:29:25Z</time>
      </trkpt>
      <trkpt lat="43.98783" lon="5.20832">
        <ele>474.07</ele>
        <time>2019-03-13T09:29:26Z</time>
      </trkpt>
      <trkpt lat="43.98785" lon="5.20849">
        <ele>476.95</ele>
        <time>2019-03-13T09:29:38Z</time>
      </trkpt>
      <trkpt lat="43.98789" lon="5.20866">
        <ele>478.39</ele>
        <time>2019-03-13T09:29:51Z</time>
      </trkpt>
      <trkpt lat="43.98798" lon="5.20885">
        <ele>478.87</ele>
        <time>2019-03-13T09:30:04Z</time>
      </trkpt>
      <trkpt lat="43.98802" lon="5.20898">
        <ele>480.8</ele>
        <time>2019-03-13T09:30:15Z</time>
      </trkpt>
      <trkpt lat="43.98806" lon="5.20912">
        <ele>482.24</ele>
        <time>2019-03-13T09:30:30Z</time>
      </trkpt>
      <trkpt lat="43.98808" lon="5.20932">
        <ele>483.2</ele>
        <time>2019-03-13T09:30:42Z</time>
      </trkpt>
      <trkpt lat="43.98811" lon="5.20942">
        <ele>483.68</ele>
        <time>2019-03-13T09:30:47Z</time>
      </trkpt>
      <trkpt lat="43.98818" lon="5.20959">
        <ele>484.64</ele>
        <time>2019-03-13T09:30:56Z</time>
      </trkpt>
      <trkpt lat="43.98829" lon="5.20979">
        <ele>486.08</ele>
        <time>2019-03-13T09:31:10Z</time>
      </trkpt>
      <trkpt lat="43.98835" lon="5.20991">
        <ele>486.56</ele>
        <time>2019-03-13T09:31:22Z</time>
      </trkpt>
      <trkpt lat="43.98844" lon="5.21011">
        <ele>487.53</ele>
        <time>2019-03-13T09:31:38Z</time>
      </trkpt>
      <trkpt lat="43.98847" lon="5.21022">
        <ele>489.45</ele>
        <time>2019-03-13T09:31:50Z</time>
      </trkpt>
      <trkpt lat="43.9885" lon="5.21031">
        <ele>490.41</ele>
        <time>2019-03-13T09:32:03Z</time>
      </trkpt>
      <trkpt lat="43.9885" lon="5.21032">
        <ele>490.89</ele>
        <time>2019-03-13T09:32:04Z</time>
      </trkpt>
      <trkpt lat="43.98857" lon="5.21064">
        <ele>491.85</ele>
        <time>2019-03-13T09:32:21Z</time>
      </trkpt>
      <trkpt lat="43.98861" lon="5.2108">
        <ele>492.33</ele>
        <time>2019-03-13T09:32:33Z</time>
      </trkpt>
      <trkpt lat="43.98857" lon="5.21109">
        <ele>493.29</ele>
        <time>2019-03-13T09:32:51Z</time>
      </trkpt>
      <trkpt lat="43.98853" lon="5.21124">
        <ele>493.29</ele>
        <time>2019-03-13T09:33:07Z</time>
      </trkpt>
      <trkpt lat="43.98855" lon="5.21156">
        <ele>495.22</ele>
        <time>2019-03-13T09:33:22Z</time>
      </trkpt>
      <trkpt lat="43.98857" lon="5.21186">
        <ele>496.18</ele>
        <time>2019-03-13T09:33:38Z</time>
      </trkpt>
      <trkpt lat="43.98859" lon="5.21203">
        <ele>498.1</ele>
        <time>2019-03-13T09:33:53Z</time>
      </trkpt>
      <trkpt lat="43.98864" lon="5.21213">
        <ele>499.06</ele>
        <time>2019-03-13T09:34:07Z</time>
      </trkpt>
      <trkpt lat="43.9888" lon="5.21231">
        <ele>500.98</ele>
        <time>2019-03-13T09:34:21Z</time>
      </trkpt>
      <trkpt lat="43.98888" lon="5.21247">
        <ele>501.95</ele>
        <time>2019-03-13T09:34:33Z</time>
      </trkpt>
      <trkpt lat="43.98893" lon="5.21257">
        <ele>504.35</ele>
        <time>2019-03-13T09:34:50Z</time>
      </trkpt>
      <trkpt lat="43.98897" lon="5.21268">
        <ele>505.31</ele>
        <time>2019-03-13T09:35:03Z</time>
      </trkpt>
      <trkpt lat="43.98903" lon="5.2128">
        <ele>506.75</ele>
        <time>2019-03-13T09:35:19Z</time>
      </trkpt>
      <trkpt lat="43.98911" lon="5.21289">
        <ele>509.64</ele>
        <time>2019-03-13T09:35:36Z</time>
      </trkpt>
      <trkpt lat="43.98915" lon="5.21295">
        <ele>511.56</ele>
        <time>2019-03-13T09:35:46Z</time>
      </trkpt>
      <trkpt lat="43.98919" lon="5.213">
        <ele>513.48</ele>
        <time>2019-03-13T09:36:02Z</time>
      </trkpt>
      <trkpt lat="43.98922" lon="5.21302">
        <ele>514.44</ele>
        <time>2019-03-13T09:36:16Z</time>
      </trkpt>
      <trkpt lat="43.98924" lon="5.213">
        <ele>516.37</ele>
        <time>2019-03-13T09:36:23Z</time>
      </trkpt>
      <trkpt lat="43.98931" lon="5.21299">
        <ele>517.33</ele>
        <time>2019-03-13T09:36:38Z</time>
      </trkpt>
      <trkpt lat="43.98936" lon="5.21295">
        <ele>517.81</ele>
        <time>2019-03-13T09:36:51Z</time>
      </trkpt>
      <trkpt lat="43.98953" lon="5.21289">
        <ele>517.81</ele>
        <time>2019-03-13T09:37:04Z</time>
      </trkpt>
      <trkpt lat="43.98962" lon="5.21287">
        <ele>516.85</ele>
        <time>2019-03-13T09:37:22Z</time>
      </trkpt>
      <trkpt lat="43.98965" lon="5.21287">
        <ele>519.25</ele>
        <time>2019-03-13T09:37:26Z</time>
      </trkpt>
      <trkpt lat="43.9897" lon="5.21285">
        <ele>517.33</ele>
        <time>2019-03-13T09:37:40Z</time>
      </trkpt>
      <trkpt lat="43.98978" lon="5.21279">
        <ele>518.29</ele>
        <time>2019-03-13T09:37:53Z</time>
      </trkpt>
      <trkpt lat="43.98991" lon="5.21258">
        <ele>518.29</ele>
        <time>2019-03-13T09:38:09Z</time>
      </trkpt>
      <trkpt lat="43.99001" lon="5.21238">
        <ele>519.25</ele>
        <time>2019-03-13T09:38:23Z</time>
      </trkpt>
      <trkpt lat="43.99013" lon="5.21217">
        <ele>519.73</ele>
        <time>2019-03-13T09:38:40Z</time>
      </trkpt>
      <trkpt lat="43.99017" lon="5.21209">
        <ele>520.21</ele>
        <time>2019-03-13T09:38:45Z</time>
      </trkpt>
      <trkpt lat="43.99028" lon="5.21187">
        <ele>521.17</ele>
        <time>2019-03-13T09:39:00Z</time>
      </trkpt>
      <trkpt lat="43.99037" lon="5.21168">
        <ele>520.69</ele>
        <time>2019-03-13T09:39:14Z</time>
      </trkpt>
      <trkpt lat="43.99038" lon="5.21165">
        <ele>522.13</ele>
        <time>2019-03-13T09:39:16Z</time>
      </trkpt>
      <trkpt lat="43.99047" lon="5.21143">
        <ele>523.58</ele>
        <time>2019-03-13T09:39:32Z</time>
      </trkpt>
      <trkpt lat="43.99054" lon="5.21122">
        <ele>524.54</ele>
        <time>2019-03-13T09:39:46Z</time>
      </trkpt>
      <trkpt lat="43.99058" lon="5.21114">
        <ele>525.02</ele>
        <time>2019-03-13T09:39:53Z</time>
      </trkpt>
      <trkpt lat="43.9906" lon="5.21111">
        <ele>525.02</ele>
        <time>2019-03-13T09:39:55Z</time>
      </trkpt>
      <trkpt lat="43.99069" lon="5.21088">
        <ele>526.46</ele>
        <time>2019-03-13T09:40:10Z</time>
      </trkpt>
      <trkpt lat="43.99074" lon="5.21069">
        <ele>526.94</ele>
        <time>2019-03-13T09:40:22Z</time>
      </trkpt>
      <trkpt lat="43.99078" lon="5.21054">
        <ele>526.94</ele>
        <time>2019-03-13T09:40:31Z</time>
      </trkpt>
      <trkpt lat="43.99086" lon="5.21037">
        <ele>525.98</ele>
        <time>2019-03-13T09:40:44Z</time>
      </trkpt>
      <trkpt lat="43.99088" lon="5.21032">
        <ele>527.42</ele>
        <time>2019-03-13T09:40:47Z</time>
      </trkpt>
      <trkpt lat="43.99089" lon="5.21029">
        <ele>527.9</ele>
        <time>2019-03-13T09:40:49Z</time>
      </trkpt>
      <trkpt lat="43.99092" lon="5.2102">
        <ele>527.9</ele>
        <time>2019-03-13T09:40:54Z</time>
      </trkpt>
      <trkpt lat="43.99101" lon="5.21004">
        <ele>527.42</ele>
        <time>2019-03-13T09:41:07Z</time>
      </trkpt>
      <trkpt lat="43.9911" lon="5.20989">
        <ele>528.38</ele>
        <time>2019-03-13T09:41:21Z</time>
      </trkpt>
      <trkpt lat="43.99115" lon="5.20983">
        <ele>531.27</ele>
        <time>2019-03-13T09:41:32Z</time>
      </trkpt>
      <trkpt lat="43.99115" lon="5.20982">
        <ele>530.79</ele>
        <time>2019-03-13T09:41:33Z</time>
      </trkpt>
      <trkpt lat="43.99116" lon="5.2098">
        <ele>529.82</ele>
        <time>2019-03-13T09:41:35Z</time>
      </trkpt>
      <trkpt lat="43.99116" lon="5.20977">
        <ele>532.71</ele>
        <time>2019-03-13T09:41:37Z</time>
      </trkpt>
      <trkpt lat="43.99116" lon="5.20976">
        <ele>532.23</ele>
        <time>2019-03-13T09:41:38Z</time>
      </trkpt>
      <trkpt lat="43.99117" lon="5.20973">
        <ele>530.79</ele>
        <time>2019-03-13T09:41:40Z</time>
      </trkpt>
      <trkpt lat="43.99119" lon="5.20962">
        <ele>531.27</ele>
        <time>2019-03-13T09:41:48Z</time>
      </trkpt>
      <trkpt lat="43.99123" lon="5.20938">
        <ele>531.75</ele>
        <time>2019-03-13T09:42:04Z</time>
      </trkpt>
      <trkpt lat="43.9913" lon="5.20908">
        <ele>533.19</ele>
        <time>2019-03-13T09:42:21Z</time>
      </trkpt>
      <trkpt lat="43.99136" lon="5.20889">
        <ele>534.15</ele>
        <time>2019-03-13T09:42:34Z</time>
      </trkpt>
      <trkpt lat="43.99136" lon="5.20885">
        <ele>532.71</ele>
        <time>2019-03-13T09:42:36Z</time>
      </trkpt>
      <trkpt lat="43.99137" lon="5.20878">
        <ele>534.63</ele>
        <time>2019-03-13T09:42:41Z</time>
      </trkpt>
      <trkpt lat="43.9914" lon="5.2087">
        <ele>533.19</ele>
        <time>2019-03-13T09:42:46Z</time>
      </trkpt>
      <trkpt lat="43.99145" lon="5.20844">
        <ele>533.19</ele>
        <time>2019-03-13T09:43:03Z</time>
      </trkpt>
      <trkpt lat="43.99148" lon="5.20818">
        <ele>535.11</ele>
        <time>2019-03-13T09:43:17Z</time>
      </trkpt>
      <trkpt lat="43.99152" lon="5.20793">
        <ele>532.71</ele>
        <time>2019-03-13T09:43:32Z</time>
      </trkpt>
      <trkpt lat="43.99154" lon="5.20782">
        <ele>533.19</ele>
        <time>2019-03-13T09:43:39Z</time>
      </trkpt>
      <trkpt lat="43.99155" lon="5.20779">
        <ele>533.19</ele>
        <time>2019-03-13T09:43:41Z</time>
      </trkpt>
      <trkpt lat="43.99155" lon="5.20772">
        <ele>533.19</ele>
        <time>2019-03-13T09:43:45Z</time>
      </trkpt>
      <trkpt lat="43.99157" lon="5.20765">
        <ele>533.19</ele>
        <time>2019-03-13T09:43:49Z</time>
      </trkpt>
      <trkpt lat="43.99158" lon="5.2076">
        <ele>531.75</ele>
        <time>2019-03-13T09:43:52Z</time>
      </trkpt>
      <trkpt lat="43.9916" lon="5.20744">
        <ele>531.27</ele>
        <time>2019-03-13T09:44:02Z</time>
      </trkpt>
      <trkpt lat="43.9916" lon="5.20711">
        <ele>530.79</ele>
        <time>2019-03-13T09:44:20Z</time>
      </trkpt>
      <trkpt lat="43.99159" lon="5.20688">
        <ele>530.3</ele>
        <time>2019-03-13T09:44:34Z</time>
      </trkpt>
      <trkpt lat="43.99159" lon="5.20684">
        <ele>530.3</ele>
        <time>2019-03-13T09:44:37Z</time>
      </trkpt>
      <trkpt lat="43.99159" lon="5.20678">
        <ele>528.86</ele>
        <time>2019-03-13T09:44:41Z</time>
      </trkpt>
      <trkpt lat="43.99159" lon="5.20673">
        <ele>529.82</ele>
        <time>2019-03-13T09:44:44Z</time>
      </trkpt>
      <trkpt lat="43.99159" lon="5.20645">
        <ele>528.86</ele>
        <time>2019-03-13T09:44:59Z</time>
      </trkpt>
      <trkpt lat="43.99159" lon="5.20644">
        <ele>528.86</ele>
        <time>2019-03-13T09:45:00Z</time>
      </trkpt>
      <trkpt lat="43.9916" lon="5.20642">
        <ele>530.3</ele>
        <time>2019-03-13T09:45:01Z</time>
      </trkpt>
      <trkpt lat="43.9916" lon="5.20638">
        <ele>531.27</ele>
        <time>2019-03-13T09:45:03Z</time>
      </trkpt>
      <trkpt lat="43.99159" lon="5.20636">
        <ele>529.82</ele>
        <time>2019-03-13T09:45:04Z</time>
      </trkpt>
      <trkpt lat="43.9916" lon="5.20632">
        <ele>529.34</ele>
        <time>2019-03-13T09:45:07Z</time>
      </trkpt>
      <trkpt lat="43.99162" lon="5.20622">
        <ele>528.86</ele>
        <time>2019-03-13T09:45:13Z</time>
      </trkpt>
      <trkpt lat="43.99163" lon="5.20615">
        <ele>528.38</ele>
        <time>2019-03-13T09:45:17Z</time>
      </trkpt>
      <trkpt lat="43.99165" lon="5.20605">
        <ele>529.34</ele>
        <time>2019-03-13T09:45:23Z</time>
      </trkpt>
      <trkpt lat="43.99166" lon="5.20602">
        <ele>528.38</ele>
        <time>2019-03-13T09:45:25Z</time>
      </trkpt>
      <trkpt lat="43.99169" lon="5.20584">
        <ele>528.86</ele>
        <time>2019-03-13T09:45:35Z</time>
      </trkpt>
      <trkpt lat="43.99172" lon="5.20574">
        <ele>527.9</ele>
        <time>2019-03-13T09:45:41Z</time>
      </trkpt>
      <trkpt lat="43.99173" lon="5.20566">
        <ele>528.38</ele>
        <time>2019-03-13T09:45:46Z</time>
      </trkpt>
      <trkpt lat="43.99176" lon="5.20553">
        <ele>529.34</ele>
        <time>2019-03-13T09:45:53Z</time>
      </trkpt>
      <trkpt lat="43.99178" lon="5.20546">
        <ele>527.9</ele>
        <time>2019-03-13T09:45:58Z</time>
      </trkpt>
      <trkpt lat="43.99179" lon="5.20535">
        <ele>529.34</ele>
        <time>2019-03-13T09:46:04Z</time>
      </trkpt>
      <trkpt lat="43.99183" lon="5.20523">
        <ele>529.34</ele>
        <time>2019-03-13T09:46:12Z</time>
      </trkpt>
      <trkpt lat="43.99186" lon="5.20511">
        <ele>529.34</ele>
        <time>2019-03-13T09:46:20Z</time>
      </trkpt>
      <trkpt lat="43.99187" lon="5.20505">
        <ele>529.34</ele>
        <time>2019-03-13T09:46:24Z</time>
      </trkpt>
      <trkpt lat="43.99189" lon="5.20498">
        <ele>528.38</ele>
        <time>2019-03-13T09:46:28Z</time>
      </trkpt>
      <trkpt lat="43.99192" lon="5.20488">
        <ele>526.94</ele>
        <time>2019-03-13T09:46:35Z</time>
      </trkpt>
      <trkpt lat="43.99196" lon="5.20473">
        <ele>527.42</ele>
        <time>2019-03-13T09:46:44Z</time>
      </trkpt>
      <trkpt lat="43.99197" lon="5.20471">
        <ele>525.98</ele>
        <time>2019-03-13T09:46:45Z</time>
      </trkpt>
      <trkpt lat="43.99198" lon="5.20462">
        <ele>525.5</ele>
        <time>2019-03-13T09:46:50Z</time>
      </trkpt>
      <trkpt lat="43.99205" lon="5.20438">
        <ele>525.5</ele>
        <time>2019-03-13T09:47:04Z</time>
      </trkpt>
      <trkpt lat="43.9921" lon="5.2042">
        <ele>525.98</ele>
        <time>2019-03-13T09:47:15Z</time>
      </trkpt>
      <trkpt lat="43.99213" lon="5.20403">
        <ele>523.58</ele>
        <time>2019-03-13T09:47:25Z</time>
      </trkpt>
      <trkpt lat="43.99214" lon="5.20397">
        <ele>525.02</ele>
        <time>2019-03-13T09:47:29Z</time>
      </trkpt>
      <trkpt lat="43.99216" lon="5.20389">
        <ele>523.09</ele>
        <time>2019-03-13T09:47:35Z</time>
      </trkpt>
      <trkpt lat="43.99217" lon="5.20386">
        <ele>521.65</ele>
        <time>2019-03-13T09:47:37Z</time>
      </trkpt>
      <trkpt lat="43.99224" lon="5.20368">
        <ele>520.21</ele>
        <time>2019-03-13T09:47:51Z</time>
      </trkpt>
      <trkpt lat="43.99225" lon="5.20366">
        <ele>520.69</ele>
        <time>2019-03-13T09:47:52Z</time>
      </trkpt>
      <trkpt lat="43.99226" lon="5.20363">
        <ele>521.17</ele>
        <time>2019-03-13T09:47:54Z</time>
      </trkpt>
      <trkpt lat="43.99233" lon="5.20344">
        <ele>519.73</ele>
        <time>2019-03-13T09:48:06Z</time>
      </trkpt>
      <trkpt lat="43.9924" lon="5.20325">
        <ele>517.81</ele>
        <time>2019-03-13T09:48:17Z</time>
      </trkpt>
      <trkpt lat="43.99241" lon="5.20322">
        <ele>519.73</ele>
        <time>2019-03-13T09:48:19Z</time>
      </trkpt>
      <trkpt lat="43.99242" lon="5.20321">
        <ele>519.25</ele>
        <time>2019-03-13T09:48:20Z</time>
      </trkpt>
      <trkpt lat="43.99242" lon="5.20317">
        <ele>518.29</ele>
        <time>2019-03-13T09:48:22Z</time>
      </trkpt>
      <trkpt lat="43.99244" lon="5.20308">
        <ele>518.77</ele>
        <time>2019-03-13T09:48:27Z</time>
      </trkpt>
      <trkpt lat="43.99244" lon="5.20305">
        <ele>518.29</ele>
        <time>2019-03-13T09:48:29Z</time>
      </trkpt>
      <trkpt lat="43.9925" lon="5.20273">
        <ele>519.25</ele>
        <time>2019-03-13T09:48:48Z</time>
      </trkpt>
      <trkpt lat="43.99251" lon="5.20272">
        <ele>518.77</ele>
        <time>2019-03-13T09:48:49Z</time>
      </trkpt>
      <trkpt lat="43.99256" lon="5.20256">
        <ele>517.33</ele>
        <time>2019-03-13T09:48:59Z</time>
      </trkpt>
      <trkpt lat="43.99266" lon="5.20236">
        <ele>517.81</ele>
        <time>2019-03-13T09:49:13Z</time>
      </trkpt>
      <trkpt lat="43.99277" lon="5.20215">
        <ele>516.85</ele>
        <time>2019-03-13T09:49:29Z</time>
      </trkpt>
      <trkpt lat="43.9928" lon="5.20209">
        <ele>516.85</ele>
        <time>2019-03-13T09:49:42Z</time>
      </trkpt>
      <trkpt lat="43.9928" lon="5.20209">
        <ele>516.37</ele>
        <time>2019-03-13T09:49:44Z</time>
      </trkpt>
      <trkpt lat="43.99281" lon="5.20208">
        <ele>516.85</ele>
        <time>2019-03-13T09:49:52Z</time>
      </trkpt>
      <trkpt lat="43.99282" lon="5.20207">
        <ele>517.81</ele>
        <time>2019-03-13T09:50:04Z</time>
      </trkpt>
      <trkpt lat="43.99282" lon="5.20205">
        <ele>517.33</ele>
        <time>2019-03-13T09:50:24Z</time>
      </trkpt>
      <trkpt lat="43.99282" lon="5.20205">
        <ele>518.29</ele>
        <time>2019-03-13T09:50:31Z</time>
      </trkpt>
      <trkpt lat="43.99282" lon="5.20205">
        <ele>515.4</ele>
        <time>2019-03-13T09:50:41Z</time>
      </trkpt>
      <trkpt lat="43.99283" lon="5.20199">
        <ele>514.44</ele>
        <time>2019-03-13T09:50:56Z</time>
      </trkpt>
      <trkpt lat="43.99282" lon="5.20182">
        <ele>511.56</ele>
        <time>2019-03-13T09:51:08Z</time>
      </trkpt>
      <trkpt lat="43.99282" lon="5.20181">
        <ele>512.04</ele>
        <time>2019-03-13T09:51:09Z</time>
      </trkpt>
      <trkpt lat="43.99283" lon="5.20164">
        <ele>509.16</ele>
        <time>2019-03-13T09:51:21Z</time>
      </trkpt>
      <trkpt lat="43.99284" lon="5.20154">
        <ele>507.71</ele>
        <time>2019-03-13T09:51:29Z</time>
      </trkpt>
      <trkpt lat="43.99284" lon="5.20151">
        <ele>506.27</ele>
        <time>2019-03-13T09:51:31Z</time>
      </trkpt>
      <trkpt lat="43.99285" lon="5.20143">
        <ele>504.83</ele>
        <time>2019-03-13T09:51:35Z</time>
      </trkpt>
      <trkpt lat="43.99285" lon="5.20138">
        <ele>503.87</ele>
        <time>2019-03-13T09:51:38Z</time>
      </trkpt>
      <trkpt lat="43.99285" lon="5.20127">
        <ele>504.35</ele>
        <time>2019-03-13T09:51:43Z</time>
      </trkpt>
      <trkpt lat="43.99286" lon="5.20113">
        <ele>501.46</ele>
        <time>2019-03-13T09:51:51Z</time>
      </trkpt>
      <trkpt lat="43.99286" lon="5.20112">
        <ele>500.5</ele>
        <time>2019-03-13T09:51:52Z</time>
      </trkpt>
      <trkpt lat="43.99287" lon="5.20097">
        <ele>496.18</ele>
        <time>2019-03-13T09:52:02Z</time>
      </trkpt>
      <trkpt lat="43.99287" lon="5.20096">
        <ele>496.18</ele>
        <time>2019-03-13T09:52:03Z</time>
      </trkpt>
      <trkpt lat="43.99288" lon="5.20093">
        <ele>497.62</ele>
        <time>2019-03-13T09:52:05Z</time>
      </trkpt>
      <trkpt lat="43.99288" lon="5.20088">
        <ele>494.26</ele>
        <time>2019-03-13T09:52:09Z</time>
      </trkpt>
      <trkpt lat="43.99287" lon="5.20083">
        <ele>495.7</ele>
        <time>2019-03-13T09:52:12Z</time>
      </trkpt>
      <trkpt lat="43.99287" lon="5.20081">
        <ele>495.22</ele>
        <time>2019-03-13T09:52:13Z</time>
      </trkpt>
      <trkpt lat="43.99287" lon="5.20066">
        <ele>493.29</ele>
        <time>2019-03-13T09:52:24Z</time>
      </trkpt>
      <trkpt lat="43.99287" lon="5.2006">
        <ele>491.37</ele>
        <time>2019-03-13T09:52:28Z</time>
      </trkpt>
      <trkpt lat="43.99287" lon="5.20055">
        <ele>492.33</ele>
        <time>2019-03-13T09:52:32Z</time>
      </trkpt>
      <trkpt lat="43.99288" lon="5.20046">
        <ele>489.45</ele>
        <time>2019-03-13T09:52:39Z</time>
      </trkpt>
      <trkpt lat="43.99288" lon="5.20044">
        <ele>488.97</ele>
        <time>2019-03-13T09:52:40Z</time>
      </trkpt>
      <trkpt lat="43.99289" lon="5.2004">
        <ele>489.45</ele>
        <time>2019-03-13T09:52:42Z</time>
      </trkpt>
      <trkpt lat="43.99292" lon="5.20016">
        <ele>486.56</ele>
        <time>2019-03-13T09:52:58Z</time>
      </trkpt>
      <trkpt lat="43.99292" lon="5.20006">
        <ele>483.2</ele>
        <time>2019-03-13T09:53:06Z</time>
      </trkpt>
      <trkpt lat="43.99293" lon="5.19996">
        <ele>483.2</ele>
        <time>2019-03-13T09:53:13Z</time>
      </trkpt>
      <trkpt lat="43.99294" lon="5.19975">
        <ele>479.84</ele>
        <time>2019-03-13T09:53:27Z</time>
      </trkpt>
      <trkpt lat="43.99296" lon="5.19948">
        <ele>477.91</ele>
        <time>2019-03-13T09:53:43Z</time>
      </trkpt>
      <trkpt lat="43.99296" lon="5.19945">
        <ele>476.95</ele>
        <time>2019-03-13T09:53:45Z</time>
      </trkpt>
      <trkpt lat="43.99298" lon="5.19924">
        <ele>473.59</ele>
        <time>2019-03-13T09:53:58Z</time>
      </trkpt>
      <trkpt lat="43.99302" lon="5.19907">
        <ele>471.66</ele>
        <time>2019-03-13T09:54:11Z</time>
      </trkpt>
      <trkpt lat="43.99303" lon="5.199">
        <ele>470.22</ele>
        <time>2019-03-13T09:54:17Z</time>
      </trkpt>
      <trkpt lat="43.99306" lon="5.19888">
        <ele>468.3</ele>
        <time>2019-03-13T09:54:28Z</time>
      </trkpt>
      <trkpt lat="43.99311" lon="5.19874">
        <ele>465.9</ele>
        <time>2019-03-13T09:54:35Z</time>
      </trkpt>
      <trkpt lat="43.99311" lon="5.19869">
        <ele>467.34</ele>
        <time>2019-03-13T09:54:37Z</time>
      </trkpt>
      <trkpt lat="43.99313" lon="5.19861">
        <ele>465.42</ele>
        <time>2019-03-13T09:54:43Z</time>
      </trkpt>
      <trkpt lat="43.99319" lon="5.19838">
        <ele>464.45</ele>
        <time>2019-03-13T09:54:57Z</time>
      </trkpt>
      <trkpt lat="43.9932" lon="5.19835">
        <ele>462.05</ele>
        <time>2019-03-13T09:55:00Z</time>
      </trkpt>
      <trkpt lat="43.9933" lon="5.1982">
        <ele>463.01</ele>
        <time>2019-03-13T09:55:13Z</time>
      </trkpt>
      <trkpt lat="43.99341" lon="5.19802">
        <ele>459.65</ele>
        <time>2019-03-13T09:55:28Z</time>
      </trkpt>
      <trkpt lat="43.99349" lon="5.19786">
        <ele>458.69</ele>
        <time>2019-03-13T09:55:40Z</time>
      </trkpt>
      <trkpt lat="43.9935" lon="5.19785">
        <ele>458.21</ele>
        <time>2019-03-13T09:55:41Z</time>
      </trkpt>
      <trkpt lat="43.9936" lon="5.19763">
        <ele>455.8</ele>
        <time>2019-03-13T09:55:57Z</time>
      </trkpt>
      <trkpt lat="43.99366" lon="5.19742">
        <ele>454.84</ele>
        <time>2019-03-13T09:56:10Z</time>
      </trkpt>
      <trkpt lat="43.99373" lon="5.1972">
        <ele>452.92</ele>
        <time>2019-03-13T09:56:24Z</time>
      </trkpt>
      <trkpt lat="43.99377" lon="5.197">
        <ele>449.55</ele>
        <time>2019-03-13T09:56:38Z</time>
      </trkpt>
      <trkpt lat="43.99377" lon="5.19697">
        <ele>449.07</ele>
        <time>2019-03-13T09:56:40Z</time>
      </trkpt>
      <trkpt lat="43.99379" lon="5.19672">
        <ele>448.59</ele>
        <time>2019-03-13T09:56:56Z</time>
      </trkpt>
      <trkpt lat="43.99381" lon="5.19653">
        <ele>447.15</ele>
        <time>2019-03-13T09:57:07Z</time>
      </trkpt>
      <trkpt lat="43.99385" lon="5.19626">
        <ele>445.71</ele>
        <time>2019-03-13T09:57:24Z</time>
      </trkpt>
      <trkpt lat="43.99391" lon="5.19596">
        <ele>442.82</ele>
        <time>2019-03-13T09:57:41Z</time>
      </trkpt>
      <trkpt lat="43.99393" lon="5.19588">
        <ele>441.86</ele>
        <time>2019-03-13T09:57:46Z</time>
      </trkpt>
      <trkpt lat="43.99398" lon="5.19566">
        <ele>439.94</ele>
        <time>2019-03-13T09:58:02Z</time>
      </trkpt>
      <trkpt lat="43.99399" lon="5.19564">
        <ele>438.98</ele>
        <time>2019-03-13T09:58:03Z</time>
      </trkpt>
      <trkpt lat="43.99401" lon="5.19556">
        <ele>438.98</ele>
        <time>2019-03-13T09:58:08Z</time>
      </trkpt>
      <trkpt lat="43.99403" lon="5.19552">
        <ele>438.98</ele>
        <time>2019-03-13T09:58:11Z</time>
      </trkpt>
      <trkpt lat="43.99405" lon="5.19542">
        <ele>438.02</ele>
        <time>2019-03-13T09:58:19Z</time>
      </trkpt>
      <trkpt lat="43.99408" lon="5.19525">
        <ele>435.61</ele>
        <time>2019-03-13T09:58:31Z</time>
      </trkpt>
      <trkpt lat="43.99409" lon="5.19517">
        <ele>435.61</ele>
        <time>2019-03-13T09:58:39Z</time>
      </trkpt>
      <trkpt lat="43.9941" lon="5.19513">
        <ele>435.61</ele>
        <time>2019-03-13T09:58:41Z</time>
      </trkpt>
      <trkpt lat="43.99413" lon="5.19495">
        <ele>434.17</ele>
        <time>2019-03-13T09:58:55Z</time>
      </trkpt>
      <trkpt lat="43.99411" lon="5.19485">
        <ele>433.69</ele>
        <time>2019-03-13T09:59:09Z</time>
      </trkpt>
      <trkpt lat="43.9941" lon="5.19484">
        <ele>434.65</ele>
        <time>2019-03-13T09:59:36Z</time>
      </trkpt>
      <trkpt lat="43.99411" lon="5.19484">
        <ele>437.06</ele>
        <time>2019-03-13T09:59:54Z</time>
      </trkpt>
      <trkpt lat="43.99411" lon="5.19483">
        <ele>435.13</ele>
        <time>2019-03-13T10:00:22Z</time>
      </trkpt>
      <trkpt lat="43.99411" lon="5.19482">
        <ele>430.33</ele>
        <time>2019-03-13T10:00:41Z</time>
      </trkpt>
      <trkpt lat="43.99411" lon="5.19482">
        <ele>437.54</ele>
        <time>2019-03-13T10:00:42Z</time>
      </trkpt>
      <trkpt lat="43.99411" lon="5.19481">
        <ele>436.1</ele>
        <time>2019-03-13T10:00:43Z</time>
      </trkpt>
      <trkpt lat="43.99422" lon="5.19473">
        <ele>435.13</ele>
        <time>2019-03-13T10:00:58Z</time>
      </trkpt>
      <trkpt lat="43.99424" lon="5.19474">
        <ele>435.61</ele>
        <time>2019-03-13T10:01:29Z</time>
      </trkpt>
      <trkpt lat="43.99424" lon="5.19475">
        <ele>437.06</ele>
        <time>2019-03-13T10:01:54Z</time>
      </trkpt>
      <trkpt lat="43.99424" lon="5.19476">
        <ele>433.69</ele>
        <time>2019-03-13T10:02:04Z</time>
      </trkpt>
      <trkpt lat="43.99424" lon="5.19476">
        <ele>437.54</ele>
        <time>2019-03-13T10:02:05Z</time>
      </trkpt>
      <trkpt lat="43.99424" lon="5.19476">
        <ele>436.1</ele>
        <time>2019-03-13T10:02:22Z</time>
      </trkpt>
      <trkpt lat="43.99423" lon="5.19472">
        <ele>437.06</ele>
        <time>2019-03-13T10:02:39Z</time>
      </trkpt>
      <trkpt lat="43.99423" lon="5.1947">
        <ele>436.1</ele>
        <time>2019-03-13T10:02:58Z</time>
      </trkpt>
      <trkpt lat="43.99424" lon="5.19468">
        <ele>435.61</ele>
        <time>2019-03-13T10:03:11Z</time>
      </trkpt>
      <trkpt lat="43.99426" lon="5.19458">
        <ele>436.1</ele>
        <time>2019-03-13T10:03:27Z</time>
      </trkpt>
      <trkpt lat="43.99427" lon="5.19456">
        <ele>436.58</ele>
        <time>2019-03-13T10:03:28Z</time>
      </trkpt>
      <trkpt lat="43.99439" lon="5.19437">
        <ele>434.65</ele>
        <time>2019-03-13T10:03:42Z</time>
      </trkpt>
      <trkpt lat="43.99446" lon="5.19419">
        <ele>433.21</ele>
        <time>2019-03-13T10:03:54Z</time>
      </trkpt>
      <trkpt lat="43.9945" lon="5.19404">
        <ele>432.25</ele>
        <time>2019-03-13T10:04:10Z</time>
      </trkpt>
      <trkpt lat="43.99456" lon="5.19385">
        <ele>431.29</ele>
        <time>2019-03-13T10:04:24Z</time>
      </trkpt>
      <trkpt lat="43.99464" lon="5.19359">
        <ele>429.85</ele>
        <time>2019-03-13T10:04:40Z</time>
      </trkpt>
      <trkpt lat="43.9947" lon="5.19352">
        <ele>427.92</ele>
        <time>2019-03-13T10:04:56Z</time>
      </trkpt>
      <trkpt lat="43.99481" lon="5.19323">
        <ele>427.44</ele>
        <time>2019-03-13T10:05:13Z</time>
      </trkpt>
      <trkpt lat="43.99484" lon="5.19302">
        <ele>426.96</ele>
        <time>2019-03-13T10:05:28Z</time>
      </trkpt>
      <trkpt lat="43.99483" lon="5.19286">
        <ele>426.96</ele>
        <time>2019-03-13T10:05:44Z</time>
      </trkpt>
      <trkpt lat="43.99482" lon="5.19264">
        <ele>425.52</ele>
        <time>2019-03-13T10:05:59Z</time>
      </trkpt>
      <trkpt lat="43.99482" lon="5.1923">
        <ele>424.56</ele>
        <time>2019-03-13T10:06:17Z</time>
      </trkpt>
      <trkpt lat="43.99484" lon="5.19211">
        <ele>424.08</ele>
        <time>2019-03-13T10:06:31Z</time>
      </trkpt>
      <trkpt lat="43.99485" lon="5.19204">
        <ele>422.16</ele>
        <time>2019-03-13T10:06:48Z</time>
      </trkpt>
      <trkpt lat="43.99491" lon="5.19183">
        <ele>419.75</ele>
        <time>2019-03-13T10:07:05Z</time>
      </trkpt>
      <trkpt lat="43.99499" lon="5.19158">
        <ele>418.31</ele>
        <time>2019-03-13T10:07:19Z</time>
      </trkpt>
      <trkpt lat="43.9951" lon="5.19145">
        <ele>417.83</ele>
        <time>2019-03-13T10:07:33Z</time>
      </trkpt>
      <trkpt lat="43.99522" lon="5.19128">
        <ele>414.95</ele>
        <time>2019-03-13T10:07:49Z</time>
      </trkpt>
      <trkpt lat="43.99527" lon="5.19119">
        <ele>414.95</ele>
        <time>2019-03-13T10:07:58Z</time>
      </trkpt>
      <trkpt lat="43.99533" lon="5.19107">
        <ele>413.98</ele>
        <time>2019-03-13T10:08:13Z</time>
      </trkpt>
      <trkpt lat="43.99536" lon="5.191">
        <ele>413.5</ele>
        <time>2019-03-13T10:08:19Z</time>
      </trkpt>
      <trkpt lat="43.99546" lon="5.19092">
        <ele>413.02</ele>
        <time>2019-03-13T10:08:28Z</time>
      </trkpt>
      <trkpt lat="43.9956" lon="5.1908">
        <ele>411.58</ele>
        <time>2019-03-13T10:08:45Z</time>
      </trkpt>
      <trkpt lat="43.9957" lon="5.1907">
        <ele>409.66</ele>
        <time>2019-03-13T10:08:57Z</time>
      </trkpt>
      <trkpt lat="43.99578" lon="5.19057">
        <ele>408.22</ele>
        <time>2019-03-13T10:09:11Z</time>
      </trkpt>
      <trkpt lat="43.99584" lon="5.19039">
        <ele>406.29</ele>
        <time>2019-03-13T10:09:30Z</time>
      </trkpt>
      <trkpt lat="43.99586" lon="5.19036">
        <ele>405.33</ele>
        <time>2019-03-13T10:09:32Z</time>
      </trkpt>
      <trkpt lat="43.99596" lon="5.19023">
        <ele>404.85</ele>
        <time>2019-03-13T10:09:47Z</time>
      </trkpt>
      <trkpt lat="43.99605" lon="5.1901">
        <ele>401.49</ele>
        <time>2019-03-13T10:10:00Z</time>
      </trkpt>
      <trkpt lat="43.99615" lon="5.18993">
        <ele>402.45</ele>
        <time>2019-03-13T10:10:14Z</time>
      </trkpt>
      <trkpt lat="43.99622" lon="5.1898">
        <ele>401.01</ele>
        <time>2019-03-13T10:10:27Z</time>
      </trkpt>
      <trkpt lat="43.99629" lon="5.1897">
        <ele>400.05</ele>
        <time>2019-03-13T10:10:36Z</time>
      </trkpt>
      <trkpt lat="43.99642" lon="5.1896">
        <ele>399.08</ele>
        <time>2019-03-13T10:10:52Z</time>
      </trkpt>
      <trkpt lat="43.99655" lon="5.18952">
        <ele>397.16</ele>
        <time>2019-03-13T10:11:08Z</time>
      </trkpt>
      <trkpt lat="43.99661" lon="5.18948">
        <ele>396.68</ele>
        <time>2019-03-13T10:11:15Z</time>
      </trkpt>
      <trkpt lat="43.99675" lon="5.18939">
        <ele>396.2</ele>
        <time>2019-03-13T10:11:30Z</time>
      </trkpt>
      <trkpt lat="43.99686" lon="5.18937">
        <ele>393.32</ele>
        <time>2019-03-13T10:11:44Z</time>
      </trkpt>
      <trkpt lat="43.99697" lon="5.18928">
        <ele>391.39</ele>
        <time>2019-03-13T10:11:58Z</time>
      </trkpt>
      <trkpt lat="43.99708" lon="5.18919">
        <ele>388.51</ele>
        <time>2019-03-13T10:12:13Z</time>
      </trkpt>
      <trkpt lat="43.99713" lon="5.18905">
        <ele>387.07</ele>
        <time>2019-03-13T10:12:30Z</time>
      </trkpt>
      <trkpt lat="43.99723" lon="5.18886">
        <ele>385.63</ele>
        <time>2019-03-13T10:12:46Z</time>
      </trkpt>
      <trkpt lat="43.99723" lon="5.18886">
        <ele>385.63</ele>
        <time>2019-03-13T10:12:47Z</time>
      </trkpt>
      <trkpt lat="43.99731" lon="5.18872">
        <ele>383.22</ele>
        <time>2019-03-13T10:13:04Z</time>
      </trkpt>
      <trkpt lat="43.99742" lon="5.18862">
        <ele>381.3</ele>
        <time>2019-03-13T10:13:21Z</time>
      </trkpt>
      <trkpt lat="43.99749" lon="5.18856">
        <ele>378.42</ele>
        <time>2019-03-13T10:13:32Z</time>
      </trkpt>
      <trkpt lat="43.9976" lon="5.18841">
        <ele>375.53</ele>
        <time>2019-03-13T10:13:50Z</time>
      </trkpt>
      <trkpt lat="43.99771" lon="5.18832">
        <ele>373.61</ele>
        <time>2019-03-13T10:14:05Z</time>
      </trkpt>
      <trkpt lat="43.99776" lon="5.18827">
        <ele>373.61</ele>
        <time>2019-03-13T10:14:15Z</time>
      </trkpt>
      <trkpt lat="43.99786" lon="5.18818">
        <ele>369.76</ele>
        <time>2019-03-13T10:14:27Z</time>
      </trkpt>
      <trkpt lat="43.99787" lon="5.18817">
        <ele>369.76</ele>
        <time>2019-03-13T10:14:28Z</time>
      </trkpt>
      <trkpt lat="43.99791" lon="5.18812">
        <ele>368.8</ele>
        <time>2019-03-13T10:14:36Z</time>
      </trkpt>
      <trkpt lat="43.998" lon="5.18806">
        <ele>367.36</ele>
        <time>2019-03-13T10:14:47Z</time>
      </trkpt>
      <trkpt lat="43.99806" lon="5.18807">
        <ele>364.48</ele>
        <time>2019-03-13T10:14:57Z</time>
      </trkpt>
      <trkpt lat="43.99808" lon="5.18805">
        <ele>365.92</ele>
        <time>2019-03-13T10:15:00Z</time>
      </trkpt>
      <trkpt lat="43.99812" lon="5.18803">
        <ele>364</ele>
        <time>2019-03-13T10:15:07Z</time>
      </trkpt>
      <trkpt lat="43.99812" lon="5.18802">
        <ele>364.48</ele>
        <time>2019-03-13T10:15:08Z</time>
      </trkpt>
      <trkpt lat="43.99818" lon="5.188">
        <ele>362.55</ele>
        <time>2019-03-13T10:15:16Z</time>
      </trkpt>
      <trkpt lat="43.99826" lon="5.18794">
        <ele>361.59</ele>
        <time>2019-03-13T10:15:30Z</time>
      </trkpt>
      <trkpt lat="43.99831" lon="5.18789">
        <ele>358.71</ele>
        <time>2019-03-13T10:15:44Z</time>
      </trkpt>
      <trkpt lat="43.99837" lon="5.18784">
        <ele>357.27</ele>
        <time>2019-03-13T10:16:00Z</time>
      </trkpt>
      <trkpt lat="43.99844" lon="5.18781">
        <ele>353.9</ele>
        <time>2019-03-13T10:16:14Z</time>
      </trkpt>
      <trkpt lat="43.99847" lon="5.18781">
        <ele>353.42</ele>
        <time>2019-03-13T10:16:26Z</time>
      </trkpt>
      <trkpt lat="43.99859" lon="5.18781">
        <ele>351.5</ele>
        <time>2019-03-13T10:16:42Z</time>
      </trkpt>
      <trkpt lat="43.99864" lon="5.18778">
        <ele>348.62</ele>
        <time>2019-03-13T10:16:49Z</time>
      </trkpt>
      <trkpt lat="43.99864" lon="5.18778">
        <ele>348.62</ele>
        <time>2019-03-13T10:16:50Z</time>
      </trkpt>
      <trkpt lat="43.99866" lon="5.18778">
        <ele>348.13</ele>
        <time>2019-03-13T10:17:08Z</time>
      </trkpt>
      <trkpt lat="43.99866" lon="5.18777">
        <ele>349.1</ele>
        <time>2019-03-13T10:17:27Z</time>
      </trkpt>
      <trkpt lat="43.99865" lon="5.18777">
        <ele>348.13</ele>
        <time>2019-03-13T10:17:58Z</time>
      </trkpt>
      <trkpt lat="43.99869" lon="5.18777">
        <ele>348.13</ele>
        <time>2019-03-13T10:18:16Z</time>
      </trkpt>
      <trkpt lat="43.99879" lon="5.18778">
        <ele>344.77</ele>
        <time>2019-03-13T10:18:26Z</time>
      </trkpt>
      <trkpt lat="43.99884" lon="5.18779">
        <ele>345.73</ele>
        <time>2019-03-13T10:18:33Z</time>
      </trkpt>
      <trkpt lat="43.99887" lon="5.18779">
        <ele>344.29</ele>
        <time>2019-03-13T10:18:36Z</time>
      </trkpt>
      <trkpt lat="43.99896" lon="5.18778">
        <ele>340.92</ele>
        <time>2019-03-13T10:18:45Z</time>
      </trkpt>
      <trkpt lat="43.99899" lon="5.18778">
        <ele>341.41</ele>
        <time>2019-03-13T10:18:48Z</time>
      </trkpt>
      <trkpt lat="43.99911" lon="5.18774">
        <ele>337.56</ele>
        <time>2019-03-13T10:19:04Z</time>
      </trkpt>
      <trkpt lat="43.99923" lon="5.18771">
        <ele>334.68</ele>
        <time>2019-03-13T10:19:17Z</time>
      </trkpt>
      <trkpt lat="43.99935" lon="5.18773">
        <ele>332.27</ele>
        <time>2019-03-13T10:19:30Z</time>
      </trkpt>
      <trkpt lat="43.99935" lon="5.18773">
        <ele>332.27</ele>
        <time>2019-03-13T10:19:31Z</time>
      </trkpt>
      <trkpt lat="43.99939" lon="5.18771">
        <ele>330.83</ele>
        <time>2019-03-13T10:19:38Z</time>
      </trkpt>
      <trkpt lat="43.99954" lon="5.1877">
        <ele>328.91</ele>
        <time>2019-03-13T10:19:52Z</time>
      </trkpt>
      <trkpt lat="43.99963" lon="5.18766">
        <ele>326.5</ele>
        <time>2019-03-13T10:20:05Z</time>
      </trkpt>
      <trkpt lat="43.99974" lon="5.1876">
        <ele>324.1</ele>
        <time>2019-03-13T10:20:19Z</time>
      </trkpt>
      <trkpt lat="43.99986" lon="5.18751">
        <ele>322.66</ele>
        <time>2019-03-13T10:20:33Z</time>
      </trkpt>
      <trkpt lat="43.9999" lon="5.18747">
        <ele>321.7</ele>
        <time>2019-03-13T10:20:40Z</time>
      </trkpt>
      <trkpt lat="43.99999" lon="5.18739">
        <ele>320.74</ele>
        <time>2019-03-13T10:20:52Z</time>
      </trkpt>
      <trkpt lat="44.00002" lon="5.18737">
        <ele>320.26</ele>
        <time>2019-03-13T10:20:55Z</time>
      </trkpt>
      <trkpt lat="44.00012" lon="5.1873">
        <ele>318.33</ele>
        <time>2019-03-13T10:21:07Z</time>
      </trkpt>
      <trkpt lat="44.0002" lon="5.18728">
        <ele>316.41</ele>
        <time>2019-03-13T10:21:13Z</time>
      </trkpt>
      <trkpt lat="44.00034" lon="5.18721">
        <ele>313.53</ele>
        <time>2019-03-13T10:21:28Z</time>
      </trkpt>
      <trkpt lat="44.00041" lon="5.18715">
        <ele>310.64</ele>
        <time>2019-03-13T10:21:38Z</time>
      </trkpt>
      <trkpt lat="44.00048" lon="5.18705">
        <ele>307.28</ele>
        <time>2019-03-13T10:21:54Z</time>
      </trkpt>
      <trkpt lat="44.00055" lon="5.18695">
        <ele>303.91</ele>
        <time>2019-03-13T10:22:10Z</time>
      </trkpt>
      <trkpt lat="44.00062" lon="5.1869">
        <ele>301.03</ele>
        <time>2019-03-13T10:22:15Z</time>
      </trkpt>
      <trkpt lat="44.00064" lon="5.18689">
        <ele>301.03</ele>
        <time>2019-03-13T10:22:16Z</time>
      </trkpt>
      <trkpt lat="44.00073" lon="5.18678">
        <ele>300.07</ele>
        <time>2019-03-13T10:22:31Z</time>
      </trkpt>
      <trkpt lat="44.0009" lon="5.18665">
        <ele>296.7</ele>
        <time>2019-03-13T10:22:49Z</time>
      </trkpt>
      <trkpt lat="44.00092" lon="5.18663">
        <ele>295.74</ele>
        <time>2019-03-13T10:22:52Z</time>
      </trkpt>
      <trkpt lat="44.001" lon="5.18657">
        <ele>292.38</ele>
        <time>2019-03-13T10:23:08Z</time>
      </trkpt>
      <trkpt lat="44.00111" lon="5.18652">
        <ele>289.97</ele>
        <time>2019-03-13T10:23:23Z</time>
      </trkpt>
      <trkpt lat="44.00117" lon="5.1865">
        <ele>286.61</ele>
        <time>2019-03-13T10:23:31Z</time>
      </trkpt>
      <trkpt lat="44.00119" lon="5.18649">
        <ele>285.65</ele>
        <time>2019-03-13T10:23:33Z</time>
      </trkpt>
      <trkpt lat="44.00135" lon="5.18642">
        <ele>283.25</ele>
        <time>2019-03-13T10:23:47Z</time>
      </trkpt>
      <trkpt lat="44.00147" lon="5.18628">
        <ele>279.4</ele>
        <time>2019-03-13T10:24:00Z</time>
      </trkpt>
      <trkpt lat="44.00157" lon="5.18622">
        <ele>277.48</ele>
        <time>2019-03-13T10:24:13Z</time>
      </trkpt>
      <trkpt lat="44.0016" lon="5.18621">
        <ele>276.04</ele>
        <time>2019-03-13T10:24:16Z</time>
      </trkpt>
      <trkpt lat="44.00168" lon="5.18614">
        <ele>273.15</ele>
        <time>2019-03-13T10:24:32Z</time>
      </trkpt>
      <trkpt lat="44.00174" lon="5.18609">
        <ele>269.79</ele>
        <time>2019-03-13T10:24:39Z</time>
      </trkpt>
      <trkpt lat="44.00191" lon="5.18601">
        <ele>266.9</ele>
        <time>2019-03-13T10:24:53Z</time>
      </trkpt>
      <trkpt lat="44.00201" lon="5.186">
        <ele>264.5</ele>
        <time>2019-03-13T10:25:05Z</time>
      </trkpt>
      <trkpt lat="44.00208" lon="5.18602">
        <ele>262.1</ele>
        <time>2019-03-13T10:25:18Z</time>
      </trkpt>
      <trkpt lat="44.00208" lon="5.18602">
        <ele>257.77</ele>
        <time>2019-03-13T10:25:20Z</time>
      </trkpt>
      <trkpt lat="44.00209" lon="5.18601">
        <ele>261.62</ele>
        <time>2019-03-13T10:25:21Z</time>
      </trkpt>
      <trkpt lat="44.00212" lon="5.18601">
        <ele>259.69</ele>
        <time>2019-03-13T10:25:25Z</time>
      </trkpt>
      <trkpt lat="44.00222" lon="5.18596">
        <ele>256.81</ele>
        <time>2019-03-13T10:25:39Z</time>
      </trkpt>
      <trkpt lat="44.00225" lon="5.18595">
        <ele>255.37</ele>
        <time>2019-03-13T10:25:42Z</time>
      </trkpt>
      <trkpt lat="44.00234" lon="5.1859">
        <ele>254.41</ele>
        <time>2019-03-13T10:25:48Z</time>
      </trkpt>
      <trkpt lat="44.00243" lon="5.1859">
        <ele>252</ele>
        <time>2019-03-13T10:25:57Z</time>
      </trkpt>
      <trkpt lat="44.00251" lon="5.18588">
        <ele>249.12</ele>
        <time>2019-03-13T10:26:09Z</time>
      </trkpt>
      <trkpt lat="44.00263" lon="5.18583">
        <ele>246.72</ele>
        <time>2019-03-13T10:26:24Z</time>
      </trkpt>
      <trkpt lat="44.00266" lon="5.1858">
        <ele>245.27</ele>
        <time>2019-03-13T10:26:30Z</time>
      </trkpt>
      <trkpt lat="44.0027" lon="5.1857">
        <ele>244.79</ele>
        <time>2019-03-13T10:26:44Z</time>
      </trkpt>
      <trkpt lat="44.00273" lon="5.18564">
        <ele>244.31</ele>
        <time>2019-03-13T10:27:01Z</time>
      </trkpt>
      <trkpt lat="44.00274" lon="5.18564">
        <ele>245.75</ele>
        <time>2019-03-13T10:27:19Z</time>
      </trkpt>
      <trkpt lat="44.00274" lon="5.18564">
        <ele>245.75</ele>
        <time>2019-03-13T10:27:20Z</time>
      </trkpt>
      <trkpt lat="44.00273" lon="5.18562">
        <ele>244.79</ele>
        <time>2019-03-13T10:27:41Z</time>
      </trkpt>
      <trkpt lat="44.00271" lon="5.18564">
        <ele>246.72</ele>
        <time>2019-03-13T10:27:57Z</time>
      </trkpt>
      <trkpt lat="44.00271" lon="5.18565">
        <ele>246.72</ele>
        <time>2019-03-13T10:28:22Z</time>
      </trkpt>
      <trkpt lat="44.00271" lon="5.18566">
        <ele>246.72</ele>
        <time>2019-03-13T10:28:46Z</time>
      </trkpt>
      <trkpt lat="44.00271" lon="5.18566">
        <ele>246.72</ele>
        <time>2019-03-13T10:29:11Z</time>
      </trkpt>
      <trkpt lat="44.00271" lon="5.18567">
        <ele>247.68</ele>
        <time>2019-03-13T10:29:33Z</time>
      </trkpt>
      <trkpt lat="44.00271" lon="5.18568">
        <ele>247.2</ele>
        <time>2019-03-13T10:30:00Z</time>
      </trkpt>
      <trkpt lat="44.00271" lon="5.18568">
        <ele>246.72</ele>
        <time>2019-03-13T10:30:20Z</time>
      </trkpt>
      <trkpt lat="44.0027" lon="5.18569">
        <ele>247.2</ele>
        <time>2019-03-13T10:30:42Z</time>
      </trkpt>
      <trkpt lat="44.00271" lon="5.1857">
        <ele>247.68</ele>
        <time>2019-03-13T10:31:02Z</time>
      </trkpt>
      <trkpt lat="44.00272" lon="5.18571">
        <ele>247.68</ele>
        <time>2019-03-13T10:31:13Z</time>
      </trkpt>
      <trkpt lat="44.00272" lon="5.18573">
        <ele>248.16</ele>
        <time>2019-03-13T10:31:35Z</time>
      </trkpt>
      <trkpt lat="44.00273" lon="5.18574">
        <ele>247.2</ele>
        <time>2019-03-13T10:31:55Z</time>
      </trkpt>
      <trkpt lat="44.00276" lon="5.18576">
        <ele>245.75</ele>
        <time>2019-03-13T10:32:16Z</time>
      </trkpt>
      <trkpt lat="44.00279" lon="5.18571">
        <ele>243.35</ele>
        <time>2019-03-13T10:32:29Z</time>
      </trkpt>
      <trkpt lat="44.00287" lon="5.18565">
        <ele>241.43</ele>
        <time>2019-03-13T10:32:42Z</time>
      </trkpt>
      <trkpt lat="44.00291" lon="5.18563">
        <ele>240.47</ele>
        <time>2019-03-13T10:32:58Z</time>
      </trkpt>
      <trkpt lat="44.00296" lon="5.18565">
        <ele>238.54</ele>
        <time>2019-03-13T10:33:03Z</time>
      </trkpt>
      <trkpt lat="44.00307" lon="5.18573">
        <ele>238.06</ele>
        <time>2019-03-13T10:33:17Z</time>
      </trkpt>
      <trkpt lat="44.00313" lon="5.18578">
        <ele>235.66</ele>
        <time>2019-03-13T10:33:24Z</time>
      </trkpt>
      <trkpt lat="44.00318" lon="5.18582">
        <ele>235.66</ele>
        <time>2019-03-13T10:33:37Z</time>
      </trkpt>
      <trkpt lat="44.00322" lon="5.18584">
        <ele>233.26</ele>
        <time>2019-03-13T10:33:44Z</time>
      </trkpt>
      <trkpt lat="44.00332" lon="5.18586">
        <ele>231.33</ele>
        <time>2019-03-13T10:33:56Z</time>
      </trkpt>
      <trkpt lat="44.00338" lon="5.18582">
        <ele>229.41</ele>
        <time>2019-03-13T10:34:10Z</time>
      </trkpt>
      <trkpt lat="44.0035" lon="5.18574">
        <ele>227.49</ele>
        <time>2019-03-13T10:34:24Z</time>
      </trkpt>
      <trkpt lat="44.00358" lon="5.18577">
        <ele>225.09</ele>
        <time>2019-03-13T10:34:36Z</time>
      </trkpt>
      <trkpt lat="44.00364" lon="5.18577">
        <ele>223.64</ele>
        <time>2019-03-13T10:34:43Z</time>
      </trkpt>
      <trkpt lat="44.00368" lon="5.18575">
        <ele>224.12</ele>
        <time>2019-03-13T10:34:48Z</time>
      </trkpt>
      <trkpt lat="44.0037" lon="5.1857">
        <ele>221.72</ele>
        <time>2019-03-13T10:34:53Z</time>
      </trkpt>
      <trkpt lat="44.00376" lon="5.18561">
        <ele>219.32</ele>
        <time>2019-03-13T10:35:08Z</time>
      </trkpt>
      <trkpt lat="44.00387" lon="5.18554">
        <ele>216.43</ele>
        <time>2019-03-13T10:35:24Z</time>
      </trkpt>
      <trkpt lat="44.0039" lon="5.18547">
        <ele>214.03</ele>
        <time>2019-03-13T10:35:38Z</time>
      </trkpt>
      <trkpt lat="44.00399" lon="5.1854">
        <ele>213.07</ele>
        <time>2019-03-13T10:35:53Z</time>
      </trkpt>
      <trkpt lat="44.00403" lon="5.18536">
        <ele>216.43</ele>
        <time>2019-03-13T10:36:01Z</time>
      </trkpt>
      <trkpt lat="44.00404" lon="5.18536">
        <ele>212.11</ele>
        <time>2019-03-13T10:36:02Z</time>
      </trkpt>
      <trkpt lat="44.00409" lon="5.18531">
        <ele>200.09</ele>
        <time>2019-03-13T10:36:09Z</time>
      </trkpt>
      <trkpt lat="44.0041" lon="5.1853">
        <ele>213.55</ele>
        <time>2019-03-13T10:36:10Z</time>
      </trkpt>
      <trkpt lat="44.0041" lon="5.1853">
        <ele>213.55</ele>
        <time>2019-03-13T10:36:11Z</time>
      </trkpt>
      <trkpt lat="44.00412" lon="5.18528">
        <ele>212.11</ele>
        <time>2019-03-13T10:36:13Z</time>
      </trkpt>
      <trkpt lat="44.00418" lon="5.18523">
        <ele>213.07</ele>
        <time>2019-03-13T10:36:21Z</time>
      </trkpt>
      <trkpt lat="44.0042" lon="5.18521">
        <ele>211.15</ele>
        <time>2019-03-13T10:36:23Z</time>
      </trkpt>
      <trkpt lat="44.00422" lon="5.18516">
        <ele>209.7</ele>
        <time>2019-03-13T10:36:29Z</time>
      </trkpt>
      <trkpt lat="44.00428" lon="5.18509">
        <ele>220.28</ele>
        <time>2019-03-13T10:36:38Z</time>
      </trkpt>
      <trkpt lat="44.00429" lon="5.18508">
        <ele>210.67</ele>
        <time>2019-03-13T10:36:39Z</time>
      </trkpt>
      <trkpt lat="44.00429" lon="5.18507">
        <ele>223.16</ele>
        <time>2019-03-13T10:36:40Z</time>
      </trkpt>
      <trkpt lat="44.0043" lon="5.18507">
        <ele>211.63</ele>
        <time>2019-03-13T10:36:41Z</time>
      </trkpt>
      <trkpt lat="44.00431" lon="5.18506">
        <ele>219.8</ele>
        <time>2019-03-13T10:36:42Z</time>
      </trkpt>
      <trkpt lat="44.00432" lon="5.18505">
        <ele>210.67</ele>
        <time>2019-03-13T10:36:43Z</time>
      </trkpt>
      <trkpt lat="44.00433" lon="5.18503">
        <ele>209.22</ele>
        <time>2019-03-13T10:36:45Z</time>
      </trkpt>
      <trkpt lat="44.00436" lon="5.18499">
        <ele>210.19</ele>
        <time>2019-03-13T10:36:50Z</time>
      </trkpt>
      <trkpt lat="44.00439" lon="5.18492">
        <ele>209.22</ele>
        <time>2019-03-13T10:36:56Z</time>
      </trkpt>
      <trkpt lat="44.00444" lon="5.18486">
        <ele>213.55</ele>
        <time>2019-03-13T10:37:03Z</time>
      </trkpt>
      <trkpt lat="44.00445" lon="5.18485">
        <ele>207.78</ele>
        <time>2019-03-13T10:37:04Z</time>
      </trkpt>
      <trkpt lat="44.00451" lon="5.18476">
        <ele>207.3</ele>
        <time>2019-03-13T10:37:13Z</time>
      </trkpt>
      <trkpt lat="44.00453" lon="5.18473">
        <ele>215.95</ele>
        <time>2019-03-13T10:37:16Z</time>
      </trkpt>
      <trkpt lat="44.00455" lon="5.18471">
        <ele>210.67</ele>
        <time>2019-03-13T10:37:18Z</time>
      </trkpt>
      <trkpt lat="44.00455" lon="5.1847">
        <ele>181.35</ele>
        <time>2019-03-13T10:37:19Z</time>
      </trkpt>
      <trkpt lat="44.00456" lon="5.18469">
        <ele>212.11</ele>
        <time>2019-03-13T10:37:20Z</time>
      </trkpt>
      <trkpt lat="44.00458" lon="5.18466">
        <ele>223.16</ele>
        <time>2019-03-13T10:37:22Z</time>
      </trkpt>
      <trkpt lat="44.00458" lon="5.18465">
        <ele>207.78</ele>
        <time>2019-03-13T10:37:23Z</time>
      </trkpt>
      <trkpt lat="44.00467" lon="5.18454">
        <ele>208.26</ele>
        <time>2019-03-13T10:37:33Z</time>
      </trkpt>
      <trkpt lat="44.00477" lon="5.18443">
        <ele>201.53</ele>
        <time>2019-03-13T10:37:43Z</time>
      </trkpt>
      <trkpt lat="44.00478" lon="5.18441">
        <ele>209.22</ele>
        <time>2019-03-13T10:37:44Z</time>
      </trkpt>
      <trkpt lat="44.0048" lon="5.18437">
        <ele>207.78</ele>
        <time>2019-03-13T10:37:47Z</time>
      </trkpt>
      <trkpt lat="44.0048" lon="5.18436">
        <ele>207.78</ele>
        <time>2019-03-13T10:37:48Z</time>
      </trkpt>
      <trkpt lat="44.00487" lon="5.1843">
        <ele>207.78</ele>
        <time>2019-03-13T10:37:55Z</time>
      </trkpt>
      <trkpt lat="44.0049" lon="5.18426">
        <ele>207.78</ele>
        <time>2019-03-13T10:37:59Z</time>
      </trkpt>
      <trkpt lat="44.00496" lon="5.18417">
        <ele>207.3</ele>
        <time>2019-03-13T10:38:08Z</time>
      </trkpt>
      <trkpt lat="44.00504" lon="5.184">
        <ele>207.3</ele>
        <time>2019-03-13T10:38:22Z</time>
      </trkpt>
      <trkpt lat="44.00514" lon="5.18391">
        <ele>207.3</ele>
        <time>2019-03-13T10:38:34Z</time>
      </trkpt>
      <trkpt lat="44.00517" lon="5.18388">
        <ele>207.78</ele>
        <time>2019-03-13T10:38:38Z</time>
      </trkpt>
      <trkpt lat="44.00523" lon="5.18376">
        <ele>206.82</ele>
        <time>2019-03-13T10:38:49Z</time>
      </trkpt>
      <trkpt lat="44.00526" lon="5.18365">
        <ele>206.82</ele>
        <time>2019-03-13T10:39:01Z</time>
      </trkpt>
      <trkpt lat="44.00525" lon="5.18364">
        <ele>206.82</ele>
        <time>2019-03-13T10:39:04Z</time>
      </trkpt>
      <trkpt lat="44.00523" lon="5.18353">
        <ele>207.3</ele>
        <time>2019-03-13T10:39:21Z</time>
      </trkpt>
      <trkpt lat="44.0052" lon="5.18346">
        <ele>206.82</ele>
        <time>2019-03-13T10:39:39Z</time>
      </trkpt>
      <trkpt lat="44.00515" lon="5.18334">
        <ele>206.82</ele>
        <time>2019-03-13T10:39:52Z</time>
      </trkpt>
      <trkpt lat="44.00515" lon="5.18331">
        <ele>205.86</ele>
        <time>2019-03-13T10:39:55Z</time>
      </trkpt>
      <trkpt lat="44.00513" lon="5.18313">
        <ele>206.34</ele>
        <time>2019-03-13T10:40:07Z</time>
      </trkpt>
      <trkpt lat="44.0051" lon="5.18301">
        <ele>206.34</ele>
        <time>2019-03-13T10:40:16Z</time>
      </trkpt>
      <trkpt lat="44.00502" lon="5.18284">
        <ele>206.34</ele>
        <time>2019-03-13T10:40:28Z</time>
      </trkpt>
      <trkpt lat="44.00499" lon="5.18276">
        <ele>206.82</ele>
        <time>2019-03-13T10:40:34Z</time>
      </trkpt>
      <trkpt lat="44.00487" lon="5.18256">
        <ele>205.86</ele>
        <time>2019-03-13T10:40:48Z</time>
      </trkpt>
      <trkpt lat="44.00479" lon="5.18242">
        <ele>205.38</ele>
        <time>2019-03-13T10:41:00Z</time>
      </trkpt>
      <trkpt lat="44.00468" lon="5.18226">
        <ele>205.38</ele>
        <time>2019-03-13T10:41:11Z</time>
      </trkpt>
      <trkpt lat="44.00467" lon="5.18224">
        <ele>206.34</ele>
        <time>2019-03-13T10:41:12Z</time>
      </trkpt>
      <trkpt lat="44.00459" lon="5.18208">
        <ele>205.38</ele>
        <time>2019-03-13T10:41:27Z</time>
      </trkpt>
      <trkpt lat="44.00459" lon="5.18197">
        <ele>205.38</ele>
        <time>2019-03-13T10:41:49Z</time>
      </trkpt>
      <trkpt lat="44.00462" lon="5.18198">
        <ele>205.86</ele>
        <time>2019-03-13T10:42:07Z</time>
      </trkpt>
      <trkpt lat="44.00466" lon="5.182">
        <ele>206.34</ele>
        <time>2019-03-13T10:42:30Z</time>
      </trkpt>
      <trkpt lat="44.00466" lon="5.182">
        <ele>206.34</ele>
        <time>2019-03-13T10:42:52Z</time>
      </trkpt>
      <trkpt lat="44.00466" lon="5.18199">
        <ele>206.34</ele>
        <time>2019-03-13T10:43:16Z</time>
      </trkpt>
      <trkpt lat="44.00469" lon="5.18188">
        <ele>205.38</ele>
        <time>2019-03-13T10:43:29Z</time>
      </trkpt>
      <trkpt lat="44.00469" lon="5.18186">
        <ele>206.82</ele>
        <time>2019-03-13T10:43:51Z</time>
      </trkpt>
      <trkpt lat="44.00467" lon="5.18185">
        <ele>205.86</ele>
        <time>2019-03-13T10:44:09Z</time>
      </trkpt>
      <trkpt lat="44.00467" lon="5.18182">
        <ele>206.34</ele>
        <time>2019-03-13T10:44:25Z</time>
      </trkpt>
      <trkpt lat="44.00463" lon="5.18171">
        <ele>205.86</ele>
        <time>2019-03-13T10:44:38Z</time>
      </trkpt>
      <trkpt lat="44.00461" lon="5.18167">
        <ele>205.38</ele>
        <time>2019-03-13T10:44:42Z</time>
      </trkpt>
      <trkpt lat="44.0045" lon="5.18149">
        <ele>205.38</ele>
        <time>2019-03-13T10:44:55Z</time>
      </trkpt>
      <trkpt lat="44.00449" lon="5.18147">
        <ele>205.38</ele>
        <time>2019-03-13T10:44:58Z</time>
      </trkpt>
      <trkpt lat="44.0044" lon="5.18128">
        <ele>204.9</ele>
        <time>2019-03-13T10:45:13Z</time>
      </trkpt>
      <trkpt lat="44.00435" lon="5.18124">
        <ele>204.9</ele>
        <time>2019-03-13T10:45:18Z</time>
      </trkpt>
      <trkpt lat="44.00428" lon="5.18115">
        <ele>204.42</ele>
        <time>2019-03-13T10:45:31Z</time>
      </trkpt>
      <trkpt lat="44.00419" lon="5.18101">
        <ele>204.42</ele>
        <time>2019-03-13T10:45:45Z</time>
      </trkpt>
      <trkpt lat="44.00418" lon="5.18089">
        <ele>204.42</ele>
        <time>2019-03-13T10:45:53Z</time>
      </trkpt>
      <trkpt lat="44.00418" lon="5.18079">
        <ele>201.05</ele>
        <time>2019-03-13T10:45:59Z</time>
      </trkpt>
      <trkpt lat="44.00418" lon="5.18076">
        <ele>204.42</ele>
        <time>2019-03-13T10:46:01Z</time>
      </trkpt>
      <trkpt lat="44.00419" lon="5.18046">
        <ele>203.94</ele>
        <time>2019-03-13T10:46:15Z</time>
      </trkpt>
      <trkpt lat="44.00418" lon="5.18036">
        <ele>203.46</ele>
        <time>2019-03-13T10:46:21Z</time>
      </trkpt>
      <trkpt lat="44.00417" lon="5.18034">
        <ele>204.42</ele>
        <time>2019-03-13T10:46:22Z</time>
      </trkpt>
      <trkpt lat="44.00405" lon="5.18017">
        <ele>202.49</ele>
        <time>2019-03-13T10:46:35Z</time>
      </trkpt>
      <trkpt lat="44.00395" lon="5.18015">
        <ele>203.46</ele>
        <time>2019-03-13T10:46:43Z</time>
      </trkpt>
      <trkpt lat="44.00381" lon="5.18006">
        <ele>202.49</ele>
        <time>2019-03-13T10:46:56Z</time>
      </trkpt>
      <trkpt lat="44.00372" lon="5.18">
        <ele>204.42</ele>
        <time>2019-03-13T10:47:07Z</time>
      </trkpt>
      <trkpt lat="44.00364" lon="5.17992">
        <ele>204.42</ele>
        <time>2019-03-13T10:47:15Z</time>
      </trkpt>
      <trkpt lat="44.00346" lon="5.17974">
        <ele>204.42</ele>
        <time>2019-03-13T10:47:31Z</time>
      </trkpt>
      <trkpt lat="44.00339" lon="5.17969">
        <ele>205.38</ele>
        <time>2019-03-13T10:47:36Z</time>
      </trkpt>
      <trkpt lat="44.00336" lon="5.17966">
        <ele>204.9</ele>
        <time>2019-03-13T10:47:39Z</time>
      </trkpt>
      <trkpt lat="44.00326" lon="5.17954">
        <ele>204.42</ele>
        <time>2019-03-13T10:47:49Z</time>
      </trkpt>
      <trkpt lat="44.00323" lon="5.17951">
        <ele>203.94</ele>
        <time>2019-03-13T10:47:52Z</time>
      </trkpt>
      <trkpt lat="44.0032" lon="5.17946">
        <ele>204.42</ele>
        <time>2019-03-13T10:48:02Z</time>
      </trkpt>
      <trkpt lat="44.00315" lon="5.17941">
        <ele>203.94</ele>
        <time>2019-03-13T10:48:11Z</time>
      </trkpt>
      <trkpt lat="44.00315" lon="5.1794">
        <ele>204.42</ele>
        <time>2019-03-13T10:48:14Z</time>
      </trkpt>
      <trkpt lat="44.003" lon="5.17931">
        <ele>204.42</ele>
        <time>2019-03-13T10:48:24Z</time>
      </trkpt>
      <trkpt lat="44.00295" lon="5.1793">
        <ele>204.42</ele>
        <time>2019-03-13T10:48:28Z</time>
      </trkpt>
      <trkpt lat="44.00292" lon="5.1793">
        <ele>204.42</ele>
        <time>2019-03-13T10:48:34Z</time>
      </trkpt>
      <trkpt lat="44.00283" lon="5.1793">
        <ele>203.94</ele>
        <time>2019-03-13T10:48:44Z</time>
      </trkpt>
      <trkpt lat="44.00282" lon="5.1793">
        <ele>203.94</ele>
        <time>2019-03-13T10:48:45Z</time>
      </trkpt>
      <trkpt lat="44.00273" lon="5.17923">
        <ele>203.46</ele>
        <time>2019-03-13T10:48:56Z</time>
      </trkpt>
      <trkpt lat="44.00259" lon="5.17912">
        <ele>203.46</ele>
        <time>2019-03-13T10:49:07Z</time>
      </trkpt>
      <trkpt lat="44.00249" lon="5.17904">
        <ele>202.49</ele>
        <time>2019-03-13T10:49:17Z</time>
      </trkpt>
      <trkpt lat="44.00245" lon="5.17895">
        <ele>201.05</ele>
        <time>2019-03-13T10:49:27Z</time>
      </trkpt>
      <trkpt lat="44.00241" lon="5.17886">
        <ele>200.57</ele>
        <time>2019-03-13T10:49:38Z</time>
      </trkpt>
      <trkpt lat="44.00244" lon="5.17877">
        <ele>202.01</ele>
        <time>2019-03-13T10:49:52Z</time>
      </trkpt>
      <trkpt lat="44.00245" lon="5.17873">
        <ele>201.05</ele>
        <time>2019-03-13T10:50:05Z</time>
      </trkpt>
      <trkpt lat="44.00251" lon="5.17874">
        <ele>201.05</ele>
        <time>2019-03-13T10:50:28Z</time>
      </trkpt>
      <trkpt lat="44.00251" lon="5.17875">
        <ele>201.05</ele>
        <time>2019-03-13T10:50:52Z</time>
      </trkpt>
      <trkpt lat="44.00253" lon="5.17875">
        <ele>202.01</ele>
        <time>2019-03-13T10:51:17Z</time>
      </trkpt>
      <trkpt lat="44.00253" lon="5.17875">
        <ele>202.01</ele>
        <time>2019-03-13T10:51:39Z</time>
      </trkpt>
      <trkpt lat="44.00253" lon="5.17875">
        <ele>202.49</ele>
        <time>2019-03-13T10:51:52Z</time>
      </trkpt>
      <trkpt lat="44.00253" lon="5.17875">
        <ele>203.46</ele>
        <time>2019-03-13T10:52:15Z</time>
      </trkpt>
      <trkpt lat="44.00253" lon="5.17875">
        <ele>202.49</ele>
        <time>2019-03-13T10:52:16Z</time>
      </trkpt>
      <trkpt lat="44.00252" lon="5.17874">
        <ele>201.53</ele>
        <time>2019-03-13T10:52:39Z</time>
      </trkpt>
      <trkpt lat="44.00252" lon="5.17874">
        <ele>201.05</ele>
        <time>2019-03-13T10:52:49Z</time>
      </trkpt>
      <trkpt lat="44.00252" lon="5.17874">
        <ele>207.78</ele>
        <time>2019-03-13T10:52:50Z</time>
      </trkpt>
      <trkpt lat="44.00252" lon="5.17874">
        <ele>202.49</ele>
        <time>2019-03-13T10:52:51Z</time>
      </trkpt>
      <trkpt lat="44.00251" lon="5.1787">
        <ele>199.61</ele>
        <time>2019-03-13T10:52:59Z</time>
      </trkpt>
      <trkpt lat="44.0025" lon="5.17867">
        <ele>203.94</ele>
        <time>2019-03-13T10:53:01Z</time>
      </trkpt>
      <trkpt lat="44.00249" lon="5.17866">
        <ele>199.13</ele>
        <time>2019-03-13T10:53:02Z</time>
      </trkpt>
      <trkpt lat="44.00248" lon="5.17865">
        <ele>200.57</ele>
        <time>2019-03-13T10:53:03Z</time>
      </trkpt>
      <trkpt lat="44.00247" lon="5.17863">
        <ele>204.42</ele>
        <time>2019-03-13T10:53:05Z</time>
      </trkpt>
      <trkpt lat="44.00247" lon="5.17862">
        <ele>204.42</ele>
        <time>2019-03-13T10:53:06Z</time>
      </trkpt>
      <trkpt lat="44.00246" lon="5.1786">
        <ele>201.05</ele>
        <time>2019-03-13T10:53:07Z</time>
      </trkpt>
      <trkpt lat="44.00244" lon="5.17858">
        <ele>202.98</ele>
        <time>2019-03-13T10:53:08Z</time>
      </trkpt>
      <trkpt lat="44.0024" lon="5.1785">
        <ele>202.98</ele>
        <time>2019-03-13T10:53:13Z</time>
      </trkpt>
      <trkpt lat="44.00237" lon="5.17836">
        <ele>203.94</ele>
        <time>2019-03-13T10:53:24Z</time>
      </trkpt>
      <trkpt lat="44.00234" lon="5.17827">
        <ele>203.46</ele>
        <time>2019-03-13T10:53:30Z</time>
      </trkpt>
      <trkpt lat="44.00231" lon="5.17823">
        <ele>202.49</ele>
        <time>2019-03-13T10:53:34Z</time>
      </trkpt>
      <trkpt lat="44.00231" lon="5.17803">
        <ele>202.98</ele>
        <time>2019-03-13T10:53:45Z</time>
      </trkpt>
      <trkpt lat="44.00231" lon="5.17794">
        <ele>202.01</ele>
        <time>2019-03-13T10:53:55Z</time>
      </trkpt>
      <trkpt lat="44.00236" lon="5.17788">
        <ele>200.57</ele>
        <time>2019-03-13T10:54:05Z</time>
      </trkpt>
      <trkpt lat="44.00238" lon="5.17786">
        <ele>202.01</ele>
        <time>2019-03-13T10:54:08Z</time>
      </trkpt>
      <trkpt lat="44.00239" lon="5.17773">
        <ele>203.46</ele>
        <time>2019-03-13T10:54:19Z</time>
      </trkpt>
      <trkpt lat="44.00236" lon="5.17766">
        <ele>202.49</ele>
        <time>2019-03-13T10:54:28Z</time>
      </trkpt>
      <trkpt lat="44.00233" lon="5.17747">
        <ele>202.49</ele>
        <time>2019-03-13T10:54:38Z</time>
      </trkpt>
      <trkpt lat="44.00231" lon="5.17729">
        <ele>203.94</ele>
        <time>2019-03-13T10:54:49Z</time>
      </trkpt>
      <trkpt lat="44.00231" lon="5.17724">
        <ele>200.57</ele>
        <time>2019-03-13T10:54:56Z</time>
      </trkpt>
      <trkpt lat="44.00224" lon="5.17703">
        <ele>201.53</ele>
        <time>2019-03-13T10:55:08Z</time>
      </trkpt>
      <trkpt lat="44.00226" lon="5.17692">
        <ele>199.13</ele>
        <time>2019-03-13T10:55:17Z</time>
      </trkpt>
      <trkpt lat="44.00231" lon="5.17679">
        <ele>199.13</ele>
        <time>2019-03-13T10:55:25Z</time>
      </trkpt>
      <trkpt lat="44.00233" lon="5.17677">
        <ele>200.09</ele>
        <time>2019-03-13T10:55:27Z</time>
      </trkpt>
      <trkpt lat="44.00233" lon="5.17667">
        <ele>201.53</ele>
        <time>2019-03-13T10:55:36Z</time>
      </trkpt>
      <trkpt lat="44.00233" lon="5.17659">
        <ele>200.57</ele>
        <time>2019-03-13T10:55:41Z</time>
      </trkpt>
      <trkpt lat="44.00238" lon="5.17644">
        <ele>202.98</ele>
        <time>2019-03-13T10:55:53Z</time>
      </trkpt>
      <trkpt lat="44.00239" lon="5.17628">
        <ele>203.46</ele>
        <time>2019-03-13T10:56:05Z</time>
      </trkpt>
      <trkpt lat="44.0024" lon="5.17612">
        <ele>203.46</ele>
        <time>2019-03-13T10:56:16Z</time>
      </trkpt>
      <trkpt lat="44.00242" lon="5.17598">
        <ele>203.94</ele>
        <time>2019-03-13T10:56:25Z</time>
      </trkpt>
      <trkpt lat="44.00241" lon="5.17592">
        <ele>202.49</ele>
        <time>2019-03-13T10:56:32Z</time>
      </trkpt>
      <trkpt lat="44.00236" lon="5.17579">
        <ele>201.53</ele>
        <time>2019-03-13T10:56:41Z</time>
      </trkpt>
      <trkpt lat="44.00228" lon="5.17564">
        <ele>200.57</ele>
        <time>2019-03-13T10:56:52Z</time>
      </trkpt>
      <trkpt lat="44.00218" lon="5.17563">
        <ele>202.49</ele>
        <time>2019-03-13T10:57:00Z</time>
      </trkpt>
      <trkpt lat="44.00216" lon="5.17564">
        <ele>201.05</ele>
        <time>2019-03-13T10:57:02Z</time>
      </trkpt>
      <trkpt lat="44.00211" lon="5.17567">
        <ele>199.61</ele>
        <time>2019-03-13T10:57:08Z</time>
      </trkpt>
      <trkpt lat="44.00198" lon="5.17571">
        <ele>200.57</ele>
        <time>2019-03-13T10:57:17Z</time>
      </trkpt>
      <trkpt lat="44.00189" lon="5.17572">
        <ele>198.65</ele>
        <time>2019-03-13T10:57:23Z</time>
      </trkpt>
      <trkpt lat="44.00187" lon="5.17572">
        <ele>199.61</ele>
        <time>2019-03-13T10:57:25Z</time>
      </trkpt>
      <trkpt lat="44.00179" lon="5.17575">
        <ele>199.13</ele>
        <time>2019-03-13T10:57:32Z</time>
      </trkpt>
      <trkpt lat="44.00168" lon="5.17578">
        <ele>197.69</ele>
        <time>2019-03-13T10:57:42Z</time>
      </trkpt>
      <trkpt lat="44.00154" lon="5.17577">
        <ele>197.69</ele>
        <time>2019-03-13T10:57:58Z</time>
      </trkpt>
      <trkpt lat="44.00146" lon="5.17573">
        <ele>198.17</ele>
        <time>2019-03-13T10:58:10Z</time>
      </trkpt>
      <trkpt lat="44.00137" lon="5.17572">
        <ele>196.73</ele>
        <time>2019-03-13T10:58:24Z</time>
      </trkpt>
      <trkpt lat="44.00136" lon="5.17573">
        <ele>199.13</ele>
        <time>2019-03-13T10:58:27Z</time>
      </trkpt>
      <trkpt lat="44.00136" lon="5.17573">
        <ele>197.69</ele>
        <time>2019-03-13T10:58:29Z</time>
      </trkpt>
      <trkpt lat="44.0012" lon="5.17571">
        <ele>198.17</ele>
        <time>2019-03-13T10:58:45Z</time>
      </trkpt>
      <trkpt lat="44.0011" lon="5.17573">
        <ele>197.21</ele>
        <time>2019-03-13T10:58:58Z</time>
      </trkpt>
      <trkpt lat="44.00109" lon="5.17573">
        <ele>201.05</ele>
        <time>2019-03-13T10:59:02Z</time>
      </trkpt>
      <trkpt lat="44.00109" lon="5.17573">
        <ele>197.21</ele>
        <time>2019-03-13T10:59:03Z</time>
      </trkpt>
      <trkpt lat="44.00098" lon="5.17574">
        <ele>199.13</ele>
        <time>2019-03-13T10:59:18Z</time>
      </trkpt>
      <trkpt lat="44.00086" lon="5.17573">
        <ele>199.13</ele>
        <time>2019-03-13T10:59:32Z</time>
      </trkpt>
      <trkpt lat="44.00063" lon="5.17562">
        <ele>199.13</ele>
        <time>2019-03-13T10:59:54Z</time>
      </trkpt>
      <trkpt lat="44.00057" lon="5.17563">
        <ele>199.13</ele>
        <time>2019-03-13T11:00:11Z</time>
      </trkpt>
      <trkpt lat="44.00061" lon="5.17566">
        <ele>198.17</ele>
        <time>2019-03-13T11:00:33Z</time>
      </trkpt>
      <trkpt lat="44.00063" lon="5.17564">
        <ele>199.13</ele>
        <time>2019-03-13T11:00:51Z</time>
      </trkpt>
      <trkpt lat="44.00062" lon="5.17561">
        <ele>199.13</ele>
        <time>2019-03-13T11:01:16Z</time>
      </trkpt>
      <trkpt lat="44.00059" lon="5.17561">
        <ele>199.61</ele>
        <time>2019-03-13T11:01:34Z</time>
      </trkpt>
      <trkpt lat="44.00059" lon="5.17561">
        <ele>195.77</ele>
        <time>2019-03-13T11:01:36Z</time>
      </trkpt>
      <trkpt lat="44.00057" lon="5.1756">
        <ele>199.61</ele>
        <time>2019-03-13T11:01:43Z</time>
      </trkpt>
      <trkpt lat="44.00056" lon="5.17559">
        <ele>199.61</ele>
        <time>2019-03-13T11:01:47Z</time>
      </trkpt>
      <trkpt lat="44.00051" lon="5.17555">
        <ele>197.21</ele>
        <time>2019-03-13T11:01:58Z</time>
      </trkpt>
      <trkpt lat="44.0005" lon="5.17554">
        <ele>201.05</ele>
        <time>2019-03-13T11:02:00Z</time>
      </trkpt>
      <trkpt lat="44.00048" lon="5.17553">
        <ele>198.17</ele>
        <time>2019-03-13T11:02:01Z</time>
      </trkpt>
      <trkpt lat="44.00038" lon="5.17551">
        <ele>202.01</ele>
        <time>2019-03-13T11:02:11Z</time>
      </trkpt>
      <trkpt lat="44.00037" lon="5.17551">
        <ele>200.57</ele>
        <time>2019-03-13T11:02:12Z</time>
      </trkpt>
      <trkpt lat="44.00029" lon="5.17549">
        <ele>198.17</ele>
        <time>2019-03-13T11:02:23Z</time>
      </trkpt>
      <trkpt lat="44.00026" lon="5.17543">
        <ele>197.69</ele>
        <time>2019-03-13T11:02:31Z</time>
      </trkpt>
      <trkpt lat="44.00025" lon="5.17543">
        <ele>200.09</ele>
        <time>2019-03-13T11:02:33Z</time>
      </trkpt>
      <trkpt lat="44.00023" lon="5.17543">
        <ele>200.57</ele>
        <time>2019-03-13T11:02:34Z</time>
      </trkpt>
      <trkpt lat="44.00023" lon="5.17543">
        <ele>198.17</ele>
        <time>2019-03-13T11:02:35Z</time>
      </trkpt>
      <trkpt lat="44.00022" lon="5.17534">
        <ele>199.13</ele>
        <time>2019-03-13T11:02:48Z</time>
      </trkpt>
      <trkpt lat="44.00014" lon="5.17533">
        <ele>200.09</ele>
        <time>2019-03-13T11:03:07Z</time>
      </trkpt>
      <trkpt lat="44.00016" lon="5.17538">
        <ele>198.65</ele>
        <time>2019-03-13T11:03:21Z</time>
      </trkpt>
      <trkpt lat="44.00013" lon="5.17552">
        <ele>198.17</ele>
        <time>2019-03-13T11:03:28Z</time>
      </trkpt>
      <trkpt lat="44.00011" lon="5.17558">
        <ele>198.17</ele>
        <time>2019-03-13T11:03:33Z</time>
      </trkpt>
      <trkpt lat="44.00011" lon="5.1756">
        <ele>199.13</ele>
        <time>2019-03-13T11:03:35Z</time>
      </trkpt>
      <trkpt lat="44.0001" lon="5.17561">
        <ele>197.21</ele>
        <time>2019-03-13T11:03:36Z</time>
      </trkpt>
      <trkpt lat="44.00011" lon="5.17561">
        <ele>199.13</ele>
        <time>2019-03-13T11:03:37Z</time>
      </trkpt>
      <trkpt lat="44.0001" lon="5.17562">
        <ele>200.57</ele>
        <time>2019-03-13T11:03:38Z</time>
      </trkpt>
      <trkpt lat="44.0001" lon="5.17563">
        <ele>198.17</ele>
        <time>2019-03-13T11:03:39Z</time>
      </trkpt>
      <trkpt lat="44.0001" lon="5.17568">
        <ele>198.65</ele>
        <time>2019-03-13T11:03:42Z</time>
      </trkpt>
      <trkpt lat="44.00012" lon="5.1757">
        <ele>198.65</ele>
        <time>2019-03-13T11:03:44Z</time>
      </trkpt>
      <trkpt lat="44.00015" lon="5.17576">
        <ele>197.69</ele>
        <time>2019-03-13T11:03:52Z</time>
      </trkpt>
      <trkpt lat="44.00022" lon="5.1758">
        <ele>197.69</ele>
        <time>2019-03-13T11:03:55Z</time>
      </trkpt>
      <trkpt lat="44.0003" lon="5.17585">
        <ele>196.73</ele>
        <time>2019-03-13T11:03:59Z</time>
      </trkpt>
      <trkpt lat="44.00032" lon="5.17586">
        <ele>199.13</ele>
        <time>2019-03-13T11:04:00Z</time>
      </trkpt>
      <trkpt lat="44.00026" lon="5.1758">
        <ele>195.28</ele>
        <time>2019-03-13T11:04:04Z</time>
      </trkpt>
      <trkpt lat="44.00026" lon="5.17578">
        <ele>199.61</ele>
        <time>2019-03-13T11:04:05Z</time>
      </trkpt>
      <trkpt lat="44.00021" lon="5.17572">
        <ele>198.17</ele>
        <time>2019-03-13T11:04:08Z</time>
      </trkpt>
      <trkpt lat="43.99909" lon="5.17488">
        <ele>199.13</ele>
        <time>2019-03-13T11:04:22Z</time>
      </trkpt>
      <trkpt lat="43.9991" lon="5.17489">
        <ele>197.21</ele>
        <time>2019-03-13T11:04:24Z</time>
      </trkpt>
      <trkpt lat="43.99909" lon="5.17487">
        <ele>200.57</ele>
        <time>2019-03-13T11:04:29Z</time>
      </trkpt>
      <trkpt lat="43.99902" lon="5.1748">
        <ele>195.77</ele>
        <time>2019-03-13T11:04:38Z</time>
      </trkpt>
      <trkpt lat="43.99902" lon="5.1748">
        <ele>200.57</ele>
        <time>2019-03-13T11:04:39Z</time>
      </trkpt>
      <trkpt lat="43.99895" lon="5.17471">
        <ele>199.13</ele>
        <time>2019-03-13T11:05:00Z</time>
      </trkpt>
      <trkpt lat="43.9989" lon="5.17467">
        <ele>198.65</ele>
        <time>2019-03-13T11:05:16Z</time>
      </trkpt>
      <trkpt lat="43.99882" lon="5.17461">
        <ele>198.17</ele>
        <time>2019-03-13T11:05:28Z</time>
      </trkpt>
      <trkpt lat="43.9988" lon="5.17458">
        <ele>197.21</ele>
        <time>2019-03-13T11:05:41Z</time>
      </trkpt>
      <trkpt lat="43.99879" lon="5.17456">
        <ele>198.17</ele>
        <time>2019-03-13T11:05:49Z</time>
      </trkpt>
      <trkpt lat="43.99877" lon="5.17454">
        <ele>194.8</ele>
        <time>2019-03-13T11:05:59Z</time>
      </trkpt>
      <trkpt lat="43.99878" lon="5.17452">
        <ele>196.25</ele>
        <time>2019-03-13T11:06:08Z</time>
      </trkpt>
      <trkpt lat="43.99878" lon="5.17451">
        <ele>196.25</ele>
        <time>2019-03-13T11:06:09Z</time>
      </trkpt>
      <trkpt lat="43.99878" lon="5.17438">
        <ele>196.73</ele>
        <time>2019-03-13T11:06:19Z</time>
      </trkpt>
      <trkpt lat="43.99882" lon="5.17426">
        <ele>194.32</ele>
        <time>2019-03-13T11:06:29Z</time>
      </trkpt>
      <trkpt lat="43.99884" lon="5.17419">
        <ele>198.65</ele>
        <time>2019-03-13T11:06:33Z</time>
      </trkpt>
      <trkpt lat="43.99884" lon="5.1742">
        <ele>193.84</ele>
        <time>2019-03-13T11:06:34Z</time>
      </trkpt>
      <trkpt lat="43.99885" lon="5.1742">
        <ele>197.21</ele>
        <time>2019-03-13T11:06:35Z</time>
      </trkpt>
      <trkpt lat="43.99887" lon="5.174">
        <ele>196.73</ele>
        <time>2019-03-13T11:06:44Z</time>
      </trkpt>
      <trkpt lat="43.99883" lon="5.17386">
        <ele>196.73</ele>
        <time>2019-03-13T11:06:51Z</time>
      </trkpt>
      <trkpt lat="43.99882" lon="5.17382">
        <ele>195.28</ele>
        <time>2019-03-13T11:06:53Z</time>
      </trkpt>
      <trkpt lat="43.99884" lon="5.1737">
        <ele>195.28</ele>
        <time>2019-03-13T11:07:03Z</time>
      </trkpt>
      <trkpt lat="43.99886" lon="5.17359">
        <ele>197.21</ele>
        <time>2019-03-13T11:07:13Z</time>
      </trkpt>
      <trkpt lat="43.99891" lon="5.17349">
        <ele>197.69</ele>
        <time>2019-03-13T11:07:25Z</time>
      </trkpt>
      <trkpt lat="43.99892" lon="5.17348">
        <ele>198.17</ele>
        <time>2019-03-13T11:07:28Z</time>
      </trkpt>
      <trkpt lat="43.99897" lon="5.17347">
        <ele>197.21</ele>
        <time>2019-03-13T11:07:35Z</time>
      </trkpt>
      <trkpt lat="43.999" lon="5.17333">
        <ele>197.69</ele>
        <time>2019-03-13T11:07:43Z</time>
      </trkpt>
      <trkpt lat="43.99902" lon="5.17327">
        <ele>195.28</ele>
        <time>2019-03-13T11:07:51Z</time>
      </trkpt>
      <trkpt lat="43.99896" lon="5.17312">
        <ele>194.32</ele>
        <time>2019-03-13T11:08:02Z</time>
      </trkpt>
      <trkpt lat="43.99895" lon="5.17308">
        <ele>197.69</ele>
        <time>2019-03-13T11:08:07Z</time>
      </trkpt>
      <trkpt lat="43.99895" lon="5.17305">
        <ele>195.77</ele>
        <time>2019-03-13T11:08:09Z</time>
      </trkpt>
      <trkpt lat="43.99897" lon="5.173">
        <ele>195.77</ele>
        <time>2019-03-13T11:08:15Z</time>
      </trkpt>
      <trkpt lat="43.99899" lon="5.17298">
        <ele>197.21</ele>
        <time>2019-03-13T11:08:17Z</time>
      </trkpt>
      <trkpt lat="43.999" lon="5.17297">
        <ele>193.84</ele>
        <time>2019-03-13T11:08:19Z</time>
      </trkpt>
      <trkpt lat="43.999" lon="5.17296">
        <ele>197.69</ele>
        <time>2019-03-13T11:08:20Z</time>
      </trkpt>
      <trkpt lat="43.99901" lon="5.17295">
        <ele>196.25</ele>
        <time>2019-03-13T11:08:21Z</time>
      </trkpt>
      <trkpt lat="43.99899" lon="5.17283">
        <ele>197.21</ele>
        <time>2019-03-13T11:08:31Z</time>
      </trkpt>
      <trkpt lat="43.99901" lon="5.1728">
        <ele>194.32</ele>
        <time>2019-03-13T11:08:35Z</time>
      </trkpt>
      <trkpt lat="43.99901" lon="5.1728">
        <ele>196.25</ele>
        <time>2019-03-13T11:08:36Z</time>
      </trkpt>
      <trkpt lat="43.99903" lon="5.1728">
        <ele>193.84</ele>
        <time>2019-03-13T11:08:38Z</time>
      </trkpt>
      <trkpt lat="43.99903" lon="5.1728">
        <ele>196.25</ele>
        <time>2019-03-13T11:08:39Z</time>
      </trkpt>
      <trkpt lat="43.99909" lon="5.1728">
        <ele>197.21</ele>
        <time>2019-03-13T11:08:43Z</time>
      </trkpt>
      <trkpt lat="43.99909" lon="5.17274">
        <ele>195.28</ele>
        <time>2019-03-13T11:08:47Z</time>
      </trkpt>
      <trkpt lat="43.99908" lon="5.17268">
        <ele>195.28</ele>
        <time>2019-03-13T11:08:50Z</time>
      </trkpt>
      <trkpt lat="43.99908" lon="5.17264">
        <ele>196.25</ele>
        <time>2019-03-13T11:08:51Z</time>
      </trkpt>
      <trkpt lat="43.99907" lon="5.1726">
        <ele>196.73</ele>
        <time>2019-03-13T11:08:53Z</time>
      </trkpt>
      <trkpt lat="43.99906" lon="5.17255">
        <ele>196.25</ele>
        <time>2019-03-13T11:08:55Z</time>
      </trkpt>
      <trkpt lat="43.99906" lon="5.1725">
        <ele>195.28</ele>
        <time>2019-03-13T11:08:58Z</time>
      </trkpt>
      <trkpt lat="43.99907" lon="5.17241">
        <ele>194.8</ele>
        <time>2019-03-13T11:09:03Z</time>
      </trkpt>
      <trkpt lat="43.99908" lon="5.1724">
        <ele>198.17</ele>
        <time>2019-03-13T11:09:05Z</time>
      </trkpt>
      <trkpt lat="43.99908" lon="5.1724">
        <ele>194.32</ele>
        <time>2019-03-13T11:09:06Z</time>
      </trkpt>
      <trkpt lat="43.99909" lon="5.17237">
        <ele>194.32</ele>
        <time>2019-03-13T11:09:08Z</time>
      </trkpt>
      <trkpt lat="43.99909" lon="5.17226">
        <ele>194.8</ele>
        <time>2019-03-13T11:09:18Z</time>
      </trkpt>
      <trkpt lat="43.9991" lon="5.17224">
        <ele>193.84</ele>
        <time>2019-03-13T11:09:21Z</time>
      </trkpt>
      <trkpt lat="43.99911" lon="5.17217">
        <ele>194.32</ele>
        <time>2019-03-13T11:09:26Z</time>
      </trkpt>
      <trkpt lat="43.99914" lon="5.17214">
        <ele>194.8</ele>
        <time>2019-03-13T11:09:29Z</time>
      </trkpt>
      <trkpt lat="43.99919" lon="5.17214">
        <ele>194.8</ele>
        <time>2019-03-13T11:09:31Z</time>
      </trkpt>
      <trkpt lat="43.99925" lon="5.17212">
        <ele>193.84</ele>
        <time>2019-03-13T11:09:37Z</time>
      </trkpt>
      <trkpt lat="43.99926" lon="5.17196">
        <ele>196.73</ele>
        <time>2019-03-13T11:09:49Z</time>
      </trkpt>
      <trkpt lat="43.99925" lon="5.17194">
        <ele>193.36</ele>
        <time>2019-03-13T11:09:50Z</time>
      </trkpt>
      <trkpt lat="43.99925" lon="5.17193">
        <ele>193.36</ele>
        <time>2019-03-13T11:09:51Z</time>
      </trkpt>
      <trkpt lat="43.99923" lon="5.1719">
        <ele>195.28</ele>
        <time>2019-03-13T11:09:53Z</time>
      </trkpt>
      <trkpt lat="43.99916" lon="5.17182">
        <ele>195.28</ele>
        <time>2019-03-13T11:09:56Z</time>
      </trkpt>
      <trkpt lat="43.99911" lon="5.17177">
        <ele>197.69</ele>
        <time>2019-03-13T11:09:59Z</time>
      </trkpt>
      <trkpt lat="43.99911" lon="5.17176">
        <ele>193.36</ele>
        <time>2019-03-13T11:10:00Z</time>
      </trkpt>
      <trkpt lat="43.99904" lon="5.17161">
        <ele>194.32</ele>
        <time>2019-03-13T11:10:11Z</time>
      </trkpt>
      <trkpt lat="43.99901" lon="5.17154">
        <ele>194.32</ele>
        <time>2019-03-13T11:10:22Z</time>
      </trkpt>
      <trkpt lat="43.999" lon="5.17146">
        <ele>196.25</ele>
        <time>2019-03-13T11:10:34Z</time>
      </trkpt>
      <trkpt lat="43.9989" lon="5.17124">
        <ele>195.77</ele>
        <time>2019-03-13T11:10:44Z</time>
      </trkpt>
      <trkpt lat="43.99889" lon="5.17123">
        <ele>195.77</ele>
        <time>2019-03-13T11:10:45Z</time>
      </trkpt>
      <trkpt lat="43.99878" lon="5.17113">
        <ele>194.32</ele>
        <time>2019-03-13T11:10:56Z</time>
      </trkpt>
      <trkpt lat="43.99868" lon="5.17099">
        <ele>194.8</ele>
        <time>2019-03-13T11:11:10Z</time>
      </trkpt>
      <trkpt lat="43.99867" lon="5.17097">
        <ele>194.32</ele>
        <time>2019-03-13T11:11:12Z</time>
      </trkpt>
      <trkpt lat="43.99859" lon="5.17086">
        <ele>195.77</ele>
        <time>2019-03-13T11:11:24Z</time>
      </trkpt>
      <trkpt lat="43.99857" lon="5.17084">
        <ele>194.32</ele>
        <time>2019-03-13T11:11:26Z</time>
      </trkpt>
      <trkpt lat="43.99861" lon="5.17065">
        <ele>192.4</ele>
        <time>2019-03-13T11:11:38Z</time>
      </trkpt>
      <trkpt lat="43.99868" lon="5.17054">
        <ele>193.36</ele>
        <time>2019-03-13T11:11:48Z</time>
      </trkpt>
      <trkpt lat="43.99871" lon="5.1705">
        <ele>193.84</ele>
        <time>2019-03-13T11:12:00Z</time>
      </trkpt>
      <trkpt lat="43.99871" lon="5.17049">
        <ele>193.84</ele>
        <time>2019-03-13T11:12:01Z</time>
      </trkpt>
      <trkpt lat="43.99857" lon="5.17038">
        <ele>191.92</ele>
        <time>2019-03-13T11:12:09Z</time>
      </trkpt>
      <trkpt lat="43.99852" lon="5.17034">
        <ele>193.36</ele>
        <time>2019-03-13T11:12:11Z</time>
      </trkpt>
      <trkpt lat="43.99833" lon="5.17023">
        <ele>191.44</ele>
        <time>2019-03-13T11:12:21Z</time>
      </trkpt>
      <trkpt lat="43.99831" lon="5.17011">
        <ele>193.36</ele>
        <time>2019-03-13T11:12:32Z</time>
      </trkpt>
      <trkpt lat="43.99829" lon="5.16999">
        <ele>191.44</ele>
        <time>2019-03-13T11:12:43Z</time>
      </trkpt>
      <trkpt lat="43.99824" lon="5.16988">
        <ele>191.44</ele>
        <time>2019-03-13T11:12:55Z</time>
      </trkpt>
      <trkpt lat="43.99823" lon="5.16976">
        <ele>194.32</ele>
        <time>2019-03-13T11:13:05Z</time>
      </trkpt>
      <trkpt lat="43.99824" lon="5.16974">
        <ele>191.92</ele>
        <time>2019-03-13T11:13:09Z</time>
      </trkpt>
      <trkpt lat="43.99825" lon="5.16972">
        <ele>191.92</ele>
        <time>2019-03-13T11:13:10Z</time>
      </trkpt>
      <trkpt lat="43.99827" lon="5.16955">
        <ele>191.44</ele>
        <time>2019-03-13T11:13:21Z</time>
      </trkpt>
      <trkpt lat="43.99829" lon="5.16949">
        <ele>190.96</ele>
        <time>2019-03-13T11:13:26Z</time>
      </trkpt>
      <trkpt lat="43.99836" lon="5.16935">
        <ele>191.92</ele>
        <time>2019-03-13T11:13:38Z</time>
      </trkpt>
      <trkpt lat="43.99836" lon="5.16922">
        <ele>191.92</ele>
        <time>2019-03-13T11:13:49Z</time>
      </trkpt>
      <trkpt lat="43.99832" lon="5.16917">
        <ele>191.92</ele>
        <time>2019-03-13T11:13:54Z</time>
      </trkpt>
      <trkpt lat="43.99825" lon="5.16911">
        <ele>192.4</ele>
        <time>2019-03-13T11:14:01Z</time>
      </trkpt>
      <trkpt lat="43.99815" lon="5.16892">
        <ele>191.92</ele>
        <time>2019-03-13T11:14:14Z</time>
      </trkpt>
      <trkpt lat="43.99815" lon="5.16881">
        <ele>190.96</ele>
        <time>2019-03-13T11:14:26Z</time>
      </trkpt>
      <trkpt lat="43.99812" lon="5.16875">
        <ele>190.96</ele>
        <time>2019-03-13T11:14:37Z</time>
      </trkpt>
      <trkpt lat="43.99805" lon="5.16863">
        <ele>192.4</ele>
        <time>2019-03-13T11:14:48Z</time>
      </trkpt>
      <trkpt lat="43.99804" lon="5.16854">
        <ele>191.92</ele>
        <time>2019-03-13T11:14:58Z</time>
      </trkpt>
      <trkpt lat="43.99805" lon="5.16853">
        <ele>190</ele>
        <time>2019-03-13T11:15:04Z</time>
      </trkpt>
      <trkpt lat="43.99806" lon="5.16853">
        <ele>191.44</ele>
        <time>2019-03-13T11:15:05Z</time>
      </trkpt>
      <trkpt lat="43.99802" lon="5.1684">
        <ele>191.44</ele>
        <time>2019-03-13T11:15:13Z</time>
      </trkpt>
      <trkpt lat="43.99803" lon="5.16839">
        <ele>189.04</ele>
        <time>2019-03-13T11:15:14Z</time>
      </trkpt>
      <trkpt lat="43.99803" lon="5.16839">
        <ele>191.44</ele>
        <time>2019-03-13T11:15:15Z</time>
      </trkpt>
      <trkpt lat="43.99797" lon="5.16822">
        <ele>190</ele>
        <time>2019-03-13T11:15:26Z</time>
      </trkpt>
      <trkpt lat="43.99796" lon="5.1682">
        <ele>190</ele>
        <time>2019-03-13T11:15:29Z</time>
      </trkpt>
      <trkpt lat="43.99794" lon="5.16817">
        <ele>191.92</ele>
        <time>2019-03-13T11:15:34Z</time>
      </trkpt>
      <trkpt lat="43.99792" lon="5.16814">
        <ele>189.04</ele>
        <time>2019-03-13T11:15:35Z</time>
      </trkpt>
      <trkpt lat="43.99792" lon="5.16811">
        <ele>190</ele>
        <time>2019-03-13T11:15:38Z</time>
      </trkpt>
      <trkpt lat="43.9979" lon="5.16807">
        <ele>189.52</ele>
        <time>2019-03-13T11:15:40Z</time>
      </trkpt>
      <trkpt lat="43.99778" lon="5.16785">
        <ele>190.96</ele>
        <time>2019-03-13T11:15:51Z</time>
      </trkpt>
      <trkpt lat="43.99778" lon="5.16776">
        <ele>187.59</ele>
        <time>2019-03-13T11:15:56Z</time>
      </trkpt>
      <trkpt lat="43.99777" lon="5.16773">
        <ele>190.96</ele>
        <time>2019-03-13T11:15:57Z</time>
      </trkpt>
      <trkpt lat="43.99777" lon="5.16772">
        <ele>190.48</ele>
        <time>2019-03-13T11:15:58Z</time>
      </trkpt>
      <trkpt lat="43.99775" lon="5.16755">
        <ele>190</ele>
        <time>2019-03-13T11:16:10Z</time>
      </trkpt>
      <trkpt lat="43.99779" lon="5.16744">
        <ele>190</ele>
        <time>2019-03-13T11:16:20Z</time>
      </trkpt>
      <trkpt lat="43.9978" lon="5.16741">
        <ele>189.04</ele>
        <time>2019-03-13T11:16:22Z</time>
      </trkpt>
      <trkpt lat="43.99782" lon="5.16732">
        <ele>190.96</ele>
        <time>2019-03-13T11:16:33Z</time>
      </trkpt>
      <trkpt lat="43.99782" lon="5.16729">
        <ele>188.56</ele>
        <time>2019-03-13T11:16:36Z</time>
      </trkpt>
      <trkpt lat="43.99785" lon="5.16714">
        <ele>189.04</ele>
        <time>2019-03-13T11:16:48Z</time>
      </trkpt>
      <trkpt lat="43.99787" lon="5.16706">
        <ele>186.63</ele>
        <time>2019-03-13T11:16:55Z</time>
      </trkpt>
      <trkpt lat="43.9979" lon="5.16704">
        <ele>189.52</ele>
        <time>2019-03-13T11:16:57Z</time>
      </trkpt>
      <trkpt lat="43.99792" lon="5.167">
        <ele>188.56</ele>
        <time>2019-03-13T11:17:01Z</time>
      </trkpt>
      <trkpt lat="43.99798" lon="5.16685">
        <ele>190.48</ele>
        <time>2019-03-13T11:17:12Z</time>
      </trkpt>
      <trkpt lat="43.99797" lon="5.16684">
        <ele>190.48</ele>
        <time>2019-03-13T11:17:13Z</time>
      </trkpt>
      <trkpt lat="43.99805" lon="5.16678">
        <ele>188.08</ele>
        <time>2019-03-13T11:17:22Z</time>
      </trkpt>
      <trkpt lat="43.99806" lon="5.16677">
        <ele>190</ele>
        <time>2019-03-13T11:17:23Z</time>
      </trkpt>
      <trkpt lat="43.99804" lon="5.1667">
        <ele>188.56</ele>
        <time>2019-03-13T11:17:25Z</time>
      </trkpt>
      <trkpt lat="43.99798" lon="5.16652">
        <ele>189.52</ele>
        <time>2019-03-13T11:17:36Z</time>
      </trkpt>
      <trkpt lat="43.99801" lon="5.16645">
        <ele>188.56</ele>
        <time>2019-03-13T11:17:42Z</time>
      </trkpt>
      <trkpt lat="43.99805" lon="5.16633">
        <ele>188.08</ele>
        <time>2019-03-13T11:17:54Z</time>
      </trkpt>
      <trkpt lat="43.99802" lon="5.1662">
        <ele>188.56</ele>
        <time>2019-03-13T11:18:05Z</time>
      </trkpt>
      <trkpt lat="43.99802" lon="5.16615">
        <ele>188.56</ele>
        <time>2019-03-13T11:18:16Z</time>
      </trkpt>
      <trkpt lat="43.99803" lon="5.16606">
        <ele>187.11</ele>
        <time>2019-03-13T11:18:26Z</time>
      </trkpt>
      <trkpt lat="43.99802" lon="5.16604">
        <ele>190.96</ele>
        <time>2019-03-13T11:18:28Z</time>
      </trkpt>
      <trkpt lat="43.99802" lon="5.1659">
        <ele>188.08</ele>
        <time>2019-03-13T11:18:43Z</time>
      </trkpt>
      <trkpt lat="43.99813" lon="5.16583">
        <ele>186.63</ele>
        <time>2019-03-13T11:19:01Z</time>
      </trkpt>
      <trkpt lat="43.99816" lon="5.16582">
        <ele>190</ele>
        <time>2019-03-13T11:19:08Z</time>
      </trkpt>
      <trkpt lat="43.99823" lon="5.16579">
        <ele>189.04</ele>
        <time>2019-03-13T11:19:23Z</time>
      </trkpt>
      <trkpt lat="43.99826" lon="5.16578">
        <ele>187.59</ele>
        <time>2019-03-13T11:19:28Z</time>
      </trkpt>
      <trkpt lat="43.99829" lon="5.16572">
        <ele>189.52</ele>
        <time>2019-03-13T11:19:41Z</time>
      </trkpt>
      <trkpt lat="43.99829" lon="5.16572">
        <ele>190</ele>
        <time>2019-03-13T11:19:43Z</time>
      </trkpt>
      <trkpt lat="43.9983" lon="5.16572">
        <ele>189.04</ele>
        <time>2019-03-13T11:19:44Z</time>
      </trkpt>
      <trkpt lat="43.99836" lon="5.1656">
        <ele>189.52</ele>
        <time>2019-03-13T11:19:56Z</time>
      </trkpt>
      <trkpt lat="43.99841" lon="5.16553">
        <ele>186.15</ele>
        <time>2019-03-13T11:20:07Z</time>
      </trkpt>
      <trkpt lat="43.99847" lon="5.16542">
        <ele>185.19</ele>
        <time>2019-03-13T11:20:20Z</time>
      </trkpt>
      <trkpt lat="43.99857" lon="5.16531">
        <ele>188.56</ele>
        <time>2019-03-13T11:20:31Z</time>
      </trkpt>
      <trkpt lat="43.99859" lon="5.16505">
        <ele>189.04</ele>
        <time>2019-03-13T11:20:43Z</time>
      </trkpt>
      <trkpt lat="43.99862" lon="5.16498">
        <ele>185.67</ele>
        <time>2019-03-13T11:20:49Z</time>
      </trkpt>
      <trkpt lat="43.99862" lon="5.16497">
        <ele>189.04</ele>
        <time>2019-03-13T11:20:50Z</time>
      </trkpt>
      <trkpt lat="43.99871" lon="5.16482">
        <ele>188.08</ele>
        <time>2019-03-13T11:21:04Z</time>
      </trkpt>
      <trkpt lat="43.99885" lon="5.1647">
        <ele>186.15</ele>
        <time>2019-03-13T11:21:16Z</time>
      </trkpt>
      <trkpt lat="43.99886" lon="5.16469">
        <ele>187.59</ele>
        <time>2019-03-13T11:21:19Z</time>
      </trkpt>
      <trkpt lat="43.99899" lon="5.16455">
        <ele>188.08</ele>
        <time>2019-03-13T11:21:29Z</time>
      </trkpt>
      <trkpt lat="43.99914" lon="5.16445">
        <ele>186.15</ele>
        <time>2019-03-13T11:21:41Z</time>
      </trkpt>
      <trkpt lat="43.99919" lon="5.16433">
        <ele>185.67</ele>
        <time>2019-03-13T11:21:54Z</time>
      </trkpt>
      <trkpt lat="43.99923" lon="5.16416">
        <ele>187.11</ele>
        <time>2019-03-13T11:22:09Z</time>
      </trkpt>
      <trkpt lat="43.99926" lon="5.16408">
        <ele>187.59</ele>
        <time>2019-03-13T11:22:20Z</time>
      </trkpt>
      <trkpt lat="43.99929" lon="5.16399">
        <ele>187.59</ele>
        <time>2019-03-13T11:22:31Z</time>
      </trkpt>
      <trkpt lat="43.99933" lon="5.16392">
        <ele>184.23</ele>
        <time>2019-03-13T11:22:45Z</time>
      </trkpt>
      <trkpt lat="43.99933" lon="5.16391">
        <ele>187.59</ele>
        <time>2019-03-13T11:22:46Z</time>
      </trkpt>
      <trkpt lat="43.99936" lon="5.16385">
        <ele>184.71</ele>
        <time>2019-03-13T11:22:57Z</time>
      </trkpt>
      <trkpt lat="43.99937" lon="5.16378">
        <ele>185.67</ele>
        <time>2019-03-13T11:23:11Z</time>
      </trkpt>
      <trkpt lat="43.99938" lon="5.16371">
        <ele>186.15</ele>
        <time>2019-03-13T11:23:24Z</time>
      </trkpt>
      <trkpt lat="43.99938" lon="5.16362">
        <ele>185.19</ele>
        <time>2019-03-13T11:23:45Z</time>
      </trkpt>
      <trkpt lat="43.99938" lon="5.16348">
        <ele>185.67</ele>
        <time>2019-03-13T11:24:00Z</time>
      </trkpt>
      <trkpt lat="43.99942" lon="5.16341">
        <ele>184.71</ele>
        <time>2019-03-13T11:24:17Z</time>
      </trkpt>
      <trkpt lat="43.99944" lon="5.16335">
        <ele>185.19</ele>
        <time>2019-03-13T11:24:31Z</time>
      </trkpt>
      <trkpt lat="43.99946" lon="5.16326">
        <ele>185.19</ele>
        <time>2019-03-13T11:24:38Z</time>
      </trkpt>
      <trkpt lat="43.99952" lon="5.16298">
        <ele>184.71</ele>
        <time>2019-03-13T11:24:52Z</time>
      </trkpt>
      <trkpt lat="43.99956" lon="5.1628">
        <ele>184.23</ele>
        <time>2019-03-13T11:24:59Z</time>
      </trkpt>
      <trkpt lat="43.99961" lon="5.16258">
        <ele>185.19</ele>
        <time>2019-03-13T11:25:10Z</time>
      </trkpt>
      <trkpt lat="43.99965" lon="5.16246">
        <ele>186.63</ele>
        <time>2019-03-13T11:25:22Z</time>
      </trkpt>
      <trkpt lat="43.99967" lon="5.16234">
        <ele>185.67</ele>
        <time>2019-03-13T11:25:34Z</time>
      </trkpt>
      <trkpt lat="43.99968" lon="5.16232">
        <ele>183.75</ele>
        <time>2019-03-13T11:25:36Z</time>
      </trkpt>
      <trkpt lat="43.9997" lon="5.16222">
        <ele>184.71</ele>
        <time>2019-03-13T11:25:46Z</time>
      </trkpt>
      <trkpt lat="43.99973" lon="5.16207">
        <ele>184.23</ele>
        <time>2019-03-13T11:25:59Z</time>
      </trkpt>
      <trkpt lat="43.99971" lon="5.16194">
        <ele>182.79</ele>
        <time>2019-03-13T11:26:17Z</time>
      </trkpt>
      <trkpt lat="43.99972" lon="5.16189">
        <ele>185.67</ele>
        <time>2019-03-13T11:26:26Z</time>
      </trkpt>
      <trkpt lat="43.99974" lon="5.16182">
        <ele>185.67</ele>
        <time>2019-03-13T11:26:38Z</time>
      </trkpt>
      <trkpt lat="43.99977" lon="5.16176">
        <ele>185.19</ele>
        <time>2019-03-13T11:26:42Z</time>
      </trkpt>
      <trkpt lat="43.99979" lon="5.16172">
        <ele>183.27</ele>
        <time>2019-03-13T11:26:45Z</time>
      </trkpt>
      <trkpt lat="43.99984" lon="5.16142">
        <ele>184.23</ele>
        <time>2019-03-13T11:26:58Z</time>
      </trkpt>
      <trkpt lat="43.99988" lon="5.16133">
        <ele>183.27</ele>
        <time>2019-03-13T11:27:11Z</time>
      </trkpt>
      <trkpt lat="43.99991" lon="5.16127">
        <ele>182.79</ele>
        <time>2019-03-13T11:27:22Z</time>
      </trkpt>
      <trkpt lat="43.99991" lon="5.16123">
        <ele>186.15</ele>
        <time>2019-03-13T11:27:24Z</time>
      </trkpt>
      <trkpt lat="43.99991" lon="5.16122">
        <ele>182.79</ele>
        <time>2019-03-13T11:27:25Z</time>
      </trkpt>
      <trkpt lat="43.99991" lon="5.16119">
        <ele>186.15</ele>
        <time>2019-03-13T11:27:27Z</time>
      </trkpt>
      <trkpt lat="43.99991" lon="5.16119">
        <ele>185.67</ele>
        <time>2019-03-13T11:27:28Z</time>
      </trkpt>
      <trkpt lat="43.99985" lon="5.16094">
        <ele>184.71</ele>
        <time>2019-03-13T11:27:39Z</time>
      </trkpt>
      <trkpt lat="43.99983" lon="5.16088">
        <ele>183.75</ele>
        <time>2019-03-13T11:27:41Z</time>
      </trkpt>
      <trkpt lat="43.9998" lon="5.16085">
        <ele>182.79</ele>
        <time>2019-03-13T11:27:44Z</time>
      </trkpt>
      <trkpt lat="43.99966" lon="5.16069">
        <ele>185.67</ele>
        <time>2019-03-13T11:27:58Z</time>
      </trkpt>
      <trkpt lat="43.99961" lon="5.16066">
        <ele>183.75</ele>
        <time>2019-03-13T11:28:12Z</time>
      </trkpt>
      <trkpt lat="43.99946" lon="5.16068">
        <ele>185.19</ele>
        <time>2019-03-13T11:28:26Z</time>
      </trkpt>
      <trkpt lat="43.9994" lon="5.16062">
        <ele>184.23</ele>
        <time>2019-03-13T11:28:39Z</time>
      </trkpt>
      <trkpt lat="43.99941" lon="5.16065">
        <ele>186.15</ele>
        <time>2019-03-13T11:28:59Z</time>
      </trkpt>
      <trkpt lat="43.99941" lon="5.16066">
        <ele>182.31</ele>
        <time>2019-03-13T11:29:06Z</time>
      </trkpt>
      <trkpt lat="43.99941" lon="5.16066">
        <ele>185.67</ele>
        <time>2019-03-13T11:29:08Z</time>
      </trkpt>
      <trkpt lat="43.99942" lon="5.16064">
        <ele>185.19</ele>
        <time>2019-03-13T11:29:36Z</time>
      </trkpt>
      <trkpt lat="43.99942" lon="5.16064">
        <ele>185.19</ele>
        <time>2019-03-13T11:29:50Z</time>
      </trkpt>
      <trkpt lat="43.9994" lon="5.16064">
        <ele>190.48</ele>
        <time>2019-03-13T11:29:59Z</time>
      </trkpt>
      <trkpt lat="43.9994" lon="5.16063">
        <ele>185.19</ele>
        <time>2019-03-13T11:30:00Z</time>
      </trkpt>
      <trkpt lat="43.99932" lon="5.16059">
        <ele>184.71</ele>
        <time>2019-03-13T11:30:12Z</time>
      </trkpt>
      <trkpt lat="43.99928" lon="5.16055">
        <ele>186.15</ele>
        <time>2019-03-13T11:30:17Z</time>
      </trkpt>
      <trkpt lat="43.99915" lon="5.1605">
        <ele>185.19</ele>
        <time>2019-03-13T11:30:30Z</time>
      </trkpt>
      <trkpt lat="43.99904" lon="5.16047">
        <ele>185.67</ele>
        <time>2019-03-13T11:30:44Z</time>
      </trkpt>
      <trkpt lat="43.99895" lon="5.16042">
        <ele>184.71</ele>
        <time>2019-03-13T11:30:53Z</time>
      </trkpt>
      <trkpt lat="43.99893" lon="5.16037">
        <ele>185.67</ele>
        <time>2019-03-13T11:30:56Z</time>
      </trkpt>
      <trkpt lat="43.99888" lon="5.16028">
        <ele>185.67</ele>
        <time>2019-03-13T11:31:03Z</time>
      </trkpt>
      <trkpt lat="43.99882" lon="5.16023">
        <ele>185.19</ele>
        <time>2019-03-13T11:31:08Z</time>
      </trkpt>
      <trkpt lat="43.9987" lon="5.16011">
        <ele>185.19</ele>
        <time>2019-03-13T11:31:21Z</time>
      </trkpt>
      <trkpt lat="43.99857" lon="5.16002">
        <ele>185.19</ele>
        <time>2019-03-13T11:31:34Z</time>
      </trkpt>
      <trkpt lat="43.99855" lon="5.16">
        <ele>185.19</ele>
        <time>2019-03-13T11:31:38Z</time>
      </trkpt>
      <trkpt lat="43.99852" lon="5.15998">
        <ele>185.19</ele>
        <time>2019-03-13T11:31:41Z</time>
      </trkpt>
      <trkpt lat="43.99844" lon="5.15986">
        <ele>185.19</ele>
        <time>2019-03-13T11:31:49Z</time>
      </trkpt>
      <trkpt lat="43.99838" lon="5.15967">
        <ele>184.71</ele>
        <time>2019-03-13T11:32:02Z</time>
      </trkpt>
      <trkpt lat="43.99837" lon="5.15967">
        <ele>184.71</ele>
        <time>2019-03-13T11:32:03Z</time>
      </trkpt>
      <trkpt lat="43.99836" lon="5.15962">
        <ele>184.71</ele>
        <time>2019-03-13T11:32:07Z</time>
      </trkpt>
      <trkpt lat="43.99833" lon="5.15958">
        <ele>184.23</ele>
        <time>2019-03-13T11:32:11Z</time>
      </trkpt>
      <trkpt lat="43.99825" lon="5.15945">
        <ele>184.71</ele>
        <time>2019-03-13T11:32:23Z</time>
      </trkpt>
      <trkpt lat="43.99824" lon="5.15944">
        <ele>184.71</ele>
        <time>2019-03-13T11:32:25Z</time>
      </trkpt>
      <trkpt lat="43.99821" lon="5.15942">
        <ele>184.23</ele>
        <time>2019-03-13T11:32:30Z</time>
      </trkpt>
      <trkpt lat="43.99813" lon="5.15936">
        <ele>183.27</ele>
        <time>2019-03-13T11:32:41Z</time>
      </trkpt>
      <trkpt lat="43.99811" lon="5.15936">
        <ele>183.75</ele>
        <time>2019-03-13T11:32:42Z</time>
      </trkpt>
      <trkpt lat="43.99804" lon="5.15932">
        <ele>182.79</ele>
        <time>2019-03-13T11:32:48Z</time>
      </trkpt>
      <trkpt lat="43.99802" lon="5.15929">
        <ele>182.79</ele>
        <time>2019-03-13T11:32:50Z</time>
      </trkpt>
      <trkpt lat="43.99799" lon="5.15927">
        <ele>183.27</ele>
        <time>2019-03-13T11:32:52Z</time>
      </trkpt>
      <trkpt lat="43.9979" lon="5.15916">
        <ele>182.79</ele>
        <time>2019-03-13T11:33:03Z</time>
      </trkpt>
      <trkpt lat="43.99789" lon="5.15915">
        <ele>182.31</ele>
        <time>2019-03-13T11:33:04Z</time>
      </trkpt>
      <trkpt lat="43.99787" lon="5.15911">
        <ele>182.31</ele>
        <time>2019-03-13T11:33:07Z</time>
      </trkpt>
      <trkpt lat="43.99785" lon="5.15908">
        <ele>182.31</ele>
        <time>2019-03-13T11:33:10Z</time>
      </trkpt>
      <trkpt lat="43.99779" lon="5.15896">
        <ele>183.27</ele>
        <time>2019-03-13T11:33:20Z</time>
      </trkpt>
      <trkpt lat="43.99769" lon="5.15889">
        <ele>183.75</ele>
        <time>2019-03-13T11:33:34Z</time>
      </trkpt>
      <trkpt lat="43.99763" lon="5.15892">
        <ele>183.75</ele>
        <time>2019-03-13T11:33:46Z</time>
      </trkpt>
      <trkpt lat="43.99762" lon="5.15892">
        <ele>182.31</ele>
        <time>2019-03-13T11:33:53Z</time>
      </trkpt>
      <trkpt lat="43.99756" lon="5.15895">
        <ele>183.75</ele>
        <time>2019-03-13T11:34:02Z</time>
      </trkpt>
      <trkpt lat="43.99754" lon="5.15898">
        <ele>183.75</ele>
        <time>2019-03-13T11:34:05Z</time>
      </trkpt>
      <trkpt lat="43.99751" lon="5.159">
        <ele>184.23</ele>
        <time>2019-03-13T11:34:08Z</time>
      </trkpt>
      <trkpt lat="43.9975" lon="5.15902">
        <ele>183.75</ele>
        <time>2019-03-13T11:34:10Z</time>
      </trkpt>
      <trkpt lat="43.99747" lon="5.15908">
        <ele>183.75</ele>
        <time>2019-03-13T11:34:14Z</time>
      </trkpt>
      <trkpt lat="43.99744" lon="5.15915">
        <ele>183.27</ele>
        <time>2019-03-13T11:34:20Z</time>
      </trkpt>
      <trkpt lat="43.9974" lon="5.15927">
        <ele>183.75</ele>
        <time>2019-03-13T11:34:29Z</time>
      </trkpt>
      <trkpt lat="43.9974" lon="5.15933">
        <ele>184.23</ele>
        <time>2019-03-13T11:34:34Z</time>
      </trkpt>
      <trkpt lat="43.99738" lon="5.15941">
        <ele>183.27</ele>
        <time>2019-03-13T11:34:40Z</time>
      </trkpt>
      <trkpt lat="43.99737" lon="5.15948">
        <ele>182.79</ele>
        <time>2019-03-13T11:34:46Z</time>
      </trkpt>
      <trkpt lat="43.99736" lon="5.15953">
        <ele>183.75</ele>
        <time>2019-03-13T11:34:49Z</time>
      </trkpt>
      <trkpt lat="43.99735" lon="5.15956">
        <ele>185.19</ele>
        <time>2019-03-13T11:34:51Z</time>
      </trkpt>
      <trkpt lat="43.99734" lon="5.15961">
        <ele>185.67</ele>
        <time>2019-03-13T11:34:54Z</time>
      </trkpt>
      <trkpt lat="43.99733" lon="5.15978">
        <ele>186.63</ele>
        <time>2019-03-13T11:35:06Z</time>
      </trkpt>
      <trkpt lat="43.99734" lon="5.15985">
        <ele>186.63</ele>
        <time>2019-03-13T11:35:12Z</time>
      </trkpt>
      <trkpt lat="43.99734" lon="5.15987">
        <ele>187.11</ele>
        <time>2019-03-13T11:35:14Z</time>
      </trkpt>
      <trkpt lat="43.99733" lon="5.1599">
        <ele>187.59</ele>
        <time>2019-03-13T11:35:16Z</time>
      </trkpt>
      <trkpt lat="43.99731" lon="5.15997">
        <ele>187.59</ele>
        <time>2019-03-13T11:35:22Z</time>
      </trkpt>
      <trkpt lat="43.99727" lon="5.16008">
        <ele>190</ele>
        <time>2019-03-13T11:35:33Z</time>
      </trkpt>
      <trkpt lat="43.99726" lon="5.16009">
        <ele>189.52</ele>
        <time>2019-03-13T11:35:34Z</time>
      </trkpt>
      <trkpt lat="43.99724" lon="5.16014">
        <ele>189.04</ele>
        <time>2019-03-13T11:35:39Z</time>
      </trkpt>
      <trkpt lat="43.99719" lon="5.16025">
        <ele>190.48</ele>
        <time>2019-03-13T11:35:50Z</time>
      </trkpt>
      <trkpt lat="43.99715" lon="5.16037">
        <ele>192.88</ele>
        <time>2019-03-13T11:36:03Z</time>
      </trkpt>
      <trkpt lat="43.99713" lon="5.16041">
        <ele>192.4</ele>
        <time>2019-03-13T11:36:07Z</time>
      </trkpt>
      <trkpt lat="43.99709" lon="5.16047">
        <ele>194.8</ele>
        <time>2019-03-13T11:36:19Z</time>
      </trkpt>
      <trkpt lat="43.99708" lon="5.16048">
        <ele>193.84</ele>
        <time>2019-03-13T11:36:20Z</time>
      </trkpt>
      <trkpt lat="43.99707" lon="5.1605">
        <ele>193.84</ele>
        <time>2019-03-13T11:36:22Z</time>
      </trkpt>
      <trkpt lat="43.99705" lon="5.16052">
        <ele>195.28</ele>
        <time>2019-03-13T11:36:25Z</time>
      </trkpt>
      <trkpt lat="43.99699" lon="5.16058">
        <ele>196.25</ele>
        <time>2019-03-13T11:36:35Z</time>
      </trkpt>
      <trkpt lat="43.99689" lon="5.16062">
        <ele>198.65</ele>
        <time>2019-03-13T11:36:47Z</time>
      </trkpt>
      <trkpt lat="43.99684" lon="5.16064">
        <ele>198.17</ele>
        <time>2019-03-13T11:36:55Z</time>
      </trkpt>
      <trkpt lat="43.99675" lon="5.16071">
        <ele>201.53</ele>
        <time>2019-03-13T11:37:07Z</time>
      </trkpt>
      <trkpt lat="43.99669" lon="5.16079">
        <ele>202.49</ele>
        <time>2019-03-13T11:37:18Z</time>
      </trkpt>
      <trkpt lat="43.99664" lon="5.16082">
        <ele>204.9</ele>
        <time>2019-03-13T11:37:30Z</time>
      </trkpt>
      <trkpt lat="43.99662" lon="5.16084">
        <ele>205.38</ele>
        <time>2019-03-13T11:37:32Z</time>
      </trkpt>
      <trkpt lat="43.99659" lon="5.16087">
        <ele>207.3</ele>
        <time>2019-03-13T11:37:37Z</time>
      </trkpt>
      <trkpt lat="43.99654" lon="5.16092">
        <ele>208.26</ele>
        <time>2019-03-13T11:37:48Z</time>
      </trkpt>
      <trkpt lat="43.99645" lon="5.16101">
        <ele>209.7</ele>
        <time>2019-03-13T11:38:00Z</time>
      </trkpt>
      <trkpt lat="43.99639" lon="5.16107">
        <ele>210.19</ele>
        <time>2019-03-13T11:38:08Z</time>
      </trkpt>
      <trkpt lat="43.99632" lon="5.16111">
        <ele>211.15</ele>
        <time>2019-03-13T11:38:15Z</time>
      </trkpt>
      <trkpt lat="43.99624" lon="5.16121">
        <ele>214.03</ele>
        <time>2019-03-13T11:38:28Z</time>
      </trkpt>
      <trkpt lat="43.9962" lon="5.16126">
        <ele>213.55</ele>
        <time>2019-03-13T11:38:34Z</time>
      </trkpt>
      <trkpt lat="43.99613" lon="5.16135">
        <ele>217.4</ele>
        <time>2019-03-13T11:38:45Z</time>
      </trkpt>
      <trkpt lat="43.99611" lon="5.16138">
        <ele>215.47</ele>
        <time>2019-03-13T11:38:48Z</time>
      </trkpt>
      <trkpt lat="43.99604" lon="5.16142">
        <ele>217.4</ele>
        <time>2019-03-13T11:38:57Z</time>
      </trkpt>
      <trkpt lat="43.99602" lon="5.16141">
        <ele>217.88</ele>
        <time>2019-03-13T11:39:05Z</time>
      </trkpt>
      <trkpt lat="43.99601" lon="5.16144">
        <ele>218.36</ele>
        <time>2019-03-13T11:39:08Z</time>
      </trkpt>
      <trkpt lat="43.99599" lon="5.16147">
        <ele>218.84</ele>
        <time>2019-03-13T11:39:11Z</time>
      </trkpt>
      <trkpt lat="43.99595" lon="5.16154">
        <ele>220.28</ele>
        <time>2019-03-13T11:39:15Z</time>
      </trkpt>
      <trkpt lat="43.99593" lon="5.16158">
        <ele>220.28</ele>
        <time>2019-03-13T11:39:19Z</time>
      </trkpt>
      <trkpt lat="43.99588" lon="5.16165">
        <ele>221.24</ele>
        <time>2019-03-13T11:39:25Z</time>
      </trkpt>
      <trkpt lat="43.99583" lon="5.16169">
        <ele>221.24</ele>
        <time>2019-03-13T11:39:31Z</time>
      </trkpt>
      <trkpt lat="43.99579" lon="5.16174">
        <ele>223.64</ele>
        <time>2019-03-13T11:39:36Z</time>
      </trkpt>
      <trkpt lat="43.99572" lon="5.16183">
        <ele>224.12</ele>
        <time>2019-03-13T11:39:47Z</time>
      </trkpt>
      <trkpt lat="43.99566" lon="5.16189">
        <ele>225.57</ele>
        <time>2019-03-13T11:39:59Z</time>
      </trkpt>
      <trkpt lat="43.99562" lon="5.16196">
        <ele>227.97</ele>
        <time>2019-03-13T11:40:09Z</time>
      </trkpt>
      <trkpt lat="43.99561" lon="5.16197">
        <ele>227.49</ele>
        <time>2019-03-13T11:40:11Z</time>
      </trkpt>
      <trkpt lat="43.99559" lon="5.16203">
        <ele>229.89</ele>
        <time>2019-03-13T11:40:24Z</time>
      </trkpt>
      <trkpt lat="43.99556" lon="5.16206">
        <ele>230.85</ele>
        <time>2019-03-13T11:40:28Z</time>
      </trkpt>
      <trkpt lat="43.99552" lon="5.16214">
        <ele>231.81</ele>
        <time>2019-03-13T11:40:35Z</time>
      </trkpt>
      <trkpt lat="43.99545" lon="5.16228">
        <ele>233.26</ele>
        <time>2019-03-13T11:40:49Z</time>
      </trkpt>
      <trkpt lat="43.99537" lon="5.16238">
        <ele>236.62</ele>
        <time>2019-03-13T11:41:00Z</time>
      </trkpt>
      <trkpt lat="43.99534" lon="5.16243">
        <ele>236.14</ele>
        <time>2019-03-13T11:41:05Z</time>
      </trkpt>
      <trkpt lat="43.99531" lon="5.16249">
        <ele>237.1</ele>
        <time>2019-03-13T11:41:12Z</time>
      </trkpt>
      <trkpt lat="43.99525" lon="5.1626">
        <ele>239.99</ele>
        <time>2019-03-13T11:41:24Z</time>
      </trkpt>
      <trkpt lat="43.99521" lon="5.1627">
        <ele>240.95</ele>
        <time>2019-03-13T11:41:35Z</time>
      </trkpt>
      <trkpt lat="43.99521" lon="5.16277">
        <ele>242.39</ele>
        <time>2019-03-13T11:41:43Z</time>
      </trkpt>
      <trkpt lat="43.9952" lon="5.16279">
        <ele>242.87</ele>
        <time>2019-03-13T11:41:45Z</time>
      </trkpt>
      <trkpt lat="43.9952" lon="5.16285">
        <ele>243.83</ele>
        <time>2019-03-13T11:41:52Z</time>
      </trkpt>
      <trkpt lat="43.99519" lon="5.16287">
        <ele>244.79</ele>
        <time>2019-03-13T11:41:54Z</time>
      </trkpt>
      <trkpt lat="43.99518" lon="5.16299">
        <ele>246.72</ele>
        <time>2019-03-13T11:42:06Z</time>
      </trkpt>
      <trkpt lat="43.99516" lon="5.16313">
        <ele>247.2</ele>
        <time>2019-03-13T11:42:18Z</time>
      </trkpt>
      <trkpt lat="43.99516" lon="5.16325">
        <ele>250.08</ele>
        <time>2019-03-13T11:42:31Z</time>
      </trkpt>
      <trkpt lat="43.99513" lon="5.16341">
        <ele>251.52</ele>
        <time>2019-03-13T11:42:44Z</time>
      </trkpt>
      <trkpt lat="43.99513" lon="5.16346">
        <ele>251.04</ele>
        <time>2019-03-13T11:42:48Z</time>
      </trkpt>
      <trkpt lat="43.99509" lon="5.16363">
        <ele>252</ele>
        <time>2019-03-13T11:43:02Z</time>
      </trkpt>
      <trkpt lat="43.99512" lon="5.16372">
        <ele>254.41</ele>
        <time>2019-03-13T11:43:16Z</time>
      </trkpt>
      <trkpt lat="43.99514" lon="5.16373">
        <ele>254.41</ele>
        <time>2019-03-13T11:43:23Z</time>
      </trkpt>
      <trkpt lat="43.99507" lon="5.16373">
        <ele>252.96</ele>
        <time>2019-03-13T11:43:33Z</time>
      </trkpt>
      <trkpt lat="43.99504" lon="5.16379">
        <ele>253.44</ele>
        <time>2019-03-13T11:43:45Z</time>
      </trkpt>
      <trkpt lat="43.99503" lon="5.1638">
        <ele>258.73</ele>
        <time>2019-03-13T11:43:57Z</time>
      </trkpt>
      <trkpt lat="43.99503" lon="5.1638">
        <ele>254.41</ele>
        <time>2019-03-13T11:43:58Z</time>
      </trkpt>
      <trkpt lat="43.99503" lon="5.16381">
        <ele>253.44</ele>
        <time>2019-03-13T11:44:15Z</time>
      </trkpt>
      <trkpt lat="43.99503" lon="5.1638">
        <ele>252.96</ele>
        <time>2019-03-13T11:44:35Z</time>
      </trkpt>
      <trkpt lat="43.99503" lon="5.16379">
        <ele>253.44</ele>
        <time>2019-03-13T11:45:00Z</time>
      </trkpt>
      <trkpt lat="43.99504" lon="5.16378">
        <ele>253.93</ele>
        <time>2019-03-13T11:45:26Z</time>
      </trkpt>
      <trkpt lat="43.99505" lon="5.16376">
        <ele>252.96</ele>
        <time>2019-03-13T11:45:45Z</time>
      </trkpt>
      <trkpt lat="43.99505" lon="5.16377">
        <ele>252.96</ele>
        <time>2019-03-13T11:46:17Z</time>
      </trkpt>
      <trkpt lat="43.99502" lon="5.16379">
        <ele>253.44</ele>
        <time>2019-03-13T11:46:35Z</time>
      </trkpt>
      <trkpt lat="43.99499" lon="5.16385">
        <ele>253.44</ele>
        <time>2019-03-13T11:46:40Z</time>
      </trkpt>
      <trkpt lat="43.99496" lon="5.16392">
        <ele>253.44</ele>
        <time>2019-03-13T11:46:46Z</time>
      </trkpt>
      <trkpt lat="43.99493" lon="5.164">
        <ele>254.89</ele>
        <time>2019-03-13T11:46:53Z</time>
      </trkpt>
      <trkpt lat="43.99489" lon="5.1641">
        <ele>255.37</ele>
        <time>2019-03-13T11:47:01Z</time>
      </trkpt>
      <trkpt lat="43.99486" lon="5.16421">
        <ele>255.85</ele>
        <time>2019-03-13T11:47:11Z</time>
      </trkpt>
      <trkpt lat="43.99484" lon="5.16424">
        <ele>256.33</ele>
        <time>2019-03-13T11:47:14Z</time>
      </trkpt>
      <trkpt lat="43.99481" lon="5.1644">
        <ele>257.29</ele>
        <time>2019-03-13T11:47:25Z</time>
      </trkpt>
      <trkpt lat="43.99477" lon="5.16456">
        <ele>258.25</ele>
        <time>2019-03-13T11:47:37Z</time>
      </trkpt>
      <trkpt lat="43.99472" lon="5.16469">
        <ele>259.21</ele>
        <time>2019-03-13T11:47:47Z</time>
      </trkpt>
      <trkpt lat="43.99471" lon="5.16474">
        <ele>260.65</ele>
        <time>2019-03-13T11:47:51Z</time>
      </trkpt>
      <trkpt lat="43.99467" lon="5.1649">
        <ele>262.1</ele>
        <time>2019-03-13T11:48:04Z</time>
      </trkpt>
      <trkpt lat="43.99464" lon="5.16505">
        <ele>263.06</ele>
        <time>2019-03-13T11:48:17Z</time>
      </trkpt>
      <trkpt lat="43.99464" lon="5.16511">
        <ele>264.98</ele>
        <time>2019-03-13T11:48:22Z</time>
      </trkpt>
      <trkpt lat="43.99464" lon="5.16523">
        <ele>265.94</ele>
        <time>2019-03-13T11:48:31Z</time>
      </trkpt>
      <trkpt lat="43.99465" lon="5.16529">
        <ele>265.94</ele>
        <time>2019-03-13T11:48:35Z</time>
      </trkpt>
      <trkpt lat="43.99463" lon="5.16546">
        <ele>267.86</ele>
        <time>2019-03-13T11:48:47Z</time>
      </trkpt>
      <trkpt lat="43.99462" lon="5.16553">
        <ele>267.86</ele>
        <time>2019-03-13T11:48:53Z</time>
      </trkpt>
      <trkpt lat="43.9946" lon="5.16566">
        <ele>268.83</ele>
        <time>2019-03-13T11:49:03Z</time>
      </trkpt>
      <trkpt lat="43.99458" lon="5.16572">
        <ele>268.83</ele>
        <time>2019-03-13T11:49:08Z</time>
      </trkpt>
      <trkpt lat="43.99457" lon="5.16576">
        <ele>269.79</ele>
        <time>2019-03-13T11:49:11Z</time>
      </trkpt>
      <trkpt lat="43.99453" lon="5.16591">
        <ele>271.71</ele>
        <time>2019-03-13T11:49:23Z</time>
      </trkpt>
      <trkpt lat="43.99449" lon="5.16605">
        <ele>272.67</ele>
        <time>2019-03-13T11:49:36Z</time>
      </trkpt>
      <trkpt lat="43.99447" lon="5.16612">
        <ele>273.15</ele>
        <time>2019-03-13T11:49:42Z</time>
      </trkpt>
      <trkpt lat="43.99444" lon="5.16617">
        <ele>274.11</ele>
        <time>2019-03-13T11:49:46Z</time>
      </trkpt>
      <trkpt lat="43.99444" lon="5.16625">
        <ele>273.63</ele>
        <time>2019-03-13T11:49:52Z</time>
      </trkpt>
      <trkpt lat="43.99445" lon="5.1663">
        <ele>275.07</ele>
        <time>2019-03-13T11:49:56Z</time>
      </trkpt>
      <trkpt lat="43.99446" lon="5.16635">
        <ele>274.59</ele>
        <time>2019-03-13T11:50:00Z</time>
      </trkpt>
      <trkpt lat="43.99446" lon="5.16642">
        <ele>276.52</ele>
        <time>2019-03-13T11:50:05Z</time>
      </trkpt>
      <trkpt lat="43.99453" lon="5.16658">
        <ele>276.04</ele>
        <time>2019-03-13T11:50:18Z</time>
      </trkpt>
      <trkpt lat="43.99459" lon="5.16674">
        <ele>275.56</ele>
        <time>2019-03-13T11:50:31Z</time>
      </trkpt>
      <trkpt lat="43.99461" lon="5.16676">
        <ele>275.56</ele>
        <time>2019-03-13T11:50:33Z</time>
      </trkpt>
      <trkpt lat="43.99464" lon="5.16691">
        <ele>274.11</ele>
        <time>2019-03-13T11:50:44Z</time>
      </trkpt>
      <trkpt lat="43.99464" lon="5.16694">
        <ele>273.63</ele>
        <time>2019-03-13T11:50:46Z</time>
      </trkpt>
      <trkpt lat="43.99459" lon="5.16704">
        <ele>275.56</ele>
        <time>2019-03-13T11:50:58Z</time>
      </trkpt>
      <trkpt lat="43.99458" lon="5.16704">
        <ele>275.07</ele>
        <time>2019-03-13T11:51:18Z</time>
      </trkpt>
      <trkpt lat="43.99458" lon="5.16703">
        <ele>276.04</ele>
        <time>2019-03-13T11:51:42Z</time>
      </trkpt>
      <trkpt lat="43.99453" lon="5.16691">
        <ele>275.07</ele>
        <time>2019-03-13T11:51:55Z</time>
      </trkpt>
      <trkpt lat="43.99447" lon="5.16682">
        <ele>276.04</ele>
        <time>2019-03-13T11:52:08Z</time>
      </trkpt>
      <trkpt lat="43.99445" lon="5.16677">
        <ele>276.04</ele>
        <time>2019-03-13T11:52:12Z</time>
      </trkpt>
      <trkpt lat="43.99437" lon="5.16671">
        <ele>275.56</ele>
        <time>2019-03-13T11:52:24Z</time>
      </trkpt>
      <trkpt lat="43.99436" lon="5.1667">
        <ele>275.07</ele>
        <time>2019-03-13T11:52:36Z</time>
      </trkpt>
      <trkpt lat="43.99435" lon="5.1667">
        <ele>275.07</ele>
        <time>2019-03-13T11:52:53Z</time>
      </trkpt>
      <trkpt lat="43.99431" lon="5.16669">
        <ele>275.56</ele>
        <time>2019-03-13T11:53:05Z</time>
      </trkpt>
      <trkpt lat="43.99424" lon="5.16661">
        <ele>275.07</ele>
        <time>2019-03-13T11:53:16Z</time>
      </trkpt>
      <trkpt lat="43.99415" lon="5.1666">
        <ele>275.56</ele>
        <time>2019-03-13T11:53:28Z</time>
      </trkpt>
      <trkpt lat="43.99415" lon="5.16665">
        <ele>275.07</ele>
        <time>2019-03-13T11:53:39Z</time>
      </trkpt>
      <trkpt lat="43.99415" lon="5.16664">
        <ele>274.59</ele>
        <time>2019-03-13T11:53:43Z</time>
      </trkpt>
      <trkpt lat="43.99409" lon="5.1666">
        <ele>275.56</ele>
        <time>2019-03-13T11:53:52Z</time>
      </trkpt>
      <trkpt lat="43.99399" lon="5.1666">
        <ele>276.04</ele>
        <time>2019-03-13T11:54:06Z</time>
      </trkpt>
      <trkpt lat="43.99398" lon="5.16661">
        <ele>276.52</ele>
        <time>2019-03-13T11:54:08Z</time>
      </trkpt>
      <trkpt lat="43.99393" lon="5.1666">
        <ele>276.52</ele>
        <time>2019-03-13T11:54:16Z</time>
      </trkpt>
      <trkpt lat="43.99387" lon="5.1666">
        <ele>277</ele>
        <time>2019-03-13T11:54:28Z</time>
      </trkpt>
      <trkpt lat="43.99389" lon="5.16659">
        <ele>277.96</ele>
        <time>2019-03-13T11:55:00Z</time>
      </trkpt>
      <trkpt lat="43.99389" lon="5.1666">
        <ele>277.48</ele>
        <time>2019-03-13T11:55:32Z</time>
      </trkpt>
      <trkpt lat="43.99391" lon="5.16663">
        <ele>276.52</ele>
        <time>2019-03-13T11:55:57Z</time>
      </trkpt>
      <trkpt lat="43.99404" lon="5.16662">
        <ele>276.52</ele>
        <time>2019-03-13T11:56:08Z</time>
      </trkpt>
      <trkpt lat="43.99411" lon="5.16664">
        <ele>275.56</ele>
        <time>2019-03-13T11:56:15Z</time>
      </trkpt>
      <trkpt lat="43.99413" lon="5.16664">
        <ele>275.56</ele>
        <time>2019-03-13T11:56:17Z</time>
      </trkpt>
      <trkpt lat="43.99415" lon="5.16664">
        <ele>275.07</ele>
        <time>2019-03-13T11:56:32Z</time>
      </trkpt>
      <trkpt lat="43.99415" lon="5.16665">
        <ele>274.11</ele>
        <time>2019-03-13T11:56:51Z</time>
      </trkpt>
      <trkpt lat="43.99415" lon="5.16665">
        <ele>274.59</ele>
        <time>2019-03-13T11:57:03Z</time>
      </trkpt>
      <trkpt lat="43.99415" lon="5.16665">
        <ele>277.96</ele>
        <time>2019-03-13T11:57:04Z</time>
      </trkpt>
      <trkpt lat="43.99415" lon="5.16665">
        <ele>275.56</ele>
        <time>2019-03-13T11:57:05Z</time>
      </trkpt>
      <trkpt lat="43.99415" lon="5.16665">
        <ele>274.11</ele>
        <time>2019-03-13T11:57:19Z</time>
      </trkpt>
      <trkpt lat="43.99415" lon="5.16665">
        <ele>270.75</ele>
        <time>2019-03-13T11:57:20Z</time>
      </trkpt>
      <trkpt lat="43.99415" lon="5.16665">
        <ele>275.07</ele>
        <time>2019-03-13T11:57:21Z</time>
      </trkpt>
      <trkpt lat="43.99415" lon="5.16665">
        <ele>275.56</ele>
        <time>2019-03-13T11:57:26Z</time>
      </trkpt>
      <trkpt lat="43.99415" lon="5.16665">
        <ele>275.07</ele>
        <time>2019-03-13T11:57:44Z</time>
      </trkpt>
      <trkpt lat="43.99415" lon="5.16665">
        <ele>274.59</ele>
        <time>2019-03-13T11:58:03Z</time>
      </trkpt>
      <trkpt lat="43.99415" lon="5.16664">
        <ele>273.63</ele>
        <time>2019-03-13T11:58:27Z</time>
      </trkpt>
      <trkpt lat="43.99417" lon="5.16665">
        <ele>274.11</ele>
        <time>2019-03-13T11:58:57Z</time>
      </trkpt>
      <trkpt lat="43.99416" lon="5.16664">
        <ele>274.59</ele>
        <time>2019-03-13T11:59:22Z</time>
      </trkpt>
      <trkpt lat="43.99416" lon="5.16664">
        <ele>274.59</ele>
        <time>2019-03-13T11:59:54Z</time>
      </trkpt>
      <trkpt lat="43.99414" lon="5.16664">
        <ele>274.11</ele>
        <time>2019-03-13T12:00:27Z</time>
      </trkpt>
      <trkpt lat="43.99415" lon="5.16664">
        <ele>273.63</ele>
        <time>2019-03-13T12:00:46Z</time>
      </trkpt>
      <trkpt lat="43.99415" lon="5.16665">
        <ele>274.11</ele>
        <time>2019-03-13T12:01:22Z</time>
      </trkpt>
      <trkpt lat="43.99415" lon="5.16664">
        <ele>274.59</ele>
        <time>2019-03-13T12:01:55Z</time>
      </trkpt>
      <trkpt lat="43.99414" lon="5.16664">
        <ele>273.63</ele>
        <time>2019-03-13T12:02:27Z</time>
      </trkpt>
      <trkpt lat="43.99414" lon="5.16665">
        <ele>274.59</ele>
        <time>2019-03-13T12:02:57Z</time>
      </trkpt>
      <trkpt lat="43.99414" lon="5.16664">
        <ele>273.15</ele>
        <time>2019-03-13T12:03:24Z</time>
      </trkpt>
      <trkpt lat="43.99414" lon="5.16663">
        <ele>274.59</ele>
        <time>2019-03-13T12:03:28Z</time>
      </trkpt>
      <trkpt lat="43.99414" lon="5.16664">
        <ele>273.63</ele>
        <time>2019-03-13T12:03:57Z</time>
      </trkpt>
      <trkpt lat="43.99413" lon="5.16664">
        <ele>274.11</ele>
        <time>2019-03-13T12:04:28Z</time>
      </trkpt>
      <trkpt lat="43.99414" lon="5.16665">
        <ele>274.11</ele>
        <time>2019-03-13T12:04:59Z</time>
      </trkpt>
      <trkpt lat="43.99414" lon="5.16665">
        <ele>274.59</ele>
        <time>2019-03-13T12:05:31Z</time>
      </trkpt>
      <trkpt lat="43.99415" lon="5.16665">
        <ele>275.07</ele>
        <time>2019-03-13T12:06:03Z</time>
      </trkpt>
      <trkpt lat="43.99414" lon="5.16665">
        <ele>274.59</ele>
        <time>2019-03-13T12:06:33Z</time>
      </trkpt>
      <trkpt lat="43.99415" lon="5.16664">
        <ele>274.59</ele>
        <time>2019-03-13T12:07:04Z</time>
      </trkpt>
      <trkpt lat="43.99414" lon="5.16664">
        <ele>274.11</ele>
        <time>2019-03-13T12:07:37Z</time>
      </trkpt>
      <trkpt lat="43.99414" lon="5.16665">
        <ele>274.11</ele>
        <time>2019-03-13T12:08:12Z</time>
      </trkpt>
      <trkpt lat="43.99413" lon="5.16664">
        <ele>273.63</ele>
        <time>2019-03-13T12:08:46Z</time>
      </trkpt>
      <trkpt lat="43.99414" lon="5.16665">
        <ele>273.63</ele>
        <time>2019-03-13T12:09:21Z</time>
      </trkpt>
      <trkpt lat="43.99414" lon="5.16665">
        <ele>274.11</ele>
        <time>2019-03-13T12:09:52Z</time>
      </trkpt>
      <trkpt lat="43.99415" lon="5.16664">
        <ele>274.11</ele>
        <time>2019-03-13T12:10:23Z</time>
      </trkpt>
      <trkpt lat="43.99415" lon="5.16665">
        <ele>275.07</ele>
        <time>2019-03-13T12:10:51Z</time>
      </trkpt>
      <trkpt lat="43.99415" lon="5.16665">
        <ele>273.63</ele>
        <time>2019-03-13T12:11:23Z</time>
      </trkpt>
      <trkpt lat="43.99414" lon="5.16665">
        <ele>275.07</ele>
        <time>2019-03-13T12:11:58Z</time>
      </trkpt>
      <trkpt lat="43.99415" lon="5.16666">
        <ele>275.07</ele>
        <time>2019-03-13T12:12:30Z</time>
      </trkpt>
      <trkpt lat="43.99414" lon="5.16665">
        <ele>275.07</ele>
        <time>2019-03-13T12:13:00Z</time>
      </trkpt>
      <trkpt lat="43.99415" lon="5.16665">
        <ele>275.07</ele>
        <time>2019-03-13T12:13:35Z</time>
      </trkpt>
      <trkpt lat="43.99414" lon="5.16665">
        <ele>276.04</ele>
        <time>2019-03-13T12:14:09Z</time>
      </trkpt>
      <trkpt lat="43.99414" lon="5.16665">
        <ele>276.52</ele>
        <time>2019-03-13T12:14:43Z</time>
      </trkpt>
      <trkpt lat="43.99413" lon="5.16663">
        <ele>276.52</ele>
        <time>2019-03-13T12:15:16Z</time>
      </trkpt>
      <trkpt lat="43.99413" lon="5.16663">
        <ele>276.04</ele>
        <time>2019-03-13T12:15:49Z</time>
      </trkpt>
      <trkpt lat="43.99414" lon="5.16663">
        <ele>276.52</ele>
        <time>2019-03-13T12:16:19Z</time>
      </trkpt>
      <trkpt lat="43.99414" lon="5.16663">
        <ele>276.52</ele>
        <time>2019-03-13T12:16:39Z</time>
      </trkpt>
      <trkpt lat="43.99415" lon="5.16663">
        <ele>275.56</ele>
        <time>2019-03-13T12:17:12Z</time>
      </trkpt>
      <trkpt lat="43.99415" lon="5.16663">
        <ele>275.56</ele>
        <time>2019-03-13T12:17:37Z</time>
      </trkpt>
      <trkpt lat="43.99415" lon="5.16663">
        <ele>274.59</ele>
        <time>2019-03-13T12:18:00Z</time>
      </trkpt>
      <trkpt lat="43.99415" lon="5.16664">
        <ele>277</ele>
        <time>2019-03-13T12:18:09Z</time>
      </trkpt>
      <trkpt lat="43.99415" lon="5.16663">
        <ele>276.04</ele>
        <time>2019-03-13T12:18:23Z</time>
      </trkpt>
      <trkpt lat="43.99415" lon="5.16664">
        <ele>276.04</ele>
        <time>2019-03-13T12:18:44Z</time>
      </trkpt>
      <trkpt lat="43.99415" lon="5.16665">
        <ele>276.52</ele>
        <time>2019-03-13T12:19:12Z</time>
      </trkpt>
      <trkpt lat="43.99415" lon="5.16665">
        <ele>277.96</ele>
        <time>2019-03-13T12:19:36Z</time>
      </trkpt>
      <trkpt lat="43.99415" lon="5.16665">
        <ele>277</ele>
        <time>2019-03-13T12:20:15Z</time>
      </trkpt>
      <trkpt lat="43.99415" lon="5.16665">
        <ele>275.56</ele>
        <time>2019-03-13T12:20:50Z</time>
      </trkpt>
      <trkpt lat="43.99415" lon="5.16665">
        <ele>276.52</ele>
        <time>2019-03-13T12:21:02Z</time>
      </trkpt>
      <trkpt lat="43.99415" lon="5.16666">
        <ele>277</ele>
        <time>2019-03-13T12:21:27Z</time>
      </trkpt>
      <trkpt lat="43.99415" lon="5.16665">
        <ele>273.15</ele>
        <time>2019-03-13T12:21:31Z</time>
      </trkpt>
      <trkpt lat="43.99415" lon="5.16664">
        <ele>276.04</ele>
        <time>2019-03-13T12:21:37Z</time>
      </trkpt>
      <trkpt lat="43.99415" lon="5.16664">
        <ele>277</ele>
        <time>2019-03-13T12:21:39Z</time>
      </trkpt>
      <trkpt lat="43.99414" lon="5.16664">
        <ele>277</ele>
        <time>2019-03-13T12:21:55Z</time>
      </trkpt>
      <trkpt lat="43.99414" lon="5.16663">
        <ele>277.48</ele>
        <time>2019-03-13T12:22:35Z</time>
      </trkpt>
      <trkpt lat="43.99414" lon="5.16663">
        <ele>277.48</ele>
        <time>2019-03-13T12:23:12Z</time>
      </trkpt>
      <trkpt lat="43.99414" lon="5.16663">
        <ele>277.48</ele>
        <time>2019-03-13T12:23:49Z</time>
      </trkpt>
      <trkpt lat="43.99415" lon="5.16662">
        <ele>277.96</ele>
        <time>2019-03-13T12:24:25Z</time>
      </trkpt>
      <trkpt lat="43.99415" lon="5.16664">
        <ele>277.48</ele>
        <time>2019-03-13T12:25:04Z</time>
      </trkpt>
      <trkpt lat="43.99415" lon="5.16665">
        <ele>277.96</ele>
        <time>2019-03-13T12:25:33Z</time>
      </trkpt>
      <trkpt lat="43.99416" lon="5.16664">
        <ele>277.96</ele>
        <time>2019-03-13T12:26:01Z</time>
      </trkpt>
      <trkpt lat="43.99416" lon="5.16665">
        <ele>278.44</ele>
        <time>2019-03-13T12:26:17Z</time>
      </trkpt>
      <trkpt lat="43.99416" lon="5.16664">
        <ele>277.96</ele>
        <time>2019-03-13T12:26:42Z</time>
      </trkpt>
      <trkpt lat="43.99416" lon="5.16663">
        <ele>277</ele>
        <time>2019-03-13T12:27:02Z</time>
      </trkpt>
      <trkpt lat="43.99416" lon="5.16663">
        <ele>277</ele>
        <time>2019-03-13T12:27:23Z</time>
      </trkpt>
      <trkpt lat="43.99416" lon="5.16663">
        <ele>273.63</ele>
        <time>2019-03-13T12:27:32Z</time>
      </trkpt>
      <trkpt lat="43.99416" lon="5.16663">
        <ele>278.44</ele>
        <time>2019-03-13T12:27:33Z</time>
      </trkpt>
      <trkpt lat="43.99416" lon="5.16664">
        <ele>277.96</ele>
        <time>2019-03-13T12:27:59Z</time>
      </trkpt>
      <trkpt lat="43.99416" lon="5.16664">
        <ele>275.56</ele>
        <time>2019-03-13T12:28:27Z</time>
      </trkpt>
      <trkpt lat="43.99416" lon="5.16664">
        <ele>277.96</ele>
        <time>2019-03-13T12:28:33Z</time>
      </trkpt>
      <trkpt lat="43.99415" lon="5.16664">
        <ele>277.48</ele>
        <time>2019-03-13T12:29:10Z</time>
      </trkpt>
      <trkpt lat="43.99415" lon="5.16664">
        <ele>276.52</ele>
        <time>2019-03-13T12:29:46Z</time>
      </trkpt>
      <trkpt lat="43.99415" lon="5.16664">
        <ele>277.48</ele>
        <time>2019-03-13T12:30:16Z</time>
      </trkpt>
      <trkpt lat="43.99415" lon="5.16664">
        <ele>276.04</ele>
        <time>2019-03-13T12:30:19Z</time>
      </trkpt>
      <trkpt lat="43.99415" lon="5.16664">
        <ele>277.96</ele>
        <time>2019-03-13T12:30:22Z</time>
      </trkpt>
      <trkpt lat="43.99415" lon="5.16664">
        <ele>277</ele>
        <time>2019-03-13T12:31:00Z</time>
      </trkpt>
      <trkpt lat="43.99415" lon="5.16664">
        <ele>277.96</ele>
        <time>2019-03-13T12:31:38Z</time>
      </trkpt>
      <trkpt lat="43.99415" lon="5.16664">
        <ele>278.92</ele>
        <time>2019-03-13T12:32:14Z</time>
      </trkpt>
      <trkpt lat="43.99415" lon="5.16664">
        <ele>278.44</ele>
        <time>2019-03-13T12:32:53Z</time>
      </trkpt>
      <trkpt lat="43.99414" lon="5.16664">
        <ele>277.48</ele>
        <time>2019-03-13T12:33:28Z</time>
      </trkpt>
      <trkpt lat="43.99414" lon="5.16664">
        <ele>276.52</ele>
        <time>2019-03-13T12:34:01Z</time>
      </trkpt>
      <trkpt lat="43.99415" lon="5.16664">
        <ele>277.48</ele>
        <time>2019-03-13T12:34:32Z</time>
      </trkpt>
      <trkpt lat="43.99415" lon="5.16664">
        <ele>277.48</ele>
        <time>2019-03-13T12:35:05Z</time>
      </trkpt>
      <trkpt lat="43.99415" lon="5.16664">
        <ele>278.92</ele>
        <time>2019-03-13T12:35:39Z</time>
      </trkpt>
      <trkpt lat="43.99415" lon="5.16664">
        <ele>277</ele>
        <time>2019-03-13T12:36:08Z</time>
      </trkpt>
      <trkpt lat="43.99415" lon="5.16664">
        <ele>277</ele>
        <time>2019-03-13T12:36:43Z</time>
      </trkpt>
      <trkpt lat="43.99415" lon="5.16664">
        <ele>277</ele>
        <time>2019-03-13T12:37:15Z</time>
      </trkpt>
      <trkpt lat="43.99414" lon="5.16664">
        <ele>277.48</ele>
        <time>2019-03-13T12:37:33Z</time>
      </trkpt>
      <trkpt lat="43.99414" lon="5.16665">
        <ele>277.48</ele>
        <time>2019-03-13T12:38:03Z</time>
      </trkpt>
      <trkpt lat="43.99414" lon="5.16665">
        <ele>277</ele>
        <time>2019-03-13T12:38:28Z</time>
      </trkpt>
      <trkpt lat="43.99415" lon="5.16665">
        <ele>277.48</ele>
        <time>2019-03-13T12:38:54Z</time>
      </trkpt>
      <trkpt lat="43.99414" lon="5.16665">
        <ele>277.48</ele>
        <time>2019-03-13T12:39:19Z</time>
      </trkpt>
      <trkpt lat="43.99414" lon="5.16665">
        <ele>277.48</ele>
        <time>2019-03-13T12:39:51Z</time>
      </trkpt>
      <trkpt lat="43.99414" lon="5.16665">
        <ele>277.48</ele>
        <time>2019-03-13T12:40:19Z</time>
      </trkpt>
      <trkpt lat="43.99414" lon="5.16665">
        <ele>277.48</ele>
        <time>2019-03-13T12:40:50Z</time>
      </trkpt>
      <trkpt lat="43.99415" lon="5.16665">
        <ele>277.48</ele>
        <time>2019-03-13T12:41:21Z</time>
      </trkpt>
      <trkpt lat="43.99416" lon="5.16665">
        <ele>277.48</ele>
        <time>2019-03-13T12:41:51Z</time>
      </trkpt>
      <trkpt lat="43.99416" lon="5.16666">
        <ele>277.48</ele>
        <time>2019-03-13T12:42:22Z</time>
      </trkpt>
      <trkpt lat="43.99416" lon="5.16666">
        <ele>277</ele>
        <time>2019-03-13T12:42:52Z</time>
      </trkpt>
      <trkpt lat="43.99416" lon="5.16665">
        <ele>277.48</ele>
        <time>2019-03-13T12:43:18Z</time>
      </trkpt>
      <trkpt lat="43.99415" lon="5.16666">
        <ele>277.96</ele>
        <time>2019-03-13T12:43:47Z</time>
      </trkpt>
      <trkpt lat="43.99415" lon="5.16665">
        <ele>277.48</ele>
        <time>2019-03-13T12:44:03Z</time>
      </trkpt>
      <trkpt lat="43.99415" lon="5.16665">
        <ele>277.48</ele>
        <time>2019-03-13T12:44:27Z</time>
      </trkpt>
      <trkpt lat="43.99415" lon="5.16666">
        <ele>277.96</ele>
        <time>2019-03-13T12:44:46Z</time>
      </trkpt>
      <trkpt lat="43.99415" lon="5.16665">
        <ele>277.48</ele>
        <time>2019-03-13T12:45:07Z</time>
      </trkpt>
      <trkpt lat="43.99415" lon="5.16665">
        <ele>277</ele>
        <time>2019-03-13T12:45:28Z</time>
      </trkpt>
      <trkpt lat="43.99414" lon="5.16665">
        <ele>277</ele>
        <time>2019-03-13T12:45:52Z</time>
      </trkpt>
      <trkpt lat="43.99415" lon="5.16664">
        <ele>277.96</ele>
        <time>2019-03-13T12:46:02Z</time>
      </trkpt>
      <trkpt lat="43.99415" lon="5.16664">
        <ele>276.52</ele>
        <time>2019-03-13T12:46:21Z</time>
      </trkpt>
      <trkpt lat="43.99415" lon="5.16665">
        <ele>278.44</ele>
        <time>2019-03-13T12:46:39Z</time>
      </trkpt>
      <trkpt lat="43.99415" lon="5.16665">
        <ele>277.96</ele>
        <time>2019-03-13T12:46:56Z</time>
      </trkpt>
      <trkpt lat="43.99415" lon="5.16665">
        <ele>278.44</ele>
        <time>2019-03-13T12:47:15Z</time>
      </trkpt>
      <trkpt lat="43.99415" lon="5.16666">
        <ele>277.48</ele>
        <time>2019-03-13T12:47:40Z</time>
      </trkpt>
      <trkpt lat="43.99415" lon="5.16666">
        <ele>278.44</ele>
        <time>2019-03-13T12:48:01Z</time>
      </trkpt>
      <trkpt lat="43.99415" lon="5.16666">
        <ele>277.96</ele>
        <time>2019-03-13T12:48:20Z</time>
      </trkpt>
      <trkpt lat="43.99415" lon="5.16665">
        <ele>277.96</ele>
        <time>2019-03-13T12:48:39Z</time>
      </trkpt>
      <trkpt lat="43.99423" lon="5.16666">
        <ele>277.96</ele>
        <time>2019-03-13T12:49:07Z</time>
      </trkpt>
      <trkpt lat="43.9943" lon="5.16667">
        <ele>277.96</ele>
        <time>2019-03-13T12:49:23Z</time>
      </trkpt>
      <trkpt lat="43.99432" lon="5.16668">
        <ele>276.52</ele>
        <time>2019-03-13T12:49:38Z</time>
      </trkpt>
      <trkpt lat="43.99433" lon="5.16669">
        <ele>278.92</ele>
        <time>2019-03-13T12:49:40Z</time>
      </trkpt>
      <trkpt lat="43.99442" lon="5.16672">
        <ele>279.88</ele>
        <time>2019-03-13T12:49:47Z</time>
      </trkpt>
      <trkpt lat="43.99449" lon="5.16682">
        <ele>279.4</ele>
        <time>2019-03-13T12:50:00Z</time>
      </trkpt>
      <trkpt lat="43.99454" lon="5.1669">
        <ele>275.56</ele>
        <time>2019-03-13T12:50:09Z</time>
      </trkpt>
      <trkpt lat="43.99457" lon="5.16699">
        <ele>279.4</ele>
        <time>2019-03-13T12:50:15Z</time>
      </trkpt>
      <trkpt lat="43.99458" lon="5.16705">
        <ele>275.56</ele>
        <time>2019-03-13T12:50:21Z</time>
      </trkpt>
      <trkpt lat="43.99458" lon="5.16705">
        <ele>278.92</ele>
        <time>2019-03-13T12:50:22Z</time>
      </trkpt>
      <trkpt lat="43.99456" lon="5.16707">
        <ele>280.36</ele>
        <time>2019-03-13T12:50:26Z</time>
      </trkpt>
      <trkpt lat="43.99455" lon="5.16707">
        <ele>277.96</ele>
        <time>2019-03-13T12:50:27Z</time>
      </trkpt>
      <trkpt lat="43.9944" lon="5.16711">
        <ele>280.84</ele>
        <time>2019-03-13T12:50:39Z</time>
      </trkpt>
      <trkpt lat="43.99431" lon="5.16711">
        <ele>279.4</ele>
        <time>2019-03-13T12:50:51Z</time>
      </trkpt>
      <trkpt lat="43.99426" lon="5.1671">
        <ele>282.77</ele>
        <time>2019-03-13T12:50:55Z</time>
      </trkpt>
      <trkpt lat="43.99424" lon="5.1671">
        <ele>281.32</ele>
        <time>2019-03-13T12:50:58Z</time>
      </trkpt>
      <trkpt lat="43.99409" lon="5.16712">
        <ele>283.73</ele>
        <time>2019-03-13T12:51:14Z</time>
      </trkpt>
      <trkpt lat="43.99408" lon="5.16713">
        <ele>283.73</ele>
        <time>2019-03-13T12:51:28Z</time>
      </trkpt>
      <trkpt lat="43.994" lon="5.16709">
        <ele>283.25</ele>
        <time>2019-03-13T12:51:41Z</time>
      </trkpt>
      <trkpt lat="43.99394" lon="5.16706">
        <ele>286.13</ele>
        <time>2019-03-13T12:51:49Z</time>
      </trkpt>
      <trkpt lat="43.99391" lon="5.16705">
        <ele>284.69</ele>
        <time>2019-03-13T12:51:53Z</time>
      </trkpt>
      <trkpt lat="43.99388" lon="5.16704">
        <ele>285.17</ele>
        <time>2019-03-13T12:51:56Z</time>
      </trkpt>
      <trkpt lat="43.99375" lon="5.16704">
        <ele>287.57</ele>
        <time>2019-03-13T12:52:08Z</time>
      </trkpt>
      <trkpt lat="43.99374" lon="5.16704">
        <ele>287.09</ele>
        <time>2019-03-13T12:52:09Z</time>
      </trkpt>
      <trkpt lat="43.99371" lon="5.16704">
        <ele>285.17</ele>
        <time>2019-03-13T12:52:12Z</time>
      </trkpt>
      <trkpt lat="43.9936" lon="5.16706">
        <ele>288.53</ele>
        <time>2019-03-13T12:52:21Z</time>
      </trkpt>
      <trkpt lat="43.99359" lon="5.16707">
        <ele>285.17</ele>
        <time>2019-03-13T12:52:22Z</time>
      </trkpt>
      <trkpt lat="43.99359" lon="5.16707">
        <ele>286.13</ele>
        <time>2019-03-13T12:52:23Z</time>
      </trkpt>
      <trkpt lat="43.99352" lon="5.16707">
        <ele>289.01</ele>
        <time>2019-03-13T12:52:29Z</time>
      </trkpt>
      <trkpt lat="43.99351" lon="5.16707">
        <ele>285.65</ele>
        <time>2019-03-13T12:52:30Z</time>
      </trkpt>
      <trkpt lat="43.99348" lon="5.16707">
        <ele>289.01</ele>
        <time>2019-03-13T12:52:32Z</time>
      </trkpt>
      <trkpt lat="43.99347" lon="5.16708">
        <ele>286.13</ele>
        <time>2019-03-13T12:52:33Z</time>
      </trkpt>
      <trkpt lat="43.99343" lon="5.16708">
        <ele>288.05</ele>
        <time>2019-03-13T12:52:36Z</time>
      </trkpt>
      <trkpt lat="43.99333" lon="5.16712">
        <ele>286.61</ele>
        <time>2019-03-13T12:52:47Z</time>
      </trkpt>
      <trkpt lat="43.9932" lon="5.16719">
        <ele>288.05</ele>
        <time>2019-03-13T12:52:58Z</time>
      </trkpt>
      <trkpt lat="43.99317" lon="5.1672">
        <ele>285.17</ele>
        <time>2019-03-13T12:53:00Z</time>
      </trkpt>
      <trkpt lat="43.9931" lon="5.16721">
        <ele>288.53</ele>
        <time>2019-03-13T12:53:05Z</time>
      </trkpt>
      <trkpt lat="43.99307" lon="5.16722">
        <ele>286.13</ele>
        <time>2019-03-13T12:53:07Z</time>
      </trkpt>
      <trkpt lat="43.993" lon="5.16725">
        <ele>289.49</ele>
        <time>2019-03-13T12:53:14Z</time>
      </trkpt>
      <trkpt lat="43.99294" lon="5.16728">
        <ele>285.65</ele>
        <time>2019-03-13T12:53:19Z</time>
      </trkpt>
      <trkpt lat="43.99291" lon="5.16729">
        <ele>288.53</ele>
        <time>2019-03-13T12:53:21Z</time>
      </trkpt>
      <trkpt lat="43.99286" lon="5.16729">
        <ele>289.01</ele>
        <time>2019-03-13T12:53:26Z</time>
      </trkpt>
      <trkpt lat="43.99285" lon="5.1673">
        <ele>287.09</ele>
        <time>2019-03-13T12:53:27Z</time>
      </trkpt>
      <trkpt lat="43.99271" lon="5.16734">
        <ele>288.05</ele>
        <time>2019-03-13T12:53:39Z</time>
      </trkpt>
      <trkpt lat="43.99265" lon="5.16733">
        <ele>289.97</ele>
        <time>2019-03-13T12:53:43Z</time>
      </trkpt>
      <trkpt lat="43.99264" lon="5.16733">
        <ele>286.61</ele>
        <time>2019-03-13T12:53:44Z</time>
      </trkpt>
      <trkpt lat="43.99262" lon="5.16733">
        <ele>289.49</ele>
        <time>2019-03-13T12:53:46Z</time>
      </trkpt>
      <trkpt lat="43.99258" lon="5.16735">
        <ele>287.09</ele>
        <time>2019-03-13T12:53:49Z</time>
      </trkpt>
      <trkpt lat="43.99256" lon="5.16735">
        <ele>289.01</ele>
        <time>2019-03-13T12:53:51Z</time>
      </trkpt>
      <trkpt lat="43.99246" lon="5.16737">
        <ele>289.97</ele>
        <time>2019-03-13T12:54:00Z</time>
      </trkpt>
      <trkpt lat="43.9924" lon="5.16736">
        <ele>292.38</ele>
        <time>2019-03-13T12:54:05Z</time>
      </trkpt>
      <trkpt lat="43.99232" lon="5.16737">
        <ele>292.38</ele>
        <time>2019-03-13T12:54:13Z</time>
      </trkpt>
      <trkpt lat="43.9923" lon="5.16737">
        <ele>289.97</ele>
        <time>2019-03-13T12:54:15Z</time>
      </trkpt>
      <trkpt lat="43.99229" lon="5.16736">
        <ele>293.34</ele>
        <time>2019-03-13T12:54:17Z</time>
      </trkpt>
      <trkpt lat="43.99228" lon="5.16736">
        <ele>292.86</ele>
        <time>2019-03-13T12:54:18Z</time>
      </trkpt>
      <trkpt lat="43.99224" lon="5.16735">
        <ele>289.49</ele>
        <time>2019-03-13T12:54:21Z</time>
      </trkpt>
      <trkpt lat="43.9922" lon="5.16734">
        <ele>291.9</ele>
        <time>2019-03-13T12:54:24Z</time>
      </trkpt>
      <trkpt lat="43.99209" lon="5.16732">
        <ele>294.3</ele>
        <time>2019-03-13T12:54:35Z</time>
      </trkpt>
      <trkpt lat="43.99208" lon="5.16732">
        <ele>291.9</ele>
        <time>2019-03-13T12:54:37Z</time>
      </trkpt>
      <trkpt lat="43.99198" lon="5.16729">
        <ele>294.78</ele>
        <time>2019-03-13T12:54:46Z</time>
      </trkpt>
      <trkpt lat="43.99193" lon="5.16728">
        <ele>294.3</ele>
        <time>2019-03-13T12:54:51Z</time>
      </trkpt>
      <trkpt lat="43.99191" lon="5.16728">
        <ele>295.74</ele>
        <time>2019-03-13T12:54:54Z</time>
      </trkpt>
      <trkpt lat="43.99185" lon="5.16726">
        <ele>295.26</ele>
        <time>2019-03-13T12:55:00Z</time>
      </trkpt>
      <trkpt lat="43.99178" lon="5.16722">
        <ele>296.22</ele>
        <time>2019-03-13T12:55:09Z</time>
      </trkpt>
      <trkpt lat="43.99169" lon="5.16722">
        <ele>297.18</ele>
        <time>2019-03-13T12:55:18Z</time>
      </trkpt>
      <trkpt lat="43.99163" lon="5.16723">
        <ele>299.59</ele>
        <time>2019-03-13T12:55:25Z</time>
      </trkpt>
      <trkpt lat="43.99152" lon="5.16727">
        <ele>301.51</ele>
        <time>2019-03-13T12:55:36Z</time>
      </trkpt>
      <trkpt lat="43.99149" lon="5.16727">
        <ele>301.51</ele>
        <time>2019-03-13T12:55:38Z</time>
      </trkpt>
      <trkpt lat="43.99147" lon="5.16728">
        <ele>299.59</ele>
        <time>2019-03-13T12:55:41Z</time>
      </trkpt>
      <trkpt lat="43.99145" lon="5.16729">
        <ele>302.95</ele>
        <time>2019-03-13T12:55:43Z</time>
      </trkpt>
      <trkpt lat="43.99138" lon="5.16731">
        <ele>299.59</ele>
        <time>2019-03-13T12:55:49Z</time>
      </trkpt>
      <trkpt lat="43.99137" lon="5.16731">
        <ele>302.95</ele>
        <time>2019-03-13T12:55:50Z</time>
      </trkpt>
      <trkpt lat="43.99134" lon="5.16732">
        <ele>302.95</ele>
        <time>2019-03-13T12:55:53Z</time>
      </trkpt>
      <trkpt lat="43.99132" lon="5.16733">
        <ele>301.99</ele>
        <time>2019-03-13T12:55:55Z</time>
      </trkpt>
      <trkpt lat="43.99118" lon="5.1674">
        <ele>303.91</ele>
        <time>2019-03-13T12:56:08Z</time>
      </trkpt>
      <trkpt lat="43.99104" lon="5.1675">
        <ele>303.91</ele>
        <time>2019-03-13T12:56:21Z</time>
      </trkpt>
      <trkpt lat="43.99103" lon="5.16751">
        <ele>303.91</ele>
        <time>2019-03-13T12:56:22Z</time>
      </trkpt>
      <trkpt lat="43.99097" lon="5.16755">
        <ele>304.39</ele>
        <time>2019-03-13T12:56:27Z</time>
      </trkpt>
      <trkpt lat="43.99095" lon="5.16757">
        <ele>302.47</ele>
        <time>2019-03-13T12:56:29Z</time>
      </trkpt>
      <trkpt lat="43.99089" lon="5.16762">
        <ele>303.91</ele>
        <time>2019-03-13T12:56:35Z</time>
      </trkpt>
      <trkpt lat="43.99088" lon="5.16762">
        <ele>304.39</ele>
        <time>2019-03-13T12:56:36Z</time>
      </trkpt>
      <trkpt lat="43.99084" lon="5.16766">
        <ele>304.39</ele>
        <time>2019-03-13T12:56:40Z</time>
      </trkpt>
      <trkpt lat="43.99082" lon="5.16774">
        <ele>302.47</ele>
        <time>2019-03-13T12:56:45Z</time>
      </trkpt>
      <trkpt lat="43.99081" lon="5.16776">
        <ele>303.43</ele>
        <time>2019-03-13T12:56:47Z</time>
      </trkpt>
      <trkpt lat="43.99079" lon="5.16781">
        <ele>302.47</ele>
        <time>2019-03-13T12:56:51Z</time>
      </trkpt>
      <trkpt lat="43.99078" lon="5.16785">
        <ele>302.47</ele>
        <time>2019-03-13T12:56:54Z</time>
      </trkpt>
      <trkpt lat="43.99077" lon="5.16787">
        <ele>302.95</ele>
        <time>2019-03-13T12:56:56Z</time>
      </trkpt>
      <trkpt lat="43.99072" lon="5.16792">
        <ele>301.03</ele>
        <time>2019-03-13T12:57:03Z</time>
      </trkpt>
      <trkpt lat="43.99069" lon="5.16791">
        <ele>301.51</ele>
        <time>2019-03-13T12:57:06Z</time>
      </trkpt>
      <trkpt lat="43.99066" lon="5.16786">
        <ele>299.11</ele>
        <time>2019-03-13T12:57:11Z</time>
      </trkpt>
      <trkpt lat="43.99063" lon="5.16779">
        <ele>301.99</ele>
        <time>2019-03-13T12:57:17Z</time>
      </trkpt>
      <trkpt lat="43.99061" lon="5.16777">
        <ele>298.63</ele>
        <time>2019-03-13T12:57:19Z</time>
      </trkpt>
      <trkpt lat="43.9906" lon="5.16775">
        <ele>302.47</ele>
        <time>2019-03-13T12:57:21Z</time>
      </trkpt>
      <trkpt lat="43.99058" lon="5.16771">
        <ele>301.03</ele>
        <time>2019-03-13T12:57:24Z</time>
      </trkpt>
      <trkpt lat="43.99056" lon="5.16768">
        <ele>299.11</ele>
        <time>2019-03-13T12:57:26Z</time>
      </trkpt>
      <trkpt lat="43.99054" lon="5.16764">
        <ele>302.47</ele>
        <time>2019-03-13T12:57:29Z</time>
      </trkpt>
      <trkpt lat="43.99051" lon="5.16759">
        <ele>299.11</ele>
        <time>2019-03-13T12:57:34Z</time>
      </trkpt>
      <trkpt lat="43.99051" lon="5.16756">
        <ele>302.47</ele>
        <time>2019-03-13T12:57:36Z</time>
      </trkpt>
      <trkpt lat="43.99041" lon="5.16744">
        <ele>302.47</ele>
        <time>2019-03-13T12:57:47Z</time>
      </trkpt>
      <trkpt lat="43.99036" lon="5.16739">
        <ele>303.43</ele>
        <time>2019-03-13T12:57:52Z</time>
      </trkpt>
      <trkpt lat="43.99034" lon="5.16738">
        <ele>301.99</ele>
        <time>2019-03-13T12:57:54Z</time>
      </trkpt>
      <trkpt lat="43.99032" lon="5.16738">
        <ele>302.95</ele>
        <time>2019-03-13T12:57:56Z</time>
      </trkpt>
      <trkpt lat="43.99025" lon="5.16742">
        <ele>303.43</ele>
        <time>2019-03-13T12:58:04Z</time>
      </trkpt>
      <trkpt lat="43.99023" lon="5.16746">
        <ele>304.88</ele>
        <time>2019-03-13T12:58:07Z</time>
      </trkpt>
      <trkpt lat="43.99022" lon="5.16748">
        <ele>303.43</ele>
        <time>2019-03-13T12:58:08Z</time>
      </trkpt>
      <trkpt lat="43.99019" lon="5.16752">
        <ele>305.84</ele>
        <time>2019-03-13T12:58:11Z</time>
      </trkpt>
      <trkpt lat="43.99018" lon="5.16754">
        <ele>301.51</ele>
        <time>2019-03-13T12:58:12Z</time>
      </trkpt>
      <trkpt lat="43.99017" lon="5.16755">
        <ele>303.91</ele>
        <time>2019-03-13T12:58:13Z</time>
      </trkpt>
      <trkpt lat="43.99012" lon="5.16762">
        <ele>303.91</ele>
        <time>2019-03-13T12:58:19Z</time>
      </trkpt>
      <trkpt lat="43.99008" lon="5.16769">
        <ele>301.03</ele>
        <time>2019-03-13T12:58:24Z</time>
      </trkpt>
      <trkpt lat="43.99005" lon="5.16773">
        <ele>304.88</ele>
        <time>2019-03-13T12:58:28Z</time>
      </trkpt>
      <trkpt lat="43.98998" lon="5.16787">
        <ele>304.88</ele>
        <time>2019-03-13T12:58:41Z</time>
      </trkpt>
      <trkpt lat="43.98988" lon="5.16802">
        <ele>303.43</ele>
        <time>2019-03-13T12:58:53Z</time>
      </trkpt>
      <trkpt lat="43.98986" lon="5.16806">
        <ele>306.32</ele>
        <time>2019-03-13T12:58:55Z</time>
      </trkpt>
      <trkpt lat="43.98986" lon="5.16807">
        <ele>306.32</ele>
        <time>2019-03-13T12:58:56Z</time>
      </trkpt>
      <trkpt lat="43.98982" lon="5.16815">
        <ele>306.8</ele>
        <time>2019-03-13T12:59:03Z</time>
      </trkpt>
      <trkpt lat="43.98978" lon="5.16824">
        <ele>305.84</ele>
        <time>2019-03-13T12:59:10Z</time>
      </trkpt>
      <trkpt lat="43.98968" lon="5.16839">
        <ele>309.2</ele>
        <time>2019-03-13T12:59:22Z</time>
      </trkpt>
      <trkpt lat="43.98967" lon="5.16841">
        <ele>305.84</ele>
        <time>2019-03-13T12:59:23Z</time>
      </trkpt>
      <trkpt lat="43.98966" lon="5.16842">
        <ele>306.8</ele>
        <time>2019-03-13T12:59:24Z</time>
      </trkpt>
      <trkpt lat="43.98964" lon="5.16845">
        <ele>310.16</ele>
        <time>2019-03-13T12:59:26Z</time>
      </trkpt>
      <trkpt lat="43.98963" lon="5.16846">
        <ele>305.84</ele>
        <time>2019-03-13T12:59:27Z</time>
      </trkpt>
      <trkpt lat="43.98961" lon="5.16848">
        <ele>309.68</ele>
        <time>2019-03-13T12:59:29Z</time>
      </trkpt>
      <trkpt lat="43.98961" lon="5.1685">
        <ele>308.72</ele>
        <time>2019-03-13T12:59:30Z</time>
      </trkpt>
      <trkpt lat="43.98958" lon="5.16855">
        <ele>309.68</ele>
        <time>2019-03-13T12:59:34Z</time>
      </trkpt>
      <trkpt lat="43.98956" lon="5.16857">
        <ele>307.76</ele>
        <time>2019-03-13T12:59:36Z</time>
      </trkpt>
      <trkpt lat="43.98953" lon="5.16862">
        <ele>305.84</ele>
        <time>2019-03-13T12:59:39Z</time>
      </trkpt>
      <trkpt lat="43.98945" lon="5.16879">
        <ele>309.2</ele>
        <time>2019-03-13T12:59:53Z</time>
      </trkpt>
      <trkpt lat="43.98937" lon="5.16896">
        <ele>311.12</ele>
        <time>2019-03-13T13:00:06Z</time>
      </trkpt>
      <trkpt lat="43.98928" lon="5.16915">
        <ele>310.64</ele>
        <time>2019-03-13T13:00:20Z</time>
      </trkpt>
      <trkpt lat="43.98919" lon="5.16929">
        <ele>313.05</ele>
        <time>2019-03-13T13:00:31Z</time>
      </trkpt>
      <trkpt lat="43.98908" lon="5.16947">
        <ele>314.01</ele>
        <time>2019-03-13T13:00:44Z</time>
      </trkpt>
      <trkpt lat="43.98907" lon="5.16949">
        <ele>310.16</ele>
        <time>2019-03-13T13:00:46Z</time>
      </trkpt>
      <trkpt lat="43.98906" lon="5.1695">
        <ele>314.01</ele>
        <time>2019-03-13T13:00:47Z</time>
      </trkpt>
      <trkpt lat="43.98897" lon="5.16965">
        <ele>314.49</ele>
        <time>2019-03-13T13:00:59Z</time>
      </trkpt>
      <trkpt lat="43.98889" lon="5.16981">
        <ele>314.97</ele>
        <time>2019-03-13T13:01:11Z</time>
      </trkpt>
      <trkpt lat="43.98879" lon="5.16999">
        <ele>315.93</ele>
        <time>2019-03-13T13:01:25Z</time>
      </trkpt>
      <trkpt lat="43.98872" lon="5.17012">
        <ele>314.97</ele>
        <time>2019-03-13T13:01:35Z</time>
      </trkpt>
      <trkpt lat="43.98866" lon="5.17021">
        <ele>318.81</ele>
        <time>2019-03-13T13:01:42Z</time>
      </trkpt>
      <trkpt lat="43.98862" lon="5.17028">
        <ele>314.97</ele>
        <time>2019-03-13T13:01:47Z</time>
      </trkpt>
      <trkpt lat="43.9886" lon="5.17031">
        <ele>318.33</ele>
        <time>2019-03-13T13:01:49Z</time>
      </trkpt>
      <trkpt lat="43.9886" lon="5.17032">
        <ele>318.33</ele>
        <time>2019-03-13T13:01:50Z</time>
      </trkpt>
      <trkpt lat="43.98859" lon="5.17034">
        <ele>316.89</ele>
        <time>2019-03-13T13:01:52Z</time>
      </trkpt>
      <trkpt lat="43.98851" lon="5.17049">
        <ele>318.81</ele>
        <time>2019-03-13T13:02:03Z</time>
      </trkpt>
      <trkpt lat="43.98841" lon="5.17065">
        <ele>318.33</ele>
        <time>2019-03-13T13:02:15Z</time>
      </trkpt>
      <trkpt lat="43.98841" lon="5.17066">
        <ele>318.33</ele>
        <time>2019-03-13T13:02:16Z</time>
      </trkpt>
      <trkpt lat="43.98839" lon="5.17069">
        <ele>322.18</ele>
        <time>2019-03-13T13:02:19Z</time>
      </trkpt>
      <trkpt lat="43.98836" lon="5.17075">
        <ele>317.85</ele>
        <time>2019-03-13T13:02:24Z</time>
      </trkpt>
      <trkpt lat="43.98832" lon="5.17079">
        <ele>320.26</ele>
        <time>2019-03-13T13:02:27Z</time>
      </trkpt>
      <trkpt lat="43.9883" lon="5.17082">
        <ele>319.3</ele>
        <time>2019-03-13T13:02:30Z</time>
      </trkpt>
      <trkpt lat="43.98824" lon="5.1709">
        <ele>319.78</ele>
        <time>2019-03-13T13:02:37Z</time>
      </trkpt>
      <trkpt lat="43.98821" lon="5.17093">
        <ele>321.7</ele>
        <time>2019-03-13T13:02:40Z</time>
      </trkpt>
      <trkpt lat="43.98816" lon="5.17099">
        <ele>325.06</ele>
        <time>2019-03-13T13:02:45Z</time>
      </trkpt>
      <trkpt lat="43.98815" lon="5.171">
        <ele>320.74</ele>
        <time>2019-03-13T13:02:46Z</time>
      </trkpt>
      <trkpt lat="43.98813" lon="5.17103">
        <ele>324.1</ele>
        <time>2019-03-13T13:02:49Z</time>
      </trkpt>
      <trkpt lat="43.98812" lon="5.17104">
        <ele>320.26</ele>
        <time>2019-03-13T13:02:50Z</time>
      </trkpt>
      <trkpt lat="43.98808" lon="5.1711">
        <ele>323.14</ele>
        <time>2019-03-13T13:02:54Z</time>
      </trkpt>
      <trkpt lat="43.98802" lon="5.17115">
        <ele>321.7</ele>
        <time>2019-03-13T13:03:00Z</time>
      </trkpt>
      <trkpt lat="43.98801" lon="5.17116">
        <ele>323.62</ele>
        <time>2019-03-13T13:03:02Z</time>
      </trkpt>
      <trkpt lat="43.988" lon="5.17117">
        <ele>320.26</ele>
        <time>2019-03-13T13:03:03Z</time>
      </trkpt>
      <trkpt lat="43.98798" lon="5.17121">
        <ele>323.62</ele>
        <time>2019-03-13T13:03:06Z</time>
      </trkpt>
      <trkpt lat="43.98787" lon="5.17135">
        <ele>322.66</ele>
        <time>2019-03-13T13:03:20Z</time>
      </trkpt>
      <trkpt lat="43.98782" lon="5.1714">
        <ele>320.74</ele>
        <time>2019-03-13T13:03:25Z</time>
      </trkpt>
      <trkpt lat="43.98781" lon="5.17142">
        <ele>323.62</ele>
        <time>2019-03-13T13:03:27Z</time>
      </trkpt>
      <trkpt lat="43.98771" lon="5.17155">
        <ele>323.14</ele>
        <time>2019-03-13T13:03:38Z</time>
      </trkpt>
      <trkpt lat="43.98769" lon="5.17157">
        <ele>324.1</ele>
        <time>2019-03-13T13:03:40Z</time>
      </trkpt>
      <trkpt lat="43.98759" lon="5.17168">
        <ele>325.54</ele>
        <time>2019-03-13T13:03:51Z</time>
      </trkpt>
      <trkpt lat="43.98755" lon="5.17174">
        <ele>326.99</ele>
        <time>2019-03-13T13:03:56Z</time>
      </trkpt>
      <trkpt lat="43.98754" lon="5.17175">
        <ele>323.14</ele>
        <time>2019-03-13T13:03:57Z</time>
      </trkpt>
      <trkpt lat="43.98753" lon="5.17176">
        <ele>323.62</ele>
        <time>2019-03-13T13:03:58Z</time>
      </trkpt>
      <trkpt lat="43.98752" lon="5.17178">
        <ele>325.06</ele>
        <time>2019-03-13T13:04:00Z</time>
      </trkpt>
      <trkpt lat="43.98751" lon="5.17179">
        <ele>321.22</ele>
        <time>2019-03-13T13:04:01Z</time>
      </trkpt>
      <trkpt lat="43.9875" lon="5.17181">
        <ele>326.02</ele>
        <time>2019-03-13T13:04:03Z</time>
      </trkpt>
      <trkpt lat="43.98749" lon="5.17182">
        <ele>322.18</ele>
        <time>2019-03-13T13:04:04Z</time>
      </trkpt>
      <trkpt lat="43.98746" lon="5.17185">
        <ele>325.54</ele>
        <time>2019-03-13T13:04:07Z</time>
      </trkpt>
      <trkpt lat="43.98742" lon="5.1719">
        <ele>325.06</ele>
        <time>2019-03-13T13:04:12Z</time>
      </trkpt>
      <trkpt lat="43.98739" lon="5.17194">
        <ele>326.5</ele>
        <time>2019-03-13T13:04:15Z</time>
      </trkpt>
      <trkpt lat="43.98738" lon="5.17195">
        <ele>323.62</ele>
        <time>2019-03-13T13:04:16Z</time>
      </trkpt>
      <trkpt lat="43.98736" lon="5.17197">
        <ele>326.99</ele>
        <time>2019-03-13T13:04:18Z</time>
      </trkpt>
      <trkpt lat="43.98736" lon="5.17199">
        <ele>326.5</ele>
        <time>2019-03-13T13:04:19Z</time>
      </trkpt>
      <trkpt lat="43.98733" lon="5.17203">
        <ele>323.14</ele>
        <time>2019-03-13T13:04:24Z</time>
      </trkpt>
      <trkpt lat="43.98732" lon="5.17205">
        <ele>327.47</ele>
        <time>2019-03-13T13:04:26Z</time>
      </trkpt>
      <trkpt lat="43.98731" lon="5.17206">
        <ele>323.62</ele>
        <time>2019-03-13T13:04:27Z</time>
      </trkpt>
      <trkpt lat="43.98729" lon="5.1721">
        <ele>326.02</ele>
        <time>2019-03-13T13:04:30Z</time>
      </trkpt>
      <trkpt lat="43.98721" lon="5.17218">
        <ele>326.99</ele>
        <time>2019-03-13T13:04:38Z</time>
      </trkpt>
      <trkpt lat="43.9872" lon="5.17219">
        <ele>324.58</ele>
        <time>2019-03-13T13:04:39Z</time>
      </trkpt>
      <trkpt lat="43.98717" lon="5.17223">
        <ele>328.43</ele>
        <time>2019-03-13T13:04:42Z</time>
      </trkpt>
      <trkpt lat="43.98715" lon="5.17224">
        <ele>325.06</ele>
        <time>2019-03-13T13:04:43Z</time>
      </trkpt>
      <trkpt lat="43.98714" lon="5.17226">
        <ele>328.43</ele>
        <time>2019-03-13T13:04:45Z</time>
      </trkpt>
      <trkpt lat="43.98712" lon="5.17228">
        <ele>326.02</ele>
        <time>2019-03-13T13:04:50Z</time>
      </trkpt>
      <trkpt lat="43.98704" lon="5.17237">
        <ele>327.95</ele>
        <time>2019-03-13T13:04:58Z</time>
      </trkpt>
      <trkpt lat="43.98694" lon="5.17251">
        <ele>328.43</ele>
        <time>2019-03-13T13:05:09Z</time>
      </trkpt>
      <trkpt lat="43.98684" lon="5.17264">
        <ele>326.99</ele>
        <time>2019-03-13T13:05:20Z</time>
      </trkpt>
      <trkpt lat="43.98681" lon="5.17268">
        <ele>329.87</ele>
        <time>2019-03-13T13:05:23Z</time>
      </trkpt>
      <trkpt lat="43.98679" lon="5.17271">
        <ele>327.95</ele>
        <time>2019-03-13T13:05:26Z</time>
      </trkpt>
      <trkpt lat="43.98674" lon="5.17277">
        <ele>327.95</ele>
        <time>2019-03-13T13:05:31Z</time>
      </trkpt>
      <trkpt lat="43.98666" lon="5.17287">
        <ele>327.95</ele>
        <time>2019-03-13T13:05:41Z</time>
      </trkpt>
      <trkpt lat="43.98662" lon="5.17291">
        <ele>331.79</ele>
        <time>2019-03-13T13:05:44Z</time>
      </trkpt>
      <trkpt lat="43.98655" lon="5.17301">
        <ele>329.39</ele>
        <time>2019-03-13T13:05:52Z</time>
      </trkpt>
      <trkpt lat="43.98642" lon="5.17314">
        <ele>332.75</ele>
        <time>2019-03-13T13:06:06Z</time>
      </trkpt>
      <trkpt lat="43.98641" lon="5.17315">
        <ele>329.39</ele>
        <time>2019-03-13T13:06:07Z</time>
      </trkpt>
      <trkpt lat="43.9864" lon="5.17316">
        <ele>329.87</ele>
        <time>2019-03-13T13:06:08Z</time>
      </trkpt>
      <trkpt lat="43.98636" lon="5.1732">
        <ele>330.35</ele>
        <time>2019-03-13T13:06:13Z</time>
      </trkpt>
      <trkpt lat="43.98628" lon="5.17332">
        <ele>330.83</ele>
        <time>2019-03-13T13:06:23Z</time>
      </trkpt>
      <trkpt lat="43.98627" lon="5.17333">
        <ele>331.79</ele>
        <time>2019-03-13T13:06:25Z</time>
      </trkpt>
      <trkpt lat="43.98625" lon="5.17335">
        <ele>333.23</ele>
        <time>2019-03-13T13:06:27Z</time>
      </trkpt>
      <trkpt lat="43.98623" lon="5.17337">
        <ele>331.31</ele>
        <time>2019-03-13T13:06:29Z</time>
      </trkpt>
      <trkpt lat="43.98619" lon="5.17341">
        <ele>334.2</ele>
        <time>2019-03-13T13:06:34Z</time>
      </trkpt>
      <trkpt lat="43.98617" lon="5.17342">
        <ele>331.31</ele>
        <time>2019-03-13T13:06:46Z</time>
      </trkpt>
      <trkpt lat="43.98617" lon="5.17341">
        <ele>334.68</ele>
        <time>2019-03-13T13:06:57Z</time>
      </trkpt>
      <trkpt lat="43.98617" lon="5.17345">
        <ele>333.71</ele>
        <time>2019-03-13T13:07:11Z</time>
      </trkpt>
      <trkpt lat="43.98617" lon="5.17345">
        <ele>332.75</ele>
        <time>2019-03-13T13:07:30Z</time>
      </trkpt>
      <trkpt lat="43.98618" lon="5.17345">
        <ele>331.31</ele>
        <time>2019-03-13T13:07:51Z</time>
      </trkpt>
      <trkpt lat="43.98616" lon="5.17347">
        <ele>334.68</ele>
        <time>2019-03-13T13:07:55Z</time>
      </trkpt>
      <trkpt lat="43.98614" lon="5.1735">
        <ele>334.2</ele>
        <time>2019-03-13T13:07:59Z</time>
      </trkpt>
      <trkpt lat="43.98604" lon="5.17363">
        <ele>333.71</ele>
        <time>2019-03-13T13:08:10Z</time>
      </trkpt>
      <trkpt lat="43.98591" lon="5.1738">
        <ele>335.16</ele>
        <time>2019-03-13T13:08:24Z</time>
      </trkpt>
      <trkpt lat="43.9858" lon="5.17394">
        <ele>334.2</ele>
        <time>2019-03-13T13:08:38Z</time>
      </trkpt>
      <trkpt lat="43.98569" lon="5.17405">
        <ele>334.68</ele>
        <time>2019-03-13T13:08:51Z</time>
      </trkpt>
      <trkpt lat="43.98559" lon="5.1741">
        <ele>333.23</ele>
        <time>2019-03-13T13:09:00Z</time>
      </trkpt>
      <trkpt lat="43.98551" lon="5.17414">
        <ele>333.71</ele>
        <time>2019-03-13T13:09:08Z</time>
      </trkpt>
      <trkpt lat="43.98549" lon="5.17415">
        <ele>334.68</ele>
        <time>2019-03-13T13:09:10Z</time>
      </trkpt>
      <trkpt lat="43.98541" lon="5.17419">
        <ele>331.79</ele>
        <time>2019-03-13T13:09:17Z</time>
      </trkpt>
      <trkpt lat="43.9854" lon="5.17419">
        <ele>333.71</ele>
        <time>2019-03-13T13:09:18Z</time>
      </trkpt>
      <trkpt lat="43.9853" lon="5.17423">
        <ele>334.2</ele>
        <time>2019-03-13T13:09:26Z</time>
      </trkpt>
      <trkpt lat="43.98526" lon="5.17425">
        <ele>332.75</ele>
        <time>2019-03-13T13:09:29Z</time>
      </trkpt>
      <trkpt lat="43.98512" lon="5.17433">
        <ele>330.83</ele>
        <time>2019-03-13T13:09:40Z</time>
      </trkpt>
      <trkpt lat="43.9851" lon="5.17434">
        <ele>333.71</ele>
        <time>2019-03-13T13:09:43Z</time>
      </trkpt>
      <trkpt lat="43.98508" lon="5.17435">
        <ele>332.75</ele>
        <time>2019-03-13T13:09:45Z</time>
      </trkpt>
      <trkpt lat="43.98504" lon="5.17436">
        <ele>333.23</ele>
        <time>2019-03-13T13:09:48Z</time>
      </trkpt>
      <trkpt lat="43.98502" lon="5.17438">
        <ele>329.87</ele>
        <time>2019-03-13T13:09:51Z</time>
      </trkpt>
      <trkpt lat="43.98497" lon="5.1744">
        <ele>331.31</ele>
        <time>2019-03-13T13:09:56Z</time>
      </trkpt>
      <trkpt lat="43.98494" lon="5.1744">
        <ele>332.75</ele>
        <time>2019-03-13T13:09:58Z</time>
      </trkpt>
      <trkpt lat="43.98491" lon="5.1744">
        <ele>330.35</ele>
        <time>2019-03-13T13:10:01Z</time>
      </trkpt>
      <trkpt lat="43.98488" lon="5.1744">
        <ele>331.79</ele>
        <time>2019-03-13T13:10:03Z</time>
      </trkpt>
      <trkpt lat="43.98484" lon="5.17442">
        <ele>329.39</ele>
        <time>2019-03-13T13:10:06Z</time>
      </trkpt>
      <trkpt lat="43.98477" lon="5.17443">
        <ele>331.79</ele>
        <time>2019-03-13T13:10:15Z</time>
      </trkpt>
      <trkpt lat="43.98475" lon="5.17443">
        <ele>331.31</ele>
        <time>2019-03-13T13:10:29Z</time>
      </trkpt>
      <trkpt lat="43.98473" lon="5.17446">
        <ele>332.75</ele>
        <time>2019-03-13T13:10:44Z</time>
      </trkpt>
      <trkpt lat="43.9847" lon="5.17448">
        <ele>331.31</ele>
        <time>2019-03-13T13:10:47Z</time>
      </trkpt>
      <trkpt lat="43.98458" lon="5.17454">
        <ele>329.87</ele>
        <time>2019-03-13T13:11:02Z</time>
      </trkpt>
      <trkpt lat="43.98453" lon="5.17457">
        <ele>330.83</ele>
        <time>2019-03-13T13:11:09Z</time>
      </trkpt>
      <trkpt lat="43.98449" lon="5.1746">
        <ele>328.91</ele>
        <time>2019-03-13T13:11:13Z</time>
      </trkpt>
      <trkpt lat="43.98446" lon="5.17462">
        <ele>330.35</ele>
        <time>2019-03-13T13:11:16Z</time>
      </trkpt>
      <trkpt lat="43.9844" lon="5.17464">
        <ele>330.83</ele>
        <time>2019-03-13T13:11:20Z</time>
      </trkpt>
      <trkpt lat="43.98431" lon="5.17467">
        <ele>327.95</ele>
        <time>2019-03-13T13:11:25Z</time>
      </trkpt>
      <trkpt lat="43.98429" lon="5.17469">
        <ele>330.35</ele>
        <time>2019-03-13T13:11:27Z</time>
      </trkpt>
      <trkpt lat="43.98424" lon="5.17471">
        <ele>326.99</ele>
        <time>2019-03-13T13:11:30Z</time>
      </trkpt>
      <trkpt lat="43.98421" lon="5.17473">
        <ele>329.87</ele>
        <time>2019-03-13T13:11:32Z</time>
      </trkpt>
      <trkpt lat="43.98418" lon="5.17476">
        <ele>328.43</ele>
        <time>2019-03-13T13:11:36Z</time>
      </trkpt>
      <trkpt lat="43.98414" lon="5.17478">
        <ele>329.87</ele>
        <time>2019-03-13T13:11:39Z</time>
      </trkpt>
      <trkpt lat="43.9841" lon="5.1748">
        <ele>327.47</ele>
        <time>2019-03-13T13:11:42Z</time>
      </trkpt>
      <trkpt lat="43.98403" lon="5.17482">
        <ele>326.5</ele>
        <time>2019-03-13T13:11:48Z</time>
      </trkpt>
      <trkpt lat="43.98388" lon="5.17489">
        <ele>323.62</ele>
        <time>2019-03-13T13:12:01Z</time>
      </trkpt>
      <trkpt lat="43.98384" lon="5.17491">
        <ele>326.02</ele>
        <time>2019-03-13T13:12:04Z</time>
      </trkpt>
      <trkpt lat="43.98376" lon="5.17496">
        <ele>325.06</ele>
        <time>2019-03-13T13:12:12Z</time>
      </trkpt>
      <trkpt lat="43.98361" lon="5.17502">
        <ele>325.54</ele>
        <time>2019-03-13T13:12:25Z</time>
      </trkpt>
      <trkpt lat="43.98359" lon="5.17502">
        <ele>322.18</ele>
        <time>2019-03-13T13:12:26Z</time>
      </trkpt>
      <trkpt lat="43.98359" lon="5.17503">
        <ele>322.66</ele>
        <time>2019-03-13T13:12:27Z</time>
      </trkpt>
      <trkpt lat="43.98351" lon="5.1751">
        <ele>324.1</ele>
        <time>2019-03-13T13:12:35Z</time>
      </trkpt>
      <trkpt lat="43.98348" lon="5.17513">
        <ele>324.1</ele>
        <time>2019-03-13T13:12:38Z</time>
      </trkpt>
      <trkpt lat="43.98345" lon="5.17517">
        <ele>322.18</ele>
        <time>2019-03-13T13:12:42Z</time>
      </trkpt>
      <trkpt lat="43.98342" lon="5.17519">
        <ele>323.62</ele>
        <time>2019-03-13T13:12:44Z</time>
      </trkpt>
      <trkpt lat="43.9834" lon="5.1752">
        <ele>322.18</ele>
        <time>2019-03-13T13:12:46Z</time>
      </trkpt>
      <trkpt lat="43.98337" lon="5.17523">
        <ele>322.66</ele>
        <time>2019-03-13T13:12:50Z</time>
      </trkpt>
      <trkpt lat="43.98335" lon="5.17523">
        <ele>322.66</ele>
        <time>2019-03-13T13:12:52Z</time>
      </trkpt>
      <trkpt lat="43.98332" lon="5.17525">
        <ele>320.74</ele>
        <time>2019-03-13T13:12:55Z</time>
      </trkpt>
      <trkpt lat="43.9832" lon="5.17531">
        <ele>320.26</ele>
        <time>2019-03-13T13:13:08Z</time>
      </trkpt>
      <trkpt lat="43.98319" lon="5.17531">
        <ele>322.66</ele>
        <time>2019-03-13T13:13:09Z</time>
      </trkpt>
      <trkpt lat="43.98316" lon="5.17532">
        <ele>323.14</ele>
        <time>2019-03-13T13:13:12Z</time>
      </trkpt>
      <trkpt lat="43.98314" lon="5.17535">
        <ele>321.7</ele>
        <time>2019-03-13T13:13:14Z</time>
      </trkpt>
      <trkpt lat="43.98302" lon="5.17542">
        <ele>323.14</ele>
        <time>2019-03-13T13:13:25Z</time>
      </trkpt>
      <trkpt lat="43.98297" lon="5.17542">
        <ele>323.62</ele>
        <time>2019-03-13T13:13:29Z</time>
      </trkpt>
      <trkpt lat="43.98293" lon="5.17543">
        <ele>321.7</ele>
        <time>2019-03-13T13:13:32Z</time>
      </trkpt>
      <trkpt lat="43.9829" lon="5.17545">
        <ele>320.74</ele>
        <time>2019-03-13T13:13:36Z</time>
      </trkpt>
      <trkpt lat="43.98288" lon="5.17546">
        <ele>321.22</ele>
        <time>2019-03-13T13:13:38Z</time>
      </trkpt>
      <trkpt lat="43.98284" lon="5.17549">
        <ele>322.18</ele>
        <time>2019-03-13T13:13:42Z</time>
      </trkpt>
      <trkpt lat="43.98281" lon="5.17551">
        <ele>320.26</ele>
        <time>2019-03-13T13:13:44Z</time>
      </trkpt>
      <trkpt lat="43.98277" lon="5.17556">
        <ele>320.74</ele>
        <time>2019-03-13T13:13:49Z</time>
      </trkpt>
      <trkpt lat="43.98275" lon="5.17558">
        <ele>319.78</ele>
        <time>2019-03-13T13:13:51Z</time>
      </trkpt>
      <trkpt lat="43.98271" lon="5.17565">
        <ele>320.26</ele>
        <time>2019-03-13T13:13:58Z</time>
      </trkpt>
      <trkpt lat="43.98269" lon="5.1757">
        <ele>318.81</ele>
        <time>2019-03-13T13:14:02Z</time>
      </trkpt>
      <trkpt lat="43.98266" lon="5.17576">
        <ele>320.74</ele>
        <time>2019-03-13T13:14:05Z</time>
      </trkpt>
      <trkpt lat="43.98265" lon="5.17581">
        <ele>317.85</ele>
        <time>2019-03-13T13:14:08Z</time>
      </trkpt>
      <trkpt lat="43.98265" lon="5.17582">
        <ele>318.33</ele>
        <time>2019-03-13T13:14:09Z</time>
      </trkpt>
      <trkpt lat="43.98263" lon="5.17584">
        <ele>320.26</ele>
        <time>2019-03-13T13:14:11Z</time>
      </trkpt>
      <trkpt lat="43.98261" lon="5.17589">
        <ele>315.93</ele>
        <time>2019-03-13T13:14:13Z</time>
      </trkpt>
      <trkpt lat="43.98255" lon="5.17599">
        <ele>317.37</ele>
        <time>2019-03-13T13:14:19Z</time>
      </trkpt>
      <trkpt lat="43.98254" lon="5.17601">
        <ele>320.74</ele>
        <time>2019-03-13T13:14:21Z</time>
      </trkpt>
      <trkpt lat="43.98251" lon="5.17606">
        <ele>320.26</ele>
        <time>2019-03-13T13:14:25Z</time>
      </trkpt>
      <trkpt lat="43.98251" lon="5.17607">
        <ele>316.89</ele>
        <time>2019-03-13T13:14:26Z</time>
      </trkpt>
      <trkpt lat="43.9825" lon="5.17608">
        <ele>318.33</ele>
        <time>2019-03-13T13:14:27Z</time>
      </trkpt>
      <trkpt lat="43.98247" lon="5.17616">
        <ele>319.3</ele>
        <time>2019-03-13T13:14:34Z</time>
      </trkpt>
      <trkpt lat="43.98241" lon="5.17629">
        <ele>319.3</ele>
        <time>2019-03-13T13:14:50Z</time>
      </trkpt>
      <trkpt lat="43.9824" lon="5.17631">
        <ele>322.66</ele>
        <time>2019-03-13T13:14:52Z</time>
      </trkpt>
      <trkpt lat="43.98239" lon="5.17634">
        <ele>321.7</ele>
        <time>2019-03-13T13:14:55Z</time>
      </trkpt>
      <trkpt lat="43.98239" lon="5.17637">
        <ele>323.14</ele>
        <time>2019-03-13T13:14:57Z</time>
      </trkpt>
      <trkpt lat="43.98236" lon="5.1765">
        <ele>320.74</ele>
        <time>2019-03-13T13:15:09Z</time>
      </trkpt>
      <trkpt lat="43.98225" lon="5.17673">
        <ele>321.22</ele>
        <time>2019-03-13T13:15:22Z</time>
      </trkpt>
      <trkpt lat="43.98219" lon="5.17681">
        <ele>321.7</ele>
        <time>2019-03-13T13:15:26Z</time>
      </trkpt>
      <trkpt lat="43.98213" lon="5.17696">
        <ele>322.18</ele>
        <time>2019-03-13T13:15:35Z</time>
      </trkpt>
      <trkpt lat="43.98212" lon="5.17699">
        <ele>322.66</ele>
        <time>2019-03-13T13:15:37Z</time>
      </trkpt>
      <trkpt lat="43.98204" lon="5.17715">
        <ele>323.62</ele>
        <time>2019-03-13T13:15:49Z</time>
      </trkpt>
      <trkpt lat="43.98201" lon="5.17723">
        <ele>322.66</ele>
        <time>2019-03-13T13:15:55Z</time>
      </trkpt>
      <trkpt lat="43.982" lon="5.17725">
        <ele>323.14</ele>
        <time>2019-03-13T13:15:57Z</time>
      </trkpt>
      <trkpt lat="43.98199" lon="5.17729">
        <ele>325.06</ele>
        <time>2019-03-13T13:16:00Z</time>
      </trkpt>
      <trkpt lat="43.98198" lon="5.17733">
        <ele>323.62</ele>
        <time>2019-03-13T13:16:03Z</time>
      </trkpt>
      <trkpt lat="43.98192" lon="5.17749">
        <ele>324.58</ele>
        <time>2019-03-13T13:16:16Z</time>
      </trkpt>
      <trkpt lat="43.98192" lon="5.1775">
        <ele>321.22</ele>
        <time>2019-03-13T13:16:17Z</time>
      </trkpt>
      <trkpt lat="43.98198" lon="5.17763">
        <ele>324.1</ele>
        <time>2019-03-13T13:16:34Z</time>
      </trkpt>
      <trkpt lat="43.98195" lon="5.17756">
        <ele>322.66</ele>
        <time>2019-03-13T13:16:39Z</time>
      </trkpt>
      <trkpt lat="43.98189" lon="5.17751">
        <ele>323.62</ele>
        <time>2019-03-13T13:16:58Z</time>
      </trkpt>
      <trkpt lat="43.98186" lon="5.17754">
        <ele>323.14</ele>
        <time>2019-03-13T13:17:14Z</time>
      </trkpt>
      <trkpt lat="43.98184" lon="5.17754">
        <ele>325.54</ele>
        <time>2019-03-13T13:17:17Z</time>
      </trkpt>
      <trkpt lat="43.98182" lon="5.17753">
        <ele>323.14</ele>
        <time>2019-03-13T13:17:19Z</time>
      </trkpt>
      <trkpt lat="43.98175" lon="5.17754">
        <ele>325.06</ele>
        <time>2019-03-13T13:17:26Z</time>
      </trkpt>
      <trkpt lat="43.98173" lon="5.17754">
        <ele>326.5</ele>
        <time>2019-03-13T13:17:28Z</time>
      </trkpt>
      <trkpt lat="43.98172" lon="5.17754">
        <ele>323.14</ele>
        <time>2019-03-13T13:17:29Z</time>
      </trkpt>
      <trkpt lat="43.98169" lon="5.17754">
        <ele>326.5</ele>
        <time>2019-03-13T13:17:31Z</time>
      </trkpt>
      <trkpt lat="43.98165" lon="5.17753">
        <ele>323.62</ele>
        <time>2019-03-13T13:17:34Z</time>
      </trkpt>
      <trkpt lat="43.98162" lon="5.17753">
        <ele>325.06</ele>
        <time>2019-03-13T13:17:53Z</time>
      </trkpt>
      <trkpt lat="43.98161" lon="5.17756">
        <ele>325.54</ele>
        <time>2019-03-13T13:18:12Z</time>
      </trkpt>
      <trkpt lat="43.9816" lon="5.17757">
        <ele>326.02</ele>
        <time>2019-03-13T13:18:13Z</time>
      </trkpt>
      <trkpt lat="43.98158" lon="5.17759">
        <ele>326.99</ele>
        <time>2019-03-13T13:18:16Z</time>
      </trkpt>
      <trkpt lat="43.98154" lon="5.17767">
        <ele>326.5</ele>
        <time>2019-03-13T13:18:29Z</time>
      </trkpt>
      <trkpt lat="43.98153" lon="5.1777">
        <ele>326.99</ele>
        <time>2019-03-13T13:18:36Z</time>
      </trkpt>
      <trkpt lat="43.98153" lon="5.17771">
        <ele>325.54</ele>
        <time>2019-03-13T13:18:37Z</time>
      </trkpt>
      <trkpt lat="43.98147" lon="5.17788">
        <ele>328.43</ele>
        <time>2019-03-13T13:18:48Z</time>
      </trkpt>
      <trkpt lat="43.98146" lon="5.1779">
        <ele>327.47</ele>
        <time>2019-03-13T13:18:50Z</time>
      </trkpt>
      <trkpt lat="43.98146" lon="5.17797">
        <ele>325.54</ele>
        <time>2019-03-13T13:18:55Z</time>
      </trkpt>
      <trkpt lat="43.98144" lon="5.17805">
        <ele>327.47</ele>
        <time>2019-03-13T13:19:02Z</time>
      </trkpt>
      <trkpt lat="43.98147" lon="5.17812">
        <ele>330.83</ele>
        <time>2019-03-13T13:19:12Z</time>
      </trkpt>
      <trkpt lat="43.98147" lon="5.17813">
        <ele>326.99</ele>
        <time>2019-03-13T13:19:13Z</time>
      </trkpt>
      <trkpt lat="43.98147" lon="5.17822">
        <ele>330.35</ele>
        <time>2019-03-13T13:19:25Z</time>
      </trkpt>
      <trkpt lat="43.98143" lon="5.1784">
        <ele>334.2</ele>
        <time>2019-03-13T13:19:40Z</time>
      </trkpt>
      <trkpt lat="43.98143" lon="5.17843">
        <ele>330.83</ele>
        <time>2019-03-13T13:19:42Z</time>
      </trkpt>
      <trkpt lat="43.98143" lon="5.17844">
        <ele>334.2</ele>
        <time>2019-03-13T13:19:43Z</time>
      </trkpt>
      <trkpt lat="43.98143" lon="5.1785">
        <ele>337.08</ele>
        <time>2019-03-13T13:19:49Z</time>
      </trkpt>
      <trkpt lat="43.98142" lon="5.17851">
        <ele>334.2</ele>
        <time>2019-03-13T13:19:50Z</time>
      </trkpt>
      <trkpt lat="43.98136" lon="5.17855">
        <ele>337.56</ele>
        <time>2019-03-13T13:19:51Z</time>
      </trkpt>
      <trkpt lat="43.98132" lon="5.17859">
        <ele>333.71</ele>
        <time>2019-03-13T13:19:52Z</time>
      </trkpt>
      <trkpt lat="43.98127" lon="5.17867">
        <ele>336.6</ele>
        <time>2019-03-13T13:19:59Z</time>
      </trkpt>
      <trkpt lat="43.98128" lon="5.17881">
        <ele>336.6</ele>
        <time>2019-03-13T13:20:14Z</time>
      </trkpt>
      <trkpt lat="43.98123" lon="5.17896">
        <ele>339.96</ele>
        <time>2019-03-13T13:20:31Z</time>
      </trkpt>
      <trkpt lat="43.98124" lon="5.17897">
        <ele>336.6</ele>
        <time>2019-03-13T13:20:32Z</time>
      </trkpt>
      <trkpt lat="43.98125" lon="5.17904">
        <ele>336.12</ele>
        <time>2019-03-13T13:20:38Z</time>
      </trkpt>
      <trkpt lat="43.98125" lon="5.17909">
        <ele>338.04</ele>
        <time>2019-03-13T13:20:41Z</time>
      </trkpt>
      <trkpt lat="43.98136" lon="5.17924">
        <ele>340.44</ele>
        <time>2019-03-13T13:20:55Z</time>
      </trkpt>
      <trkpt lat="43.98141" lon="5.17927">
        <ele>340.92</ele>
        <time>2019-03-13T13:21:04Z</time>
      </trkpt>
      <trkpt lat="43.98153" lon="5.17927">
        <ele>342.37</ele>
        <time>2019-03-13T13:21:14Z</time>
      </trkpt>
      <trkpt lat="43.98154" lon="5.17927">
        <ele>338.52</ele>
        <time>2019-03-13T13:21:15Z</time>
      </trkpt>
      <trkpt lat="43.98155" lon="5.17926">
        <ele>341.41</ele>
        <time>2019-03-13T13:21:16Z</time>
      </trkpt>
      <trkpt lat="43.98157" lon="5.17925">
        <ele>338.52</ele>
        <time>2019-03-13T13:21:18Z</time>
      </trkpt>
      <trkpt lat="43.98158" lon="5.17925">
        <ele>341.41</ele>
        <time>2019-03-13T13:21:19Z</time>
      </trkpt>
      <trkpt lat="43.9816" lon="5.17923">
        <ele>338.52</ele>
        <time>2019-03-13T13:21:21Z</time>
      </trkpt>
      <trkpt lat="43.98161" lon="5.17923">
        <ele>341.41</ele>
        <time>2019-03-13T13:21:22Z</time>
      </trkpt>
      <trkpt lat="43.98169" lon="5.17919">
        <ele>341.89</ele>
        <time>2019-03-13T13:21:29Z</time>
      </trkpt>
      <trkpt lat="43.98172" lon="5.17918">
        <ele>343.33</ele>
        <time>2019-03-13T13:21:31Z</time>
      </trkpt>
      <trkpt lat="43.98184" lon="5.17912">
        <ele>339.96</ele>
        <time>2019-03-13T13:21:39Z</time>
      </trkpt>
      <trkpt lat="43.9819" lon="5.17907">
        <ele>339.96</ele>
        <time>2019-03-13T13:21:43Z</time>
      </trkpt>
      <trkpt lat="43.98193" lon="5.17905">
        <ele>344.29</ele>
        <time>2019-03-13T13:21:45Z</time>
      </trkpt>
      <trkpt lat="43.98198" lon="5.17902">
        <ele>340.92</ele>
        <time>2019-03-13T13:21:49Z</time>
      </trkpt>
      <trkpt lat="43.98201" lon="5.17902">
        <ele>344.29</ele>
        <time>2019-03-13T13:21:51Z</time>
      </trkpt>
      <trkpt lat="43.98203" lon="5.17901">
        <ele>340.44</ele>
        <time>2019-03-13T13:21:52Z</time>
      </trkpt>
      <trkpt lat="43.98204" lon="5.179">
        <ele>343.81</ele>
        <time>2019-03-13T13:21:53Z</time>
      </trkpt>
      <trkpt lat="43.98207" lon="5.17895">
        <ele>342.37</ele>
        <time>2019-03-13T13:21:56Z</time>
      </trkpt>
      <trkpt lat="43.98209" lon="5.17894">
        <ele>344.29</ele>
        <time>2019-03-13T13:21:59Z</time>
      </trkpt>
      <trkpt lat="43.98217" lon="5.17893">
        <ele>344.29</ele>
        <time>2019-03-13T13:22:13Z</time>
      </trkpt>
      <trkpt lat="43.98231" lon="5.17887">
        <ele>344.29</ele>
        <time>2019-03-13T13:22:25Z</time>
      </trkpt>
      <trkpt lat="43.9824" lon="5.17886">
        <ele>347.65</ele>
        <time>2019-03-13T13:22:33Z</time>
      </trkpt>
      <trkpt lat="43.98256" lon="5.17891">
        <ele>348.13</ele>
        <time>2019-03-13T13:22:51Z</time>
      </trkpt>
      <trkpt lat="43.98259" lon="5.17896">
        <ele>349.1</ele>
        <time>2019-03-13T13:22:57Z</time>
      </trkpt>
      <trkpt lat="43.98259" lon="5.17896">
        <ele>346.21</ele>
        <time>2019-03-13T13:22:58Z</time>
      </trkpt>
      <trkpt lat="43.98258" lon="5.17903">
        <ele>349.58</ele>
        <time>2019-03-13T13:23:03Z</time>
      </trkpt>
      <trkpt lat="43.98258" lon="5.17905">
        <ele>346.21</ele>
        <time>2019-03-13T13:23:05Z</time>
      </trkpt>
      <trkpt lat="43.98258" lon="5.17906">
        <ele>350.06</ele>
        <time>2019-03-13T13:23:06Z</time>
      </trkpt>
      <trkpt lat="43.98261" lon="5.17919">
        <ele>349.1</ele>
        <time>2019-03-13T13:23:15Z</time>
      </trkpt>
      <trkpt lat="43.98263" lon="5.17926">
        <ele>350.54</ele>
        <time>2019-03-13T13:23:19Z</time>
      </trkpt>
      <trkpt lat="43.98267" lon="5.17942">
        <ele>351.98</ele>
        <time>2019-03-13T13:23:31Z</time>
      </trkpt>
      <trkpt lat="43.98267" lon="5.17956">
        <ele>349.1</ele>
        <time>2019-03-13T13:23:43Z</time>
      </trkpt>
      <trkpt lat="43.98269" lon="5.17973">
        <ele>352.94</ele>
        <time>2019-03-13T13:23:55Z</time>
      </trkpt>
      <trkpt lat="43.98269" lon="5.17981">
        <ele>349.1</ele>
        <time>2019-03-13T13:23:59Z</time>
      </trkpt>
      <trkpt lat="43.98273" lon="5.17988">
        <ele>349.1</ele>
        <time>2019-03-13T13:24:06Z</time>
      </trkpt>
      <trkpt lat="43.9828" lon="5.18004">
        <ele>352.94</ele>
        <time>2019-03-13T13:24:18Z</time>
      </trkpt>
      <trkpt lat="43.98282" lon="5.18015">
        <ele>355.83</ele>
        <time>2019-03-13T13:24:26Z</time>
      </trkpt>
      <trkpt lat="43.98283" lon="5.18015">
        <ele>351.5</ele>
        <time>2019-03-13T13:24:27Z</time>
      </trkpt>
      <trkpt lat="43.98284" lon="5.18026">
        <ele>356.31</ele>
        <time>2019-03-13T13:24:34Z</time>
      </trkpt>
      <trkpt lat="43.98284" lon="5.18026">
        <ele>351.98</ele>
        <time>2019-03-13T13:24:35Z</time>
      </trkpt>
      <trkpt lat="43.98287" lon="5.18031">
        <ele>355.83</ele>
        <time>2019-03-13T13:24:41Z</time>
      </trkpt>
      <trkpt lat="43.98291" lon="5.18033">
        <ele>356.31</ele>
        <time>2019-03-13T13:24:47Z</time>
      </trkpt>
      <trkpt lat="43.98291" lon="5.18034">
        <ele>352.94</ele>
        <time>2019-03-13T13:24:48Z</time>
      </trkpt>
      <trkpt lat="43.98293" lon="5.18035">
        <ele>356.31</ele>
        <time>2019-03-13T13:24:51Z</time>
      </trkpt>
      <trkpt lat="43.98296" lon="5.18041">
        <ele>359.67</ele>
        <time>2019-03-13T13:25:04Z</time>
      </trkpt>
      <trkpt lat="43.98297" lon="5.18041">
        <ele>356.31</ele>
        <time>2019-03-13T13:25:05Z</time>
      </trkpt>
      <trkpt lat="43.98297" lon="5.18041">
        <ele>360.63</ele>
        <time>2019-03-13T13:25:07Z</time>
      </trkpt>
      <trkpt lat="43.98297" lon="5.18041">
        <ele>358.23</ele>
        <time>2019-03-13T13:25:08Z</time>
      </trkpt>
      <trkpt lat="43.98297" lon="5.18041">
        <ele>361.59</ele>
        <time>2019-03-13T13:25:09Z</time>
      </trkpt>
      <trkpt lat="43.98298" lon="5.18041">
        <ele>357.27</ele>
        <time>2019-03-13T13:25:10Z</time>
      </trkpt>
      <trkpt lat="43.98299" lon="5.18041">
        <ele>362.55</ele>
        <time>2019-03-13T13:25:15Z</time>
      </trkpt>
      <trkpt lat="43.98299" lon="5.18041">
        <ele>358.71</ele>
        <time>2019-03-13T13:25:16Z</time>
      </trkpt>
      <trkpt lat="43.983" lon="5.18041">
        <ele>362.55</ele>
        <time>2019-03-13T13:25:22Z</time>
      </trkpt>
      <trkpt lat="43.98301" lon="5.18041">
        <ele>358.23</ele>
        <time>2019-03-13T13:25:24Z</time>
      </trkpt>
      <trkpt lat="43.98301" lon="5.18041">
        <ele>361.11</ele>
        <time>2019-03-13T13:25:25Z</time>
      </trkpt>
      <trkpt lat="43.98303" lon="5.18042">
        <ele>365.44</ele>
        <time>2019-03-13T13:25:38Z</time>
      </trkpt>
      <trkpt lat="43.98303" lon="5.18042">
        <ele>359.67</ele>
        <time>2019-03-13T13:25:41Z</time>
      </trkpt>
      <trkpt lat="43.98304" lon="5.18042">
        <ele>363.52</ele>
        <time>2019-03-13T13:25:42Z</time>
      </trkpt>
      <trkpt lat="43.98306" lon="5.18044">
        <ele>366.88</ele>
        <time>2019-03-13T13:25:52Z</time>
      </trkpt>
      <trkpt lat="43.9831" lon="5.18047">
        <ele>362.55</ele>
        <time>2019-03-13T13:25:58Z</time>
      </trkpt>
      <trkpt lat="43.98311" lon="5.18048">
        <ele>367.36</ele>
        <time>2019-03-13T13:25:59Z</time>
      </trkpt>
      <trkpt lat="43.98313" lon="5.18048">
        <ele>365.44</ele>
        <time>2019-03-13T13:26:00Z</time>
      </trkpt>
      <trkpt lat="43.9833" lon="5.18048">
        <ele>365.92</ele>
        <time>2019-03-13T13:26:14Z</time>
      </trkpt>
      <trkpt lat="43.98347" lon="5.18052">
        <ele>364.96</ele>
        <time>2019-03-13T13:26:27Z</time>
      </trkpt>
      <trkpt lat="43.98359" lon="5.18059">
        <ele>363.04</ele>
        <time>2019-03-13T13:26:42Z</time>
      </trkpt>
      <trkpt lat="43.98365" lon="5.18067">
        <ele>361.11</ele>
        <time>2019-03-13T13:26:53Z</time>
      </trkpt>
      <trkpt lat="43.98368" lon="5.18072">
        <ele>362.07</ele>
        <time>2019-03-13T13:27:07Z</time>
      </trkpt>
      <trkpt lat="43.98368" lon="5.18076">
        <ele>365.92</ele>
        <time>2019-03-13T13:27:13Z</time>
      </trkpt>
      <trkpt lat="43.98368" lon="5.18077">
        <ele>362.07</ele>
        <time>2019-03-13T13:27:14Z</time>
      </trkpt>
      <trkpt lat="43.98368" lon="5.18078">
        <ele>364</ele>
        <time>2019-03-13T13:27:17Z</time>
      </trkpt>
      <trkpt lat="43.98367" lon="5.18079">
        <ele>367.36</ele>
        <time>2019-03-13T13:27:21Z</time>
      </trkpt>
      <trkpt lat="43.98366" lon="5.18079">
        <ele>363.52</ele>
        <time>2019-03-13T13:27:22Z</time>
      </trkpt>
      <trkpt lat="43.98365" lon="5.18078">
        <ele>364.48</ele>
        <time>2019-03-13T13:27:24Z</time>
      </trkpt>
      <trkpt lat="43.98362" lon="5.18075">
        <ele>366.4</ele>
        <time>2019-03-13T13:27:28Z</time>
      </trkpt>
      <trkpt lat="43.9836" lon="5.18075">
        <ele>364.48</ele>
        <time>2019-03-13T13:27:31Z</time>
      </trkpt>
      <trkpt lat="43.98359" lon="5.18074">
        <ele>367.36</ele>
        <time>2019-03-13T13:27:32Z</time>
      </trkpt>
      <trkpt lat="43.98356" lon="5.18075">
        <ele>370.73</ele>
        <time>2019-03-13T13:27:38Z</time>
      </trkpt>
      <trkpt lat="43.98355" lon="5.18076">
        <ele>367.36</ele>
        <time>2019-03-13T13:27:39Z</time>
      </trkpt>
      <trkpt lat="43.98354" lon="5.18078">
        <ele>370.24</ele>
        <time>2019-03-13T13:27:43Z</time>
      </trkpt>
      <trkpt lat="43.9835" lon="5.1808">
        <ele>370.73</ele>
        <time>2019-03-13T13:27:51Z</time>
      </trkpt>
      <trkpt lat="43.98343" lon="5.18087">
        <ele>374.09</ele>
        <time>2019-03-13T13:28:03Z</time>
      </trkpt>
      <trkpt lat="43.98339" lon="5.18086">
        <ele>376.97</ele>
        <time>2019-03-13T13:28:13Z</time>
      </trkpt>
      <trkpt lat="43.98339" lon="5.18086">
        <ele>373.61</ele>
        <time>2019-03-13T13:28:15Z</time>
      </trkpt>
      <trkpt lat="43.98338" lon="5.18086">
        <ele>377.94</ele>
        <time>2019-03-13T13:28:16Z</time>
      </trkpt>
      <trkpt lat="43.98337" lon="5.18086">
        <ele>374.57</ele>
        <time>2019-03-13T13:28:25Z</time>
      </trkpt>
      <trkpt lat="43.98336" lon="5.18085">
        <ele>377.94</ele>
        <time>2019-03-13T13:28:26Z</time>
      </trkpt>
      <trkpt lat="43.98335" lon="5.18086">
        <ele>376.49</ele>
        <time>2019-03-13T13:28:31Z</time>
      </trkpt>
      <trkpt lat="43.9833" lon="5.18088">
        <ele>382.74</ele>
        <time>2019-03-13T13:28:41Z</time>
      </trkpt>
      <trkpt lat="43.98329" lon="5.18089">
        <ele>378.42</ele>
        <time>2019-03-13T13:28:44Z</time>
      </trkpt>
      <trkpt lat="43.98329" lon="5.18089">
        <ele>381.3</ele>
        <time>2019-03-13T13:28:45Z</time>
      </trkpt>
      <trkpt lat="43.98323" lon="5.1809">
        <ele>382.26</ele>
        <time>2019-03-13T13:28:58Z</time>
      </trkpt>
      <trkpt lat="43.98319" lon="5.18092">
        <ele>386.59</ele>
        <time>2019-03-13T13:29:02Z</time>
      </trkpt>
      <trkpt lat="43.98319" lon="5.18093">
        <ele>382.26</ele>
        <time>2019-03-13T13:29:03Z</time>
      </trkpt>
      <trkpt lat="43.98318" lon="5.18094">
        <ele>386.59</ele>
        <time>2019-03-13T13:29:04Z</time>
      </trkpt>
      <trkpt lat="43.98317" lon="5.18095">
        <ele>383.22</ele>
        <time>2019-03-13T13:29:06Z</time>
      </trkpt>
      <trkpt lat="43.98311" lon="5.18097">
        <ele>386.59</ele>
        <time>2019-03-13T13:29:16Z</time>
      </trkpt>
      <trkpt lat="43.98307" lon="5.18098">
        <ele>386.59</ele>
        <time>2019-03-13T13:29:24Z</time>
      </trkpt>
      <trkpt lat="43.98302" lon="5.18099">
        <ele>392.84</ele>
        <time>2019-03-13T13:29:32Z</time>
      </trkpt>
      <trkpt lat="43.98299" lon="5.18101">
        <ele>389.47</ele>
        <time>2019-03-13T13:29:35Z</time>
      </trkpt>
      <trkpt lat="43.98299" lon="5.18102">
        <ele>393.8</ele>
        <time>2019-03-13T13:29:37Z</time>
      </trkpt>
      <trkpt lat="43.98299" lon="5.18103">
        <ele>390.43</ele>
        <time>2019-03-13T13:29:40Z</time>
      </trkpt>
      <trkpt lat="43.98298" lon="5.18103">
        <ele>393.32</ele>
        <time>2019-03-13T13:29:41Z</time>
      </trkpt>
      <trkpt lat="43.98297" lon="5.18104">
        <ele>394.76</ele>
        <time>2019-03-13T13:29:43Z</time>
      </trkpt>
      <trkpt lat="43.98295" lon="5.18104">
        <ele>390.91</ele>
        <time>2019-03-13T13:29:46Z</time>
      </trkpt>
      <trkpt lat="43.98295" lon="5.18105">
        <ele>395.72</ele>
        <time>2019-03-13T13:29:47Z</time>
      </trkpt>
      <trkpt lat="43.98293" lon="5.18106">
        <ele>395.24</ele>
        <time>2019-03-13T13:29:51Z</time>
      </trkpt>
      <trkpt lat="43.98289" lon="5.18109">
        <ele>398.6</ele>
        <time>2019-03-13T13:29:57Z</time>
      </trkpt>
      <trkpt lat="43.98286" lon="5.18111">
        <ele>400.53</ele>
        <time>2019-03-13T13:30:08Z</time>
      </trkpt>
      <trkpt lat="43.98283" lon="5.18113">
        <ele>404.37</ele>
        <time>2019-03-13T13:30:17Z</time>
      </trkpt>
      <trkpt lat="43.98283" lon="5.18113">
        <ele>400.53</ele>
        <time>2019-03-13T13:30:18Z</time>
      </trkpt>
      <trkpt lat="43.98282" lon="5.18113">
        <ele>403.89</ele>
        <time>2019-03-13T13:30:20Z</time>
      </trkpt>
      <trkpt lat="43.98282" lon="5.18113">
        <ele>400.05</ele>
        <time>2019-03-13T13:30:21Z</time>
      </trkpt>
      <trkpt lat="43.98281" lon="5.18113">
        <ele>402.93</ele>
        <time>2019-03-13T13:30:22Z</time>
      </trkpt>
      <trkpt lat="43.98276" lon="5.18115">
        <ele>406.29</ele>
        <time>2019-03-13T13:30:30Z</time>
      </trkpt>
      <trkpt lat="43.98275" lon="5.18115">
        <ele>402.93</ele>
        <time>2019-03-13T13:30:31Z</time>
      </trkpt>
      <trkpt lat="43.98275" lon="5.18115">
        <ele>405.81</ele>
        <time>2019-03-13T13:30:32Z</time>
      </trkpt>
      <trkpt lat="43.98269" lon="5.18117">
        <ele>409.66</ele>
        <time>2019-03-13T13:30:41Z</time>
      </trkpt>
      <trkpt lat="43.98259" lon="5.18121">
        <ele>407.74</ele>
        <time>2019-03-13T13:30:54Z</time>
      </trkpt>
      <trkpt lat="43.98259" lon="5.18121">
        <ele>412.06</ele>
        <time>2019-03-13T13:30:56Z</time>
      </trkpt>
      <trkpt lat="43.98258" lon="5.18122">
        <ele>407.74</ele>
        <time>2019-03-13T13:30:57Z</time>
      </trkpt>
      <trkpt lat="43.98258" lon="5.18122">
        <ele>412.06</ele>
        <time>2019-03-13T13:31:01Z</time>
      </trkpt>
      <trkpt lat="43.98254" lon="5.18124">
        <ele>411.58</ele>
        <time>2019-03-13T13:31:12Z</time>
      </trkpt>
      <trkpt lat="43.98253" lon="5.18124">
        <ele>414.95</ele>
        <time>2019-03-13T13:31:14Z</time>
      </trkpt>
      <trkpt lat="43.98247" lon="5.18126">
        <ele>414.95</ele>
        <time>2019-03-13T13:31:23Z</time>
      </trkpt>
      <trkpt lat="43.98244" lon="5.18125">
        <ele>417.35</ele>
        <time>2019-03-13T13:31:33Z</time>
      </trkpt>
      <trkpt lat="43.98242" lon="5.18126">
        <ele>421.68</ele>
        <time>2019-03-13T13:31:40Z</time>
      </trkpt>
      <trkpt lat="43.98242" lon="5.18126">
        <ele>417.35</ele>
        <time>2019-03-13T13:31:43Z</time>
      </trkpt>
      <trkpt lat="43.98241" lon="5.18126">
        <ele>421.68</ele>
        <time>2019-03-13T13:31:44Z</time>
      </trkpt>
      <trkpt lat="43.98241" lon="5.18126">
        <ele>418.31</ele>
        <time>2019-03-13T13:31:45Z</time>
      </trkpt>
      <trkpt lat="43.98236" lon="5.18125">
        <ele>423.12</ele>
        <time>2019-03-13T13:31:50Z</time>
      </trkpt>
      <trkpt lat="43.98234" lon="5.18125">
        <ele>422.64</ele>
        <time>2019-03-13T13:31:52Z</time>
      </trkpt>
      <trkpt lat="43.98232" lon="5.18125">
        <ele>419.27</ele>
        <time>2019-03-13T13:31:53Z</time>
      </trkpt>
      <trkpt lat="43.98229" lon="5.18127">
        <ele>425.04</ele>
        <time>2019-03-13T13:32:02Z</time>
      </trkpt>
      <trkpt lat="43.98228" lon="5.18128">
        <ele>421.19</ele>
        <time>2019-03-13T13:32:05Z</time>
      </trkpt>
      <trkpt lat="43.98229" lon="5.18129">
        <ele>425.04</ele>
        <time>2019-03-13T13:32:06Z</time>
      </trkpt>
      <trkpt lat="43.98226" lon="5.18135">
        <ele>426.96</ele>
        <time>2019-03-13T13:32:18Z</time>
      </trkpt>
      <trkpt lat="43.98227" lon="5.18135">
        <ele>430.33</ele>
        <time>2019-03-13T13:32:20Z</time>
      </trkpt>
      <trkpt lat="43.98227" lon="5.18136">
        <ele>426.48</ele>
        <time>2019-03-13T13:32:21Z</time>
      </trkpt>
      <trkpt lat="43.98227" lon="5.18137">
        <ele>429.85</ele>
        <time>2019-03-13T13:32:22Z</time>
      </trkpt>
      <trkpt lat="43.98228" lon="5.18137">
        <ele>427.44</ele>
        <time>2019-03-13T13:32:23Z</time>
      </trkpt>
      <trkpt lat="43.98228" lon="5.18141">
        <ele>431.29</ele>
        <time>2019-03-13T13:32:28Z</time>
      </trkpt>
      <trkpt lat="43.98223" lon="5.18145">
        <ele>430.33</ele>
        <time>2019-03-13T13:32:38Z</time>
      </trkpt>
      <trkpt lat="43.98221" lon="5.18145">
        <ele>433.21</ele>
        <time>2019-03-13T13:32:42Z</time>
      </trkpt>
      <trkpt lat="43.98217" lon="5.18147">
        <ele>435.61</ele>
        <time>2019-03-13T13:32:51Z</time>
      </trkpt>
      <trkpt lat="43.98217" lon="5.18147">
        <ele>431.77</ele>
        <time>2019-03-13T13:32:52Z</time>
      </trkpt>
      <trkpt lat="43.98217" lon="5.18147">
        <ele>433.69</ele>
        <time>2019-03-13T13:32:53Z</time>
      </trkpt>
      <trkpt lat="43.98216" lon="5.18148">
        <ele>437.06</ele>
        <time>2019-03-13T13:33:00Z</time>
      </trkpt>
      <trkpt lat="43.98216" lon="5.18149">
        <ele>433.69</ele>
        <time>2019-03-13T13:33:03Z</time>
      </trkpt>
      <trkpt lat="43.98217" lon="5.18149">
        <ele>437.54</ele>
        <time>2019-03-13T13:33:05Z</time>
      </trkpt>
      <trkpt lat="43.98217" lon="5.18151">
        <ele>435.61</ele>
        <time>2019-03-13T13:33:13Z</time>
      </trkpt>
      <trkpt lat="43.98217" lon="5.18151">
        <ele>438.02</ele>
        <time>2019-03-13T13:33:15Z</time>
      </trkpt>
      <trkpt lat="43.98217" lon="5.18151">
        <ele>438.98</ele>
        <time>2019-03-13T13:33:18Z</time>
      </trkpt>
      <trkpt lat="43.98219" lon="5.18154">
        <ele>441.38</ele>
        <time>2019-03-13T13:33:22Z</time>
      </trkpt>
      <trkpt lat="43.9822" lon="5.18155">
        <ele>438.02</ele>
        <time>2019-03-13T13:33:23Z</time>
      </trkpt>
      <trkpt lat="43.98221" lon="5.18156">
        <ele>441.38</ele>
        <time>2019-03-13T13:33:25Z</time>
      </trkpt>
      <trkpt lat="43.98223" lon="5.18157">
        <ele>437.06</ele>
        <time>2019-03-13T13:33:27Z</time>
      </trkpt>
      <trkpt lat="43.98224" lon="5.18158">
        <ele>441.86</ele>
        <time>2019-03-13T13:33:28Z</time>
      </trkpt>
      <trkpt lat="43.98229" lon="5.18164">
        <ele>440.42</ele>
        <time>2019-03-13T13:33:31Z</time>
      </trkpt>
      <trkpt lat="43.98231" lon="5.18167">
        <ele>442.82</ele>
        <time>2019-03-13T13:33:33Z</time>
      </trkpt>
      <trkpt lat="43.98233" lon="5.18171">
        <ele>439.94</ele>
        <time>2019-03-13T13:33:36Z</time>
      </trkpt>
      <trkpt lat="43.98234" lon="5.18172">
        <ele>443.31</ele>
        <time>2019-03-13T13:33:37Z</time>
      </trkpt>
      <trkpt lat="43.98237" lon="5.18179">
        <ele>441.86</ele>
        <time>2019-03-13T13:33:43Z</time>
      </trkpt>
      <trkpt lat="43.98237" lon="5.1818">
        <ele>445.23</ele>
        <time>2019-03-13T13:33:44Z</time>
      </trkpt>
      <trkpt lat="43.98236" lon="5.18184">
        <ele>443.31</ele>
        <time>2019-03-13T13:33:49Z</time>
      </trkpt>
      <trkpt lat="43.98235" lon="5.18188">
        <ele>445.23</ele>
        <time>2019-03-13T13:33:52Z</time>
      </trkpt>
      <trkpt lat="43.98231" lon="5.182">
        <ele>449.55</ele>
        <time>2019-03-13T13:34:02Z</time>
      </trkpt>
      <trkpt lat="43.98231" lon="5.182">
        <ele>449.07</ele>
        <time>2019-03-13T13:34:03Z</time>
      </trkpt>
      <trkpt lat="43.9823" lon="5.182">
        <ele>446.67</ele>
        <time>2019-03-13T13:34:05Z</time>
      </trkpt>
      <trkpt lat="43.9823" lon="5.18201">
        <ele>446.67</ele>
        <time>2019-03-13T13:34:08Z</time>
      </trkpt>
      <trkpt lat="43.98229" lon="5.18202">
        <ele>454.84</ele>
        <time>2019-03-13T13:34:19Z</time>
      </trkpt>
      <trkpt lat="43.98229" lon="5.18202">
        <ele>451</ele>
        <time>2019-03-13T13:34:22Z</time>
      </trkpt>
      <trkpt lat="43.98229" lon="5.18202">
        <ele>453.88</ele>
        <time>2019-03-13T13:34:23Z</time>
      </trkpt>
      <trkpt lat="43.98227" lon="5.18204">
        <ele>457.72</ele>
        <time>2019-03-13T13:34:33Z</time>
      </trkpt>
      <trkpt lat="43.98226" lon="5.18206">
        <ele>455.8</ele>
        <time>2019-03-13T13:34:39Z</time>
      </trkpt>
      <trkpt lat="43.98225" lon="5.18206">
        <ele>459.17</ele>
        <time>2019-03-13T13:34:40Z</time>
      </trkpt>
      <trkpt lat="43.98225" lon="5.18207">
        <ele>457.24</ele>
        <time>2019-03-13T13:34:43Z</time>
      </trkpt>
      <trkpt lat="43.98224" lon="5.18207">
        <ele>460.61</ele>
        <time>2019-03-13T13:34:45Z</time>
      </trkpt>
      <trkpt lat="43.98223" lon="5.1821">
        <ele>463.97</ele>
        <time>2019-03-13T13:34:55Z</time>
      </trkpt>
      <trkpt lat="43.9822" lon="5.18214">
        <ele>463.97</ele>
        <time>2019-03-13T13:35:10Z</time>
      </trkpt>
      <trkpt lat="43.98218" lon="5.18215">
        <ele>468.3</ele>
        <time>2019-03-13T13:35:12Z</time>
      </trkpt>
      <trkpt lat="43.98218" lon="5.18215">
        <ele>465.42</ele>
        <time>2019-03-13T13:35:13Z</time>
      </trkpt>
      <trkpt lat="43.98217" lon="5.18216">
        <ele>469.26</ele>
        <time>2019-03-13T13:35:17Z</time>
      </trkpt>
      <trkpt lat="43.98217" lon="5.18216">
        <ele>465.9</ele>
        <time>2019-03-13T13:35:18Z</time>
      </trkpt>
      <trkpt lat="43.98217" lon="5.18217">
        <ele>469.26</ele>
        <time>2019-03-13T13:35:20Z</time>
      </trkpt>
      <trkpt lat="43.98217" lon="5.18217">
        <ele>465.9</ele>
        <time>2019-03-13T13:35:21Z</time>
      </trkpt>
      <trkpt lat="43.98216" lon="5.18217">
        <ele>469.74</ele>
        <time>2019-03-13T13:35:22Z</time>
      </trkpt>
      <trkpt lat="43.98212" lon="5.1822">
        <ele>473.11</ele>
        <time>2019-03-13T13:35:32Z</time>
      </trkpt>
      <trkpt lat="43.98204" lon="5.18221">
        <ele>471.18</ele>
        <time>2019-03-13T13:35:39Z</time>
      </trkpt>
      <trkpt lat="43.98196" lon="5.18218">
        <ele>475.51</ele>
        <time>2019-03-13T13:35:50Z</time>
      </trkpt>
      <trkpt lat="43.98195" lon="5.18217">
        <ele>473.11</ele>
        <time>2019-03-13T13:35:51Z</time>
      </trkpt>
      <trkpt lat="43.98188" lon="5.1821">
        <ele>475.51</ele>
        <time>2019-03-13T13:35:58Z</time>
      </trkpt>
      <trkpt lat="43.98185" lon="5.18208">
        <ele>476.47</ele>
        <time>2019-03-13T13:36:00Z</time>
      </trkpt>
      <trkpt lat="43.98182" lon="5.18208">
        <ele>473.11</ele>
        <time>2019-03-13T13:36:02Z</time>
      </trkpt>
      <trkpt lat="43.98181" lon="5.18209">
        <ele>476.47</ele>
        <time>2019-03-13T13:36:03Z</time>
      </trkpt>
      <trkpt lat="43.98171" lon="5.18208">
        <ele>475.03</ele>
        <time>2019-03-13T13:36:13Z</time>
      </trkpt>
      <trkpt lat="43.98168" lon="5.18207">
        <ele>475.99</ele>
        <time>2019-03-13T13:36:16Z</time>
      </trkpt>
      <trkpt lat="43.98163" lon="5.18207">
        <ele>478.87</ele>
        <time>2019-03-13T13:36:22Z</time>
      </trkpt>
      <trkpt lat="43.98155" lon="5.18201">
        <ele>479.35</ele>
        <time>2019-03-13T13:36:32Z</time>
      </trkpt>
      <trkpt lat="43.98152" lon="5.18199">
        <ele>479.84</ele>
        <time>2019-03-13T13:36:35Z</time>
      </trkpt>
      <trkpt lat="43.98148" lon="5.18197">
        <ele>482.72</ele>
        <time>2019-03-13T13:36:40Z</time>
      </trkpt>
      <trkpt lat="43.98148" lon="5.18196">
        <ele>479.35</ele>
        <time>2019-03-13T13:36:41Z</time>
      </trkpt>
      <trkpt lat="43.98145" lon="5.18192">
        <ele>483.2</ele>
        <time>2019-03-13T13:36:45Z</time>
      </trkpt>
      <trkpt lat="43.98141" lon="5.18192">
        <ele>484.16</ele>
        <time>2019-03-13T13:36:51Z</time>
      </trkpt>
      <trkpt lat="43.9814" lon="5.18193">
        <ele>482.72</ele>
        <time>2019-03-13T13:36:52Z</time>
      </trkpt>
      <trkpt lat="43.98139" lon="5.18193">
        <ele>485.6</ele>
        <time>2019-03-13T13:36:56Z</time>
      </trkpt>
      <trkpt lat="43.98139" lon="5.18194">
        <ele>482.24</ele>
        <time>2019-03-13T13:36:57Z</time>
      </trkpt>
      <trkpt lat="43.98136" lon="5.18195">
        <ele>486.56</ele>
        <time>2019-03-13T13:37:02Z</time>
      </trkpt>
      <trkpt lat="43.98136" lon="5.18195">
        <ele>483.68</ele>
        <time>2019-03-13T13:37:03Z</time>
      </trkpt>
      <trkpt lat="43.98123" lon="5.18196">
        <ele>484.16</ele>
        <time>2019-03-13T13:37:15Z</time>
      </trkpt>
      <trkpt lat="43.98122" lon="5.18196">
        <ele>488.01</ele>
        <time>2019-03-13T13:37:16Z</time>
      </trkpt>
      <trkpt lat="43.98119" lon="5.18198">
        <ele>491.37</ele>
        <time>2019-03-13T13:37:23Z</time>
      </trkpt>
      <trkpt lat="43.98118" lon="5.182">
        <ele>494.26</ele>
        <time>2019-03-13T13:37:36Z</time>
      </trkpt>
      <trkpt lat="43.98116" lon="5.18203">
        <ele>495.7</ele>
        <time>2019-03-13T13:37:52Z</time>
      </trkpt>
      <trkpt lat="43.98113" lon="5.18204">
        <ele>493.77</ele>
        <time>2019-03-13T13:38:05Z</time>
      </trkpt>
      <trkpt lat="43.98113" lon="5.18207">
        <ele>497.14</ele>
        <time>2019-03-13T13:38:21Z</time>
      </trkpt>
      <trkpt lat="43.98113" lon="5.18208">
        <ele>494.26</ele>
        <time>2019-03-13T13:38:24Z</time>
      </trkpt>
      <trkpt lat="43.98113" lon="5.18209">
        <ele>497.62</ele>
        <time>2019-03-13T13:38:26Z</time>
      </trkpt>
      <trkpt lat="43.98114" lon="5.18211">
        <ele>496.66</ele>
        <time>2019-03-13T13:38:32Z</time>
      </trkpt>
      <trkpt lat="43.98115" lon="5.18227">
        <ele>500.5</ele>
        <time>2019-03-13T13:38:44Z</time>
      </trkpt>
      <trkpt lat="43.98115" lon="5.18233">
        <ele>501.95</ele>
        <time>2019-03-13T13:38:58Z</time>
      </trkpt>
      <trkpt lat="43.98116" lon="5.18233">
        <ele>503.39</ele>
        <time>2019-03-13T13:39:02Z</time>
      </trkpt>
      <trkpt lat="43.98117" lon="5.1824">
        <ele>503.87</ele>
        <time>2019-03-13T13:39:16Z</time>
      </trkpt>
      <trkpt lat="43.98117" lon="5.18253">
        <ele>507.23</ele>
        <time>2019-03-13T13:39:27Z</time>
      </trkpt>
      <trkpt lat="43.98116" lon="5.18261">
        <ele>508.19</ele>
        <time>2019-03-13T13:39:38Z</time>
      </trkpt>
      <trkpt lat="43.98114" lon="5.18274">
        <ele>511.08</ele>
        <time>2019-03-13T13:39:49Z</time>
      </trkpt>
      <trkpt lat="43.98113" lon="5.18278">
        <ele>512.52</ele>
        <time>2019-03-13T13:39:53Z</time>
      </trkpt>
      <trkpt lat="43.98111" lon="5.18286">
        <ele>514.44</ele>
        <time>2019-03-13T13:40:05Z</time>
      </trkpt>
      <trkpt lat="43.9811" lon="5.18295">
        <ele>516.37</ele>
        <time>2019-03-13T13:40:15Z</time>
      </trkpt>
      <trkpt lat="43.98109" lon="5.18306">
        <ele>516.85</ele>
        <time>2019-03-13T13:40:28Z</time>
      </trkpt>
      <trkpt lat="43.98109" lon="5.18308">
        <ele>520.21</ele>
        <time>2019-03-13T13:40:30Z</time>
      </trkpt>
      <trkpt lat="43.98112" lon="5.18318">
        <ele>516.85</ele>
        <time>2019-03-13T13:40:39Z</time>
      </trkpt>
      <trkpt lat="43.98112" lon="5.18323">
        <ele>521.17</ele>
        <time>2019-03-13T13:40:43Z</time>
      </trkpt>
      <trkpt lat="43.98112" lon="5.18324">
        <ele>517.81</ele>
        <time>2019-03-13T13:40:44Z</time>
      </trkpt>
      <trkpt lat="43.9811" lon="5.1833">
        <ele>521.17</ele>
        <time>2019-03-13T13:40:48Z</time>
      </trkpt>
      <trkpt lat="43.9811" lon="5.1833">
        <ele>517.81</ele>
        <time>2019-03-13T13:40:49Z</time>
      </trkpt>
      <trkpt lat="43.9811" lon="5.18333">
        <ele>522.13</ele>
        <time>2019-03-13T13:40:55Z</time>
      </trkpt>
      <trkpt lat="43.98109" lon="5.18337">
        <ele>517.33</ele>
        <time>2019-03-13T13:40:58Z</time>
      </trkpt>
      <trkpt lat="43.98109" lon="5.18338">
        <ele>521.17</ele>
        <time>2019-03-13T13:40:59Z</time>
      </trkpt>
      <trkpt lat="43.98108" lon="5.18344">
        <ele>521.17</ele>
        <time>2019-03-13T13:41:03Z</time>
      </trkpt>
      <trkpt lat="43.98108" lon="5.18356">
        <ele>522.13</ele>
        <time>2019-03-13T13:41:11Z</time>
      </trkpt>
      <trkpt lat="43.9811" lon="5.18358">
        <ele>524.54</ele>
        <time>2019-03-13T13:41:13Z</time>
      </trkpt>
      <trkpt lat="43.98113" lon="5.18371">
        <ele>524.06</ele>
        <time>2019-03-13T13:41:25Z</time>
      </trkpt>
      <trkpt lat="43.98109" lon="5.18385">
        <ele>525.98</ele>
        <time>2019-03-13T13:41:38Z</time>
      </trkpt>
      <trkpt lat="43.98109" lon="5.18386">
        <ele>522.61</ele>
        <time>2019-03-13T13:41:39Z</time>
      </trkpt>
      <trkpt lat="43.98109" lon="5.18389">
        <ele>523.58</ele>
        <time>2019-03-13T13:41:42Z</time>
      </trkpt>
      <trkpt lat="43.98107" lon="5.18393">
        <ele>522.61</ele>
        <time>2019-03-13T13:41:45Z</time>
      </trkpt>
      <trkpt lat="43.981" lon="5.18407">
        <ele>523.58</ele>
        <time>2019-03-13T13:41:56Z</time>
      </trkpt>
      <trkpt lat="43.98094" lon="5.18414">
        <ele>525.5</ele>
        <time>2019-03-13T13:42:09Z</time>
      </trkpt>
      <trkpt lat="43.98093" lon="5.18415">
        <ele>526.94</ele>
        <time>2019-03-13T13:42:26Z</time>
      </trkpt>
      <trkpt lat="43.98093" lon="5.18415">
        <ele>523.09</ele>
        <time>2019-03-13T13:42:29Z</time>
      </trkpt>
      <trkpt lat="43.98093" lon="5.18415">
        <ele>526.94</ele>
        <time>2019-03-13T13:42:30Z</time>
      </trkpt>
      <trkpt lat="43.98094" lon="5.18415">
        <ele>525.5</ele>
        <time>2019-03-13T13:42:51Z</time>
      </trkpt>
      <trkpt lat="43.98093" lon="5.18417">
        <ele>525.5</ele>
        <time>2019-03-13T13:43:03Z</time>
      </trkpt>
      <trkpt lat="43.98097" lon="5.18416">
        <ele>526.46</ele>
        <time>2019-03-13T13:43:17Z</time>
      </trkpt>
      <trkpt lat="43.98094" lon="5.18415">
        <ele>525.5</ele>
        <time>2019-03-13T13:43:27Z</time>
      </trkpt>
      <trkpt lat="43.98093" lon="5.18415">
        <ele>526.46</ele>
        <time>2019-03-13T13:43:48Z</time>
      </trkpt>
      <trkpt lat="43.98096" lon="5.18416">
        <ele>525.98</ele>
        <time>2019-03-13T13:44:04Z</time>
      </trkpt>
      <trkpt lat="43.98094" lon="5.18415">
        <ele>526.94</ele>
        <time>2019-03-13T13:44:28Z</time>
      </trkpt>
      <trkpt lat="43.98094" lon="5.18415">
        <ele>526.94</ele>
        <time>2019-03-13T13:44:48Z</time>
      </trkpt>
      <trkpt lat="43.98088" lon="5.1841">
        <ele>526.46</ele>
        <time>2019-03-13T13:45:01Z</time>
      </trkpt>
      <trkpt lat="43.98088" lon="5.18409">
        <ele>526.46</ele>
        <time>2019-03-13T13:45:31Z</time>
      </trkpt>
      <trkpt lat="43.98088" lon="5.18408">
        <ele>526.46</ele>
        <time>2019-03-13T13:46:05Z</time>
      </trkpt>
      <trkpt lat="43.98089" lon="5.18411">
        <ele>525.5</ele>
        <time>2019-03-13T13:46:19Z</time>
      </trkpt>
      <trkpt lat="43.98093" lon="5.18415">
        <ele>526.94</ele>
        <time>2019-03-13T13:46:33Z</time>
      </trkpt>
      <trkpt lat="43.98095" lon="5.18415">
        <ele>526.46</ele>
        <time>2019-03-13T13:47:01Z</time>
      </trkpt>
      <trkpt lat="43.98095" lon="5.18415">
        <ele>527.9</ele>
        <time>2019-03-13T13:47:08Z</time>
      </trkpt>
      <trkpt lat="43.98095" lon="5.18414">
        <ele>527.9</ele>
        <time>2019-03-13T13:47:29Z</time>
      </trkpt>
      <trkpt lat="43.98095" lon="5.18415">
        <ele>528.38</ele>
        <time>2019-03-13T13:47:58Z</time>
      </trkpt>
      <trkpt lat="43.98096" lon="5.18415">
        <ele>527.42</ele>
        <time>2019-03-13T13:48:35Z</time>
      </trkpt>
      <trkpt lat="43.98096" lon="5.18415">
        <ele>527.42</ele>
        <time>2019-03-13T13:49:08Z</time>
      </trkpt>
      <trkpt lat="43.98096" lon="5.18416">
        <ele>526.94</ele>
        <time>2019-03-13T13:49:35Z</time>
      </trkpt>
      <trkpt lat="43.98096" lon="5.18416">
        <ele>526.46</ele>
        <time>2019-03-13T13:50:02Z</time>
      </trkpt>
      <trkpt lat="43.98096" lon="5.18416">
        <ele>529.82</ele>
        <time>2019-03-13T13:50:26Z</time>
      </trkpt>
      <trkpt lat="43.98096" lon="5.18416">
        <ele>526.46</ele>
        <time>2019-03-13T13:50:28Z</time>
      </trkpt>
      <trkpt lat="43.98096" lon="5.18416">
        <ele>531.75</ele>
        <time>2019-03-13T13:50:30Z</time>
      </trkpt>
      <trkpt lat="43.98096" lon="5.18416">
        <ele>528.38</ele>
        <time>2019-03-13T13:50:31Z</time>
      </trkpt>
      <trkpt lat="43.98096" lon="5.18417">
        <ele>527.42</ele>
        <time>2019-03-13T13:50:45Z</time>
      </trkpt>
      <trkpt lat="43.98096" lon="5.18417">
        <ele>527.42</ele>
        <time>2019-03-13T13:50:59Z</time>
      </trkpt>
      <trkpt lat="43.98096" lon="5.18417">
        <ele>528.38</ele>
        <time>2019-03-13T13:51:17Z</time>
      </trkpt>
      <trkpt lat="43.98096" lon="5.18416">
        <ele>527.42</ele>
        <time>2019-03-13T13:51:28Z</time>
      </trkpt>
      <trkpt lat="43.98096" lon="5.18416">
        <ele>527.9</ele>
        <time>2019-03-13T13:51:33Z</time>
      </trkpt>
      <trkpt lat="43.98095" lon="5.18417">
        <ele>526.94</ele>
        <time>2019-03-13T13:51:48Z</time>
      </trkpt>
      <trkpt lat="43.98096" lon="5.18417">
        <ele>527.42</ele>
        <time>2019-03-13T13:52:11Z</time>
      </trkpt>
      <trkpt lat="43.98095" lon="5.18418">
        <ele>528.38</ele>
        <time>2019-03-13T13:52:33Z</time>
      </trkpt>
      <trkpt lat="43.98095" lon="5.18418">
        <ele>519.73</ele>
        <time>2019-03-13T13:52:42Z</time>
      </trkpt>
      <trkpt lat="43.98095" lon="5.18418">
        <ele>528.86</ele>
        <time>2019-03-13T13:52:43Z</time>
      </trkpt>
      <trkpt lat="43.98095" lon="5.18418">
        <ele>527.9</ele>
        <time>2019-03-13T13:52:44Z</time>
      </trkpt>
      <trkpt lat="43.98095" lon="5.18418">
        <ele>535.59</ele>
        <time>2019-03-13T13:52:48Z</time>
      </trkpt>
      <trkpt lat="43.98095" lon="5.18418">
        <ele>531.75</ele>
        <time>2019-03-13T13:52:49Z</time>
      </trkpt>
      <trkpt lat="43.98095" lon="5.18418">
        <ele>538.48</ele>
        <time>2019-03-13T13:52:50Z</time>
      </trkpt>
      <trkpt lat="43.98095" lon="5.18418">
        <ele>508.67</ele>
        <time>2019-03-13T13:52:51Z</time>
      </trkpt>
      <trkpt lat="43.98095" lon="5.18418">
        <ele>532.23</ele>
        <time>2019-03-13T13:52:52Z</time>
      </trkpt>
      <trkpt lat="43.98095" lon="5.18418">
        <ele>537.99</ele>
        <time>2019-03-13T13:52:53Z</time>
      </trkpt>
      <trkpt lat="43.98095" lon="5.18418">
        <ele>515.88</ele>
        <time>2019-03-13T13:52:54Z</time>
      </trkpt>
      <trkpt lat="43.98095" lon="5.18418">
        <ele>523.09</ele>
        <time>2019-03-13T13:52:55Z</time>
      </trkpt>
      <trkpt lat="43.98095" lon="5.18418">
        <ele>537.51</ele>
        <time>2019-03-13T13:52:56Z</time>
      </trkpt>
      <trkpt lat="43.98095" lon="5.18418">
        <ele>519.25</ele>
        <time>2019-03-13T13:52:57Z</time>
      </trkpt>
      <trkpt lat="43.98095" lon="5.18418">
        <ele>511.08</ele>
        <time>2019-03-13T13:52:58Z</time>
      </trkpt>
      <trkpt lat="43.98095" lon="5.18418">
        <ele>533.19</ele>
        <time>2019-03-13T13:52:59Z</time>
      </trkpt>
      <trkpt lat="43.98095" lon="5.18418">
        <ele>518.77</ele>
        <time>2019-03-13T13:53:00Z</time>
      </trkpt>
      <trkpt lat="43.98095" lon="5.18418">
        <ele>532.23</ele>
        <time>2019-03-13T13:53:01Z</time>
      </trkpt>
      <trkpt lat="43.98095" lon="5.18418">
        <ele>520.21</ele>
        <time>2019-03-13T13:53:02Z</time>
      </trkpt>
      <trkpt lat="43.98095" lon="5.18418">
        <ele>529.34</ele>
        <time>2019-03-13T13:53:03Z</time>
      </trkpt>
      <trkpt lat="43.98095" lon="5.18418">
        <ele>519.73</ele>
        <time>2019-03-13T13:53:04Z</time>
      </trkpt>
      <trkpt lat="43.98095" lon="5.18418">
        <ele>529.82</ele>
        <time>2019-03-13T13:53:05Z</time>
      </trkpt>
      <trkpt lat="43.98095" lon="5.18418">
        <ele>525.5</ele>
        <time>2019-03-13T13:53:08Z</time>
      </trkpt>
      <trkpt lat="43.98095" lon="5.18418">
        <ele>526.46</ele>
        <time>2019-03-13T13:53:09Z</time>
      </trkpt>
      <trkpt lat="43.98095" lon="5.18418">
        <ele>522.13</ele>
        <time>2019-03-13T13:53:10Z</time>
      </trkpt>
      <trkpt lat="43.98095" lon="5.18418">
        <ele>524.06</ele>
        <time>2019-03-13T13:53:11Z</time>
      </trkpt>
      <trkpt lat="43.98095" lon="5.18418">
        <ele>527.9</ele>
        <time>2019-03-13T13:53:12Z</time>
      </trkpt>
      <trkpt lat="43.98095" lon="5.18418">
        <ele>519.73</ele>
        <time>2019-03-13T13:53:13Z</time>
      </trkpt>
      <trkpt lat="43.98095" lon="5.18418">
        <ele>536.07</ele>
        <time>2019-03-13T13:53:14Z</time>
      </trkpt>
      <trkpt lat="43.98095" lon="5.18418">
        <ele>532.23</ele>
        <time>2019-03-13T13:53:15Z</time>
      </trkpt>
      <trkpt lat="43.98095" lon="5.18418">
        <ele>527.42</ele>
        <time>2019-03-13T13:53:16Z</time>
      </trkpt>
      <trkpt lat="43.98095" lon="5.18418">
        <ele>533.19</ele>
        <time>2019-03-13T13:53:18Z</time>
      </trkpt>
      <trkpt lat="43.98095" lon="5.18418">
        <ele>528.86</ele>
        <time>2019-03-13T13:53:19Z</time>
      </trkpt>
      <trkpt lat="43.98095" lon="5.18418">
        <ele>528.86</ele>
        <time>2019-03-13T13:53:26Z</time>
      </trkpt>
      <trkpt lat="43.98095" lon="5.18417">
        <ele>528.38</ele>
        <time>2019-03-13T13:53:41Z</time>
      </trkpt>
      <trkpt lat="43.98095" lon="5.18417">
        <ele>523.58</ele>
        <time>2019-03-13T13:53:53Z</time>
      </trkpt>
      <trkpt lat="43.98095" lon="5.18417">
        <ele>528.38</ele>
        <time>2019-03-13T13:53:54Z</time>
      </trkpt>
      <trkpt lat="43.98095" lon="5.18417">
        <ele>525.02</ele>
        <time>2019-03-13T13:54:04Z</time>
      </trkpt>
      <trkpt lat="43.98095" lon="5.18417">
        <ele>527.9</ele>
        <time>2019-03-13T13:54:05Z</time>
      </trkpt>
      <trkpt lat="43.98095" lon="5.18417">
        <ele>524.54</ele>
        <time>2019-03-13T13:54:09Z</time>
      </trkpt>
      <trkpt lat="43.98095" lon="5.18417">
        <ele>527.42</ele>
        <time>2019-03-13T13:54:11Z</time>
      </trkpt>
      <trkpt lat="43.98095" lon="5.18417">
        <ele>514.92</ele>
        <time>2019-03-13T13:54:12Z</time>
      </trkpt>
      <trkpt lat="43.98095" lon="5.18417">
        <ele>533.67</ele>
        <time>2019-03-13T13:54:13Z</time>
      </trkpt>
      <trkpt lat="43.98095" lon="5.18417">
        <ele>524.06</ele>
        <time>2019-03-13T13:54:14Z</time>
      </trkpt>
      <trkpt lat="43.98095" lon="5.18417">
        <ele>528.86</ele>
        <time>2019-03-13T13:54:15Z</time>
      </trkpt>
      <trkpt lat="43.98095" lon="5.18417">
        <ele>528.38</ele>
        <time>2019-03-13T13:54:25Z</time>
      </trkpt>
      <trkpt lat="43.98095" lon="5.18417">
        <ele>529.34</ele>
        <time>2019-03-13T13:54:46Z</time>
      </trkpt>
      <trkpt lat="43.98095" lon="5.18417">
        <ele>526.94</ele>
        <time>2019-03-13T13:54:48Z</time>
      </trkpt>
      <trkpt lat="43.98095" lon="5.18417">
        <ele>519.73</ele>
        <time>2019-03-13T13:54:53Z</time>
      </trkpt>
      <trkpt lat="43.98095" lon="5.18417">
        <ele>531.27</ele>
        <time>2019-03-13T13:54:54Z</time>
      </trkpt>
      <trkpt lat="43.98095" lon="5.18417">
        <ele>527.9</ele>
        <time>2019-03-13T13:54:57Z</time>
      </trkpt>
      <trkpt lat="43.98095" lon="5.18417">
        <ele>522.61</ele>
        <time>2019-03-13T13:55:00Z</time>
      </trkpt>
      <trkpt lat="43.98095" lon="5.18417">
        <ele>532.23</ele>
        <time>2019-03-13T13:55:01Z</time>
      </trkpt>
      <trkpt lat="43.98095" lon="5.18417">
        <ele>528.86</ele>
        <time>2019-03-13T13:55:02Z</time>
      </trkpt>
      <trkpt lat="43.98095" lon="5.18417">
        <ele>527.42</ele>
        <time>2019-03-13T13:55:04Z</time>
      </trkpt>
      <trkpt lat="43.98096" lon="5.18417">
        <ele>530.79</ele>
        <time>2019-03-13T13:55:15Z</time>
      </trkpt>
      <trkpt lat="43.98096" lon="5.18417">
        <ele>526.94</ele>
        <time>2019-03-13T13:55:18Z</time>
      </trkpt>
      <trkpt lat="43.98096" lon="5.18417">
        <ele>526.94</ele>
        <time>2019-03-13T13:55:45Z</time>
      </trkpt>
      <trkpt lat="43.98096" lon="5.18417">
        <ele>525.98</ele>
        <time>2019-03-13T13:56:14Z</time>
      </trkpt>
      <trkpt lat="43.98096" lon="5.18417">
        <ele>528.38</ele>
        <time>2019-03-13T13:56:18Z</time>
      </trkpt>
      <trkpt lat="43.98096" lon="5.18418">
        <ele>528.86</ele>
        <time>2019-03-13T13:56:32Z</time>
      </trkpt>
      <trkpt lat="43.98096" lon="5.18418">
        <ele>526.46</ele>
        <time>2019-03-13T13:57:01Z</time>
      </trkpt>
      <trkpt lat="43.98096" lon="5.18418">
        <ele>526.94</ele>
        <time>2019-03-13T13:57:31Z</time>
      </trkpt>
      <trkpt lat="43.98096" lon="5.18418">
        <ele>527.42</ele>
        <time>2019-03-13T13:57:54Z</time>
      </trkpt>
      <trkpt lat="43.98096" lon="5.18418">
        <ele>526.94</ele>
        <time>2019-03-13T13:58:25Z</time>
      </trkpt>
      <trkpt lat="43.98096" lon="5.18418">
        <ele>527.42</ele>
        <time>2019-03-13T13:58:45Z</time>
      </trkpt>
      <trkpt lat="43.98096" lon="5.18418">
        <ele>526.94</ele>
        <time>2019-03-13T13:59:13Z</time>
      </trkpt>
      <trkpt lat="43.98097" lon="5.18419">
        <ele>525.98</ele>
        <time>2019-03-13T13:59:42Z</time>
      </trkpt>
      <trkpt lat="43.98097" lon="5.18419">
        <ele>525.98</ele>
        <time>2019-03-13T14:00:12Z</time>
      </trkpt>
      <trkpt lat="43.98096" lon="5.18419">
        <ele>526.94</ele>
        <time>2019-03-13T14:00:41Z</time>
      </trkpt>
      <trkpt lat="43.98096" lon="5.18418">
        <ele>527.42</ele>
        <time>2019-03-13T14:01:10Z</time>
      </trkpt>
      <trkpt lat="43.98096" lon="5.18418">
        <ele>526.94</ele>
        <time>2019-03-13T14:01:38Z</time>
      </trkpt>
      <trkpt lat="43.98096" lon="5.18418">
        <ele>526.94</ele>
        <time>2019-03-13T14:02:05Z</time>
      </trkpt>
      <trkpt lat="43.98095" lon="5.18415">
        <ele>526.94</ele>
        <time>2019-03-13T14:02:20Z</time>
      </trkpt>
      <trkpt lat="43.98095" lon="5.18415">
        <ele>506.27</ele>
        <time>2019-03-13T14:02:24Z</time>
      </trkpt>
      <trkpt lat="43.98095" lon="5.18415">
        <ele>529.82</ele>
        <time>2019-03-13T14:02:25Z</time>
      </trkpt>
      <trkpt lat="43.98095" lon="5.18415">
        <ele>524.54</ele>
        <time>2019-03-13T14:02:29Z</time>
      </trkpt>
      <trkpt lat="43.98095" lon="5.18415">
        <ele>528.38</ele>
        <time>2019-03-13T14:02:30Z</time>
      </trkpt>
      <trkpt lat="43.98095" lon="5.18416">
        <ele>526.94</ele>
        <time>2019-03-13T14:02:50Z</time>
      </trkpt>
      <trkpt lat="43.98095" lon="5.18416">
        <ele>517.33</ele>
        <time>2019-03-13T14:02:56Z</time>
      </trkpt>
      <trkpt lat="43.98094" lon="5.18416">
        <ele>523.58</ele>
        <time>2019-03-13T14:02:57Z</time>
      </trkpt>
      <trkpt lat="43.98094" lon="5.18417">
        <ele>532.23</ele>
        <time>2019-03-13T14:02:58Z</time>
      </trkpt>
      <trkpt lat="43.98094" lon="5.18417">
        <ele>527.42</ele>
        <time>2019-03-13T14:02:59Z</time>
      </trkpt>
      <trkpt lat="43.98094" lon="5.18418">
        <ele>526.94</ele>
        <time>2019-03-13T14:03:18Z</time>
      </trkpt>
      <trkpt lat="43.98092" lon="5.18419">
        <ele>527.42</ele>
        <time>2019-03-13T14:03:52Z</time>
      </trkpt>
      <trkpt lat="43.98093" lon="5.18419">
        <ele>527.9</ele>
        <time>2019-03-13T14:04:15Z</time>
      </trkpt>
      <trkpt lat="43.98093" lon="5.18419">
        <ele>527.42</ele>
        <time>2019-03-13T14:04:44Z</time>
      </trkpt>
      <trkpt lat="43.98093" lon="5.18419">
        <ele>527.42</ele>
        <time>2019-03-13T14:05:10Z</time>
      </trkpt>
      <trkpt lat="43.98093" lon="5.18419">
        <ele>526.46</ele>
        <time>2019-03-13T14:05:12Z</time>
      </trkpt>
      <trkpt lat="43.98091" lon="5.18425">
        <ele>525.98</ele>
        <time>2019-03-13T14:05:29Z</time>
      </trkpt>
      <trkpt lat="43.98083" lon="5.18434">
        <ele>529.34</ele>
        <time>2019-03-13T14:05:43Z</time>
      </trkpt>
      <trkpt lat="43.98082" lon="5.18435">
        <ele>528.86</ele>
        <time>2019-03-13T14:05:44Z</time>
      </trkpt>
      <trkpt lat="43.9807" lon="5.18449">
        <ele>525.5</ele>
        <time>2019-03-13T14:06:02Z</time>
      </trkpt>
      <trkpt lat="43.98069" lon="5.1845">
        <ele>528.38</ele>
        <time>2019-03-13T14:06:03Z</time>
      </trkpt>
      <trkpt lat="43.98068" lon="5.18451">
        <ele>529.34</ele>
        <time>2019-03-13T14:06:05Z</time>
      </trkpt>
      <trkpt lat="43.9806" lon="5.18465">
        <ele>529.82</ele>
        <time>2019-03-13T14:06:18Z</time>
      </trkpt>
      <trkpt lat="43.98052" lon="5.18471">
        <ele>529.34</ele>
        <time>2019-03-13T14:06:28Z</time>
      </trkpt>
      <trkpt lat="43.9804" lon="5.18481">
        <ele>530.3</ele>
        <time>2019-03-13T14:06:43Z</time>
      </trkpt>
      <trkpt lat="43.98031" lon="5.18493">
        <ele>531.27</ele>
        <time>2019-03-13T14:06:53Z</time>
      </trkpt>
      <trkpt lat="43.98026" lon="5.18497">
        <ele>530.3</ele>
        <time>2019-03-13T14:06:59Z</time>
      </trkpt>
      <trkpt lat="43.9801" lon="5.18505">
        <ele>529.82</ele>
        <time>2019-03-13T14:07:14Z</time>
      </trkpt>
      <trkpt lat="43.98007" lon="5.18507">
        <ele>531.75</ele>
        <time>2019-03-13T14:07:17Z</time>
      </trkpt>
      <trkpt lat="43.97998" lon="5.18517">
        <ele>533.19</ele>
        <time>2019-03-13T14:07:30Z</time>
      </trkpt>
      <trkpt lat="43.97987" lon="5.18526">
        <ele>533.67</ele>
        <time>2019-03-13T14:07:43Z</time>
      </trkpt>
      <trkpt lat="43.97976" lon="5.18537">
        <ele>535.11</ele>
        <time>2019-03-13T14:07:54Z</time>
      </trkpt>
      <trkpt lat="43.9797" lon="5.18548">
        <ele>532.71</ele>
        <time>2019-03-13T14:08:05Z</time>
      </trkpt>
      <trkpt lat="43.9796" lon="5.18566">
        <ele>531.75</ele>
        <time>2019-03-13T14:08:19Z</time>
      </trkpt>
      <trkpt lat="43.97952" lon="5.18586">
        <ele>533.19</ele>
        <time>2019-03-13T14:08:32Z</time>
      </trkpt>
      <trkpt lat="43.97944" lon="5.18599">
        <ele>532.23</ele>
        <time>2019-03-13T14:08:44Z</time>
      </trkpt>
      <trkpt lat="43.97939" lon="5.18604">
        <ele>533.19</ele>
        <time>2019-03-13T14:08:51Z</time>
      </trkpt>
      <trkpt lat="43.97931" lon="5.18618">
        <ele>532.23</ele>
        <time>2019-03-13T14:09:01Z</time>
      </trkpt>
      <trkpt lat="43.97919" lon="5.18636">
        <ele>530.79</ele>
        <time>2019-03-13T14:09:16Z</time>
      </trkpt>
      <trkpt lat="43.97908" lon="5.18651">
        <ele>531.27</ele>
        <time>2019-03-13T14:09:29Z</time>
      </trkpt>
      <trkpt lat="43.97905" lon="5.18655">
        <ele>532.23</ele>
        <time>2019-03-13T14:09:31Z</time>
      </trkpt>
      <trkpt lat="43.97901" lon="5.1866">
        <ele>531.27</ele>
        <time>2019-03-13T14:09:36Z</time>
      </trkpt>
      <trkpt lat="43.97898" lon="5.18668">
        <ele>530.79</ele>
        <time>2019-03-13T14:09:41Z</time>
      </trkpt>
      <trkpt lat="43.97885" lon="5.18678">
        <ele>530.79</ele>
        <time>2019-03-13T14:09:55Z</time>
      </trkpt>
      <trkpt lat="43.97874" lon="5.18691">
        <ele>531.75</ele>
        <time>2019-03-13T14:10:09Z</time>
      </trkpt>
      <trkpt lat="43.97858" lon="5.18704">
        <ele>532.71</ele>
        <time>2019-03-13T14:10:24Z</time>
      </trkpt>
      <trkpt lat="43.97856" lon="5.18705">
        <ele>532.23</ele>
        <time>2019-03-13T14:10:26Z</time>
      </trkpt>
      <trkpt lat="43.97847" lon="5.18714">
        <ele>531.27</ele>
        <time>2019-03-13T14:10:37Z</time>
      </trkpt>
      <trkpt lat="43.97832" lon="5.18724">
        <ele>531.75</ele>
        <time>2019-03-13T14:10:51Z</time>
      </trkpt>
      <trkpt lat="43.97824" lon="5.18732">
        <ele>533.19</ele>
        <time>2019-03-13T14:11:01Z</time>
      </trkpt>
      <trkpt lat="43.97812" lon="5.18743">
        <ele>531.75</ele>
        <time>2019-03-13T14:11:14Z</time>
      </trkpt>
      <trkpt lat="43.97809" lon="5.18748">
        <ele>531.27</ele>
        <time>2019-03-13T14:11:17Z</time>
      </trkpt>
      <trkpt lat="43.97807" lon="5.18751">
        <ele>532.23</ele>
        <time>2019-03-13T14:11:20Z</time>
      </trkpt>
      <trkpt lat="43.97795" lon="5.1877">
        <ele>535.11</ele>
        <time>2019-03-13T14:11:35Z</time>
      </trkpt>
      <trkpt lat="43.97786" lon="5.18788">
        <ele>533.67</ele>
        <time>2019-03-13T14:11:49Z</time>
      </trkpt>
      <trkpt lat="43.97779" lon="5.18804">
        <ele>533.67</ele>
        <time>2019-03-13T14:12:04Z</time>
      </trkpt>
      <trkpt lat="43.97778" lon="5.18805">
        <ele>534.15</ele>
        <time>2019-03-13T14:12:27Z</time>
      </trkpt>
      <trkpt lat="43.9778" lon="5.18806">
        <ele>533.67</ele>
        <time>2019-03-13T14:12:50Z</time>
      </trkpt>
      <trkpt lat="43.97785" lon="5.18807">
        <ele>534.63</ele>
        <time>2019-03-13T14:13:12Z</time>
      </trkpt>
      <trkpt lat="43.97794" lon="5.1881">
        <ele>534.15</ele>
        <time>2019-03-13T14:13:28Z</time>
      </trkpt>
      <trkpt lat="43.97804" lon="5.18826">
        <ele>533.67</ele>
        <time>2019-03-13T14:13:45Z</time>
      </trkpt>
      <trkpt lat="43.97807" lon="5.18834">
        <ele>533.67</ele>
        <time>2019-03-13T14:13:51Z</time>
      </trkpt>
      <trkpt lat="43.97812" lon="5.18844">
        <ele>533.19</ele>
        <time>2019-03-13T14:14:03Z</time>
      </trkpt>
      <trkpt lat="43.97812" lon="5.18844">
        <ele>531.75</ele>
        <time>2019-03-13T14:14:04Z</time>
      </trkpt>
      <trkpt lat="43.97826" lon="5.18866">
        <ele>534.15</ele>
        <time>2019-03-13T14:14:20Z</time>
      </trkpt>
      <trkpt lat="43.97831" lon="5.1888">
        <ele>532.23</ele>
        <time>2019-03-13T14:14:36Z</time>
      </trkpt>
      <trkpt lat="43.97831" lon="5.1888">
        <ele>533.19</ele>
        <time>2019-03-13T14:14:37Z</time>
      </trkpt>
      <trkpt lat="43.97832" lon="5.18886">
        <ele>532.23</ele>
        <time>2019-03-13T14:14:41Z</time>
      </trkpt>
      <trkpt lat="43.9784" lon="5.18903">
        <ele>532.23</ele>
        <time>2019-03-13T14:14:54Z</time>
      </trkpt>
      <trkpt lat="43.97848" lon="5.18917">
        <ele>531.27</ele>
        <time>2019-03-13T14:15:07Z</time>
      </trkpt>
      <trkpt lat="43.97855" lon="5.18933">
        <ele>532.23</ele>
        <time>2019-03-13T14:15:22Z</time>
      </trkpt>
      <trkpt lat="43.97857" lon="5.18948">
        <ele>531.75</ele>
        <time>2019-03-13T14:15:36Z</time>
      </trkpt>
      <trkpt lat="43.97863" lon="5.18958">
        <ele>530.3</ele>
        <time>2019-03-13T14:15:52Z</time>
      </trkpt>
      <trkpt lat="43.97867" lon="5.18965">
        <ele>529.82</ele>
        <time>2019-03-13T14:16:02Z</time>
      </trkpt>
      <trkpt lat="43.97871" lon="5.18982">
        <ele>528.86</ele>
        <time>2019-03-13T14:16:21Z</time>
      </trkpt>
      <trkpt lat="43.97883" lon="5.18996">
        <ele>528.38</ele>
        <time>2019-03-13T14:16:37Z</time>
      </trkpt>
      <trkpt lat="43.97891" lon="5.19008">
        <ele>526.94</ele>
        <time>2019-03-13T14:16:53Z</time>
      </trkpt>
      <trkpt lat="43.97895" lon="5.19016">
        <ele>528.38</ele>
        <time>2019-03-13T14:17:03Z</time>
      </trkpt>
      <trkpt lat="43.9791" lon="5.19034">
        <ele>525.98</ele>
        <time>2019-03-13T14:17:18Z</time>
      </trkpt>
      <trkpt lat="43.97927" lon="5.1906">
        <ele>524.06</ele>
        <time>2019-03-13T14:17:34Z</time>
      </trkpt>
      <trkpt lat="43.97947" lon="5.19088">
        <ele>525.02</ele>
        <time>2019-03-13T14:17:49Z</time>
      </trkpt>
      <trkpt lat="43.97952" lon="5.19094">
        <ele>525.02</ele>
        <time>2019-03-13T14:17:53Z</time>
      </trkpt>
      <trkpt lat="43.97967" lon="5.19107">
        <ele>522.61</ele>
        <time>2019-03-13T14:18:07Z</time>
      </trkpt>
      <trkpt lat="43.97973" lon="5.1911">
        <ele>521.65</ele>
        <time>2019-03-13T14:18:12Z</time>
      </trkpt>
      <trkpt lat="43.97993" lon="5.19125">
        <ele>520.21</ele>
        <time>2019-03-13T14:18:27Z</time>
      </trkpt>
      <trkpt lat="43.98003" lon="5.19149">
        <ele>517.81</ele>
        <time>2019-03-13T14:18:44Z</time>
      </trkpt>
      <trkpt lat="43.98003" lon="5.19162">
        <ele>516.37</ele>
        <time>2019-03-13T14:18:55Z</time>
      </trkpt>
      <trkpt lat="43.98001" lon="5.19176">
        <ele>514.92</ele>
        <time>2019-03-13T14:19:08Z</time>
      </trkpt>
      <trkpt lat="43.98001" lon="5.19194">
        <ele>513.48</ele>
        <time>2019-03-13T14:19:19Z</time>
      </trkpt>
      <trkpt lat="43.98" lon="5.19196">
        <ele>512.52</ele>
        <time>2019-03-13T14:19:21Z</time>
      </trkpt>
      <trkpt lat="43.98" lon="5.19212">
        <ele>511.08</ele>
        <time>2019-03-13T14:19:32Z</time>
      </trkpt>
      <trkpt lat="43.97998" lon="5.19227">
        <ele>510.12</ele>
        <time>2019-03-13T14:19:42Z</time>
      </trkpt>
      <trkpt lat="43.97996" lon="5.19237">
        <ele>508.67</ele>
        <time>2019-03-13T14:19:50Z</time>
      </trkpt>
      <trkpt lat="43.97996" lon="5.19243">
        <ele>507.23</ele>
        <time>2019-03-13T14:19:54Z</time>
      </trkpt>
      <trkpt lat="43.97996" lon="5.1925">
        <ele>505.31</ele>
        <time>2019-03-13T14:20:00Z</time>
      </trkpt>
      <trkpt lat="43.97987" lon="5.19267">
        <ele>505.79</ele>
        <time>2019-03-13T14:20:12Z</time>
      </trkpt>
      <trkpt lat="43.97982" lon="5.19271">
        <ele>505.31</ele>
        <time>2019-03-13T14:20:18Z</time>
      </trkpt>
      <trkpt lat="43.97978" lon="5.19272">
        <ele>503.87</ele>
        <time>2019-03-13T14:20:22Z</time>
      </trkpt>
      <trkpt lat="43.97971" lon="5.19274">
        <ele>502.91</ele>
        <time>2019-03-13T14:20:31Z</time>
      </trkpt>
      <trkpt lat="43.97958" lon="5.19274">
        <ele>500.98</ele>
        <time>2019-03-13T14:20:42Z</time>
      </trkpt>
      <trkpt lat="43.97949" lon="5.19277">
        <ele>500.02</ele>
        <time>2019-03-13T14:20:54Z</time>
      </trkpt>
      <trkpt lat="43.97948" lon="5.19289">
        <ele>496.66</ele>
        <time>2019-03-13T14:21:05Z</time>
      </trkpt>
      <trkpt lat="43.97955" lon="5.193">
        <ele>493.77</ele>
        <time>2019-03-13T14:21:19Z</time>
      </trkpt>
      <trkpt lat="43.9796" lon="5.19305">
        <ele>492.33</ele>
        <time>2019-03-13T14:21:31Z</time>
      </trkpt>
      <trkpt lat="43.97966" lon="5.19315">
        <ele>489.93</ele>
        <time>2019-03-13T14:21:42Z</time>
      </trkpt>
      <trkpt lat="43.97975" lon="5.19325">
        <ele>487.05</ele>
        <time>2019-03-13T14:21:57Z</time>
      </trkpt>
      <trkpt lat="43.97993" lon="5.19337">
        <ele>484.16</ele>
        <time>2019-03-13T14:22:12Z</time>
      </trkpt>
      <trkpt lat="43.98005" lon="5.19341">
        <ele>480.8</ele>
        <time>2019-03-13T14:22:25Z</time>
      </trkpt>
      <trkpt lat="43.98021" lon="5.1934">
        <ele>478.87</ele>
        <time>2019-03-13T14:22:42Z</time>
      </trkpt>
      <trkpt lat="43.98031" lon="5.19339">
        <ele>477.91</ele>
        <time>2019-03-13T14:22:52Z</time>
      </trkpt>
      <trkpt lat="43.9804" lon="5.19336">
        <ele>472.63</ele>
        <time>2019-03-13T14:23:04Z</time>
      </trkpt>
      <trkpt lat="43.9804" lon="5.19337">
        <ele>478.87</ele>
        <time>2019-03-13T14:23:05Z</time>
      </trkpt>
      <trkpt lat="43.98041" lon="5.19336">
        <ele>475.99</ele>
        <time>2019-03-13T14:23:08Z</time>
      </trkpt>
      <trkpt lat="43.98044" lon="5.19336">
        <ele>476.47</ele>
        <time>2019-03-13T14:23:25Z</time>
      </trkpt>
      <trkpt lat="43.98051" lon="5.19344">
        <ele>475.51</ele>
        <time>2019-03-13T14:23:37Z</time>
      </trkpt>
      <trkpt lat="43.98053" lon="5.19347">
        <ele>477.91</ele>
        <time>2019-03-13T14:23:44Z</time>
      </trkpt>
      <trkpt lat="43.98055" lon="5.19351">
        <ele>478.87</ele>
        <time>2019-03-13T14:23:51Z</time>
      </trkpt>
      <trkpt lat="43.98058" lon="5.19355">
        <ele>479.84</ele>
        <time>2019-03-13T14:23:56Z</time>
      </trkpt>
      <trkpt lat="43.98063" lon="5.19367">
        <ele>480.32</ele>
        <time>2019-03-13T14:24:03Z</time>
      </trkpt>
      <trkpt lat="43.9807" lon="5.19387">
        <ele>480.32</ele>
        <time>2019-03-13T14:24:14Z</time>
      </trkpt>
      <trkpt lat="43.98071" lon="5.19395">
        <ele>483.2</ele>
        <time>2019-03-13T14:24:19Z</time>
      </trkpt>
      <trkpt lat="43.98074" lon="5.19404">
        <ele>484.16</ele>
        <time>2019-03-13T14:24:31Z</time>
      </trkpt>
      <trkpt lat="43.98079" lon="5.19418">
        <ele>487.53</ele>
        <time>2019-03-13T14:24:43Z</time>
      </trkpt>
      <trkpt lat="43.9808" lon="5.19422">
        <ele>483.2</ele>
        <time>2019-03-13T14:24:46Z</time>
      </trkpt>
      <trkpt lat="43.98081" lon="5.19425">
        <ele>487.05</ele>
        <time>2019-03-13T14:24:48Z</time>
      </trkpt>
      <trkpt lat="43.98086" lon="5.19437">
        <ele>485.6</ele>
        <time>2019-03-13T14:25:03Z</time>
      </trkpt>
      <trkpt lat="43.98088" lon="5.19439">
        <ele>490.41</ele>
        <time>2019-03-13T14:25:05Z</time>
      </trkpt>
      <trkpt lat="43.98089" lon="5.19442">
        <ele>486.56</ele>
        <time>2019-03-13T14:25:08Z</time>
      </trkpt>
      <trkpt lat="43.98091" lon="5.19447">
        <ele>489.93</ele>
        <time>2019-03-13T14:25:14Z</time>
      </trkpt>
      <trkpt lat="43.98094" lon="5.19464">
        <ele>488.49</ele>
        <time>2019-03-13T14:25:27Z</time>
      </trkpt>
      <trkpt lat="43.98094" lon="5.19471">
        <ele>492.81</ele>
        <time>2019-03-13T14:25:36Z</time>
      </trkpt>
      <trkpt lat="43.98094" lon="5.19477">
        <ele>489.45</ele>
        <time>2019-03-13T14:25:39Z</time>
      </trkpt>
      <trkpt lat="43.98093" lon="5.19479">
        <ele>493.29</ele>
        <time>2019-03-13T14:25:41Z</time>
      </trkpt>
      <trkpt lat="43.98097" lon="5.1949">
        <ele>495.22</ele>
        <time>2019-03-13T14:25:55Z</time>
      </trkpt>
      <trkpt lat="43.98099" lon="5.19495">
        <ele>491.37</ele>
        <time>2019-03-13T14:25:59Z</time>
      </trkpt>
      <trkpt lat="43.98099" lon="5.19501">
        <ele>495.7</ele>
        <time>2019-03-13T14:26:03Z</time>
      </trkpt>
      <trkpt lat="43.98099" lon="5.19504">
        <ele>492.33</ele>
        <time>2019-03-13T14:26:06Z</time>
      </trkpt>
      <trkpt lat="43.981" lon="5.19507">
        <ele>496.18</ele>
        <time>2019-03-13T14:26:11Z</time>
      </trkpt>
      <trkpt lat="43.98106" lon="5.19514">
        <ele>496.66</ele>
        <time>2019-03-13T14:26:22Z</time>
      </trkpt>
      <trkpt lat="43.98112" lon="5.19525">
        <ele>498.1</ele>
        <time>2019-03-13T14:26:34Z</time>
      </trkpt>
      <trkpt lat="43.98115" lon="5.19543">
        <ele>500.02</ele>
        <time>2019-03-13T14:26:44Z</time>
      </trkpt>
      <trkpt lat="43.98114" lon="5.19556">
        <ele>501.95</ele>
        <time>2019-03-13T14:26:56Z</time>
      </trkpt>
      <trkpt lat="43.98116" lon="5.19571">
        <ele>502.43</ele>
        <time>2019-03-13T14:27:09Z</time>
      </trkpt>
      <trkpt lat="43.98117" lon="5.19572">
        <ele>499.54</ele>
        <time>2019-03-13T14:27:10Z</time>
      </trkpt>
      <trkpt lat="43.98118" lon="5.19577">
        <ele>503.87</ele>
        <time>2019-03-13T14:27:14Z</time>
      </trkpt>
      <trkpt lat="43.98118" lon="5.19577">
        <ele>500.98</ele>
        <time>2019-03-13T14:27:15Z</time>
      </trkpt>
      <trkpt lat="43.98118" lon="5.19589">
        <ele>505.31</ele>
        <time>2019-03-13T14:27:26Z</time>
      </trkpt>
      <trkpt lat="43.98118" lon="5.19591">
        <ele>502.43</ele>
        <time>2019-03-13T14:27:29Z</time>
      </trkpt>
      <trkpt lat="43.98119" lon="5.19598">
        <ele>505.31</ele>
        <time>2019-03-13T14:27:35Z</time>
      </trkpt>
      <trkpt lat="43.98119" lon="5.19598">
        <ele>502.43</ele>
        <time>2019-03-13T14:27:36Z</time>
      </trkpt>
      <trkpt lat="43.98119" lon="5.19599">
        <ele>505.79</ele>
        <time>2019-03-13T14:27:37Z</time>
      </trkpt>
      <trkpt lat="43.98121" lon="5.19606">
        <ele>501.95</ele>
        <time>2019-03-13T14:27:43Z</time>
      </trkpt>
      <trkpt lat="43.98121" lon="5.19608">
        <ele>505.79</ele>
        <time>2019-03-13T14:27:44Z</time>
      </trkpt>
      <trkpt lat="43.98124" lon="5.19623">
        <ele>507.71</ele>
        <time>2019-03-13T14:27:58Z</time>
      </trkpt>
      <trkpt lat="43.98126" lon="5.19633">
        <ele>511.08</ele>
        <time>2019-03-13T14:28:05Z</time>
      </trkpt>
      <trkpt lat="43.98126" lon="5.19635">
        <ele>507.23</ele>
        <time>2019-03-13T14:28:06Z</time>
      </trkpt>
      <trkpt lat="43.98126" lon="5.19637">
        <ele>511.56</ele>
        <time>2019-03-13T14:28:08Z</time>
      </trkpt>
      <trkpt lat="43.98125" lon="5.19638">
        <ele>508.19</ele>
        <time>2019-03-13T14:28:09Z</time>
      </trkpt>
      <trkpt lat="43.98125" lon="5.19641">
        <ele>511.56</ele>
        <time>2019-03-13T14:28:11Z</time>
      </trkpt>
      <trkpt lat="43.98124" lon="5.19646">
        <ele>514.44</ele>
        <time>2019-03-13T14:28:17Z</time>
      </trkpt>
      <trkpt lat="43.98124" lon="5.19647">
        <ele>510.12</ele>
        <time>2019-03-13T14:28:18Z</time>
      </trkpt>
      <trkpt lat="43.98125" lon="5.19651">
        <ele>513.96</ele>
        <time>2019-03-13T14:28:22Z</time>
      </trkpt>
      <trkpt lat="43.98125" lon="5.19652">
        <ele>509.64</ele>
        <time>2019-03-13T14:28:23Z</time>
      </trkpt>
      <trkpt lat="43.98125" lon="5.19653">
        <ele>513</ele>
        <time>2019-03-13T14:28:24Z</time>
      </trkpt>
      <trkpt lat="43.98126" lon="5.19657">
        <ele>515.88</ele>
        <time>2019-03-13T14:28:31Z</time>
      </trkpt>
      <trkpt lat="43.98126" lon="5.19658">
        <ele>512.04</ele>
        <time>2019-03-13T14:28:32Z</time>
      </trkpt>
      <trkpt lat="43.98126" lon="5.19659">
        <ele>515.4</ele>
        <time>2019-03-13T14:28:33Z</time>
      </trkpt>
      <trkpt lat="43.98129" lon="5.19673">
        <ele>518.29</ele>
        <time>2019-03-13T14:28:43Z</time>
      </trkpt>
      <trkpt lat="43.98129" lon="5.1969">
        <ele>520.69</ele>
        <time>2019-03-13T14:28:55Z</time>
      </trkpt>
      <trkpt lat="43.98127" lon="5.19701">
        <ele>519.25</ele>
        <time>2019-03-13T14:29:02Z</time>
      </trkpt>
      <trkpt lat="43.98121" lon="5.19717">
        <ele>524.06</ele>
        <time>2019-03-13T14:29:14Z</time>
      </trkpt>
      <trkpt lat="43.98119" lon="5.19725">
        <ele>526.94</ele>
        <time>2019-03-13T14:29:21Z</time>
      </trkpt>
      <trkpt lat="43.98119" lon="5.19726">
        <ele>523.09</ele>
        <time>2019-03-13T14:29:22Z</time>
      </trkpt>
      <trkpt lat="43.98119" lon="5.19727">
        <ele>526.94</ele>
        <time>2019-03-13T14:29:23Z</time>
      </trkpt>
      <trkpt lat="43.98121" lon="5.19735">
        <ele>529.82</ele>
        <time>2019-03-13T14:29:32Z</time>
      </trkpt>
      <trkpt lat="43.98121" lon="5.19736">
        <ele>526.94</ele>
        <time>2019-03-13T14:29:33Z</time>
      </trkpt>
      <trkpt lat="43.98122" lon="5.19742">
        <ele>530.3</ele>
        <time>2019-03-13T14:29:40Z</time>
      </trkpt>
      <trkpt lat="43.9812" lon="5.19754">
        <ele>531.75</ele>
        <time>2019-03-13T14:29:50Z</time>
      </trkpt>
      <trkpt lat="43.9812" lon="5.19758">
        <ele>529.34</ele>
        <time>2019-03-13T14:29:52Z</time>
      </trkpt>
      <trkpt lat="43.98114" lon="5.19771">
        <ele>535.59</ele>
        <time>2019-03-13T14:30:02Z</time>
      </trkpt>
      <trkpt lat="43.98114" lon="5.19772">
        <ele>532.23</ele>
        <time>2019-03-13T14:30:03Z</time>
      </trkpt>
      <trkpt lat="43.98116" lon="5.19776">
        <ele>536.07</ele>
        <time>2019-03-13T14:30:07Z</time>
      </trkpt>
      <trkpt lat="43.98122" lon="5.19786">
        <ele>532.71</ele>
        <time>2019-03-13T14:30:20Z</time>
      </trkpt>
      <trkpt lat="43.98122" lon="5.19787">
        <ele>535.59</ele>
        <time>2019-03-13T14:30:22Z</time>
      </trkpt>
      <trkpt lat="43.98124" lon="5.19787">
        <ele>535.11</ele>
        <time>2019-03-13T14:30:30Z</time>
      </trkpt>
      <trkpt lat="43.98138" lon="5.19783">
        <ele>534.63</ele>
        <time>2019-03-13T14:30:44Z</time>
      </trkpt>
      <trkpt lat="43.98142" lon="5.19781">
        <ele>535.59</ele>
        <time>2019-03-13T14:30:49Z</time>
      </trkpt>
      <trkpt lat="43.98146" lon="5.19778">
        <ele>535.11</ele>
        <time>2019-03-13T14:30:52Z</time>
      </trkpt>
      <trkpt lat="43.98151" lon="5.19776">
        <ele>535.11</ele>
        <time>2019-03-13T14:30:56Z</time>
      </trkpt>
      <trkpt lat="43.98161" lon="5.19775">
        <ele>537.03</ele>
        <time>2019-03-13T14:31:03Z</time>
      </trkpt>
      <trkpt lat="43.98163" lon="5.19774">
        <ele>536.55</ele>
        <time>2019-03-13T14:31:05Z</time>
      </trkpt>
      <trkpt lat="43.98164" lon="5.19772">
        <ele>536.07</ele>
        <time>2019-03-13T14:31:07Z</time>
      </trkpt>
      <trkpt lat="43.98174" lon="5.19766">
        <ele>537.51</ele>
        <time>2019-03-13T14:31:12Z</time>
      </trkpt>
      <trkpt lat="43.98184" lon="5.19763">
        <ele>535.59</ele>
        <time>2019-03-13T14:31:19Z</time>
      </trkpt>
      <trkpt lat="43.98186" lon="5.19761">
        <ele>536.07</ele>
        <time>2019-03-13T14:31:21Z</time>
      </trkpt>
      <trkpt lat="43.98189" lon="5.19758">
        <ele>537.51</ele>
        <time>2019-03-13T14:31:26Z</time>
      </trkpt>
      <trkpt lat="43.98194" lon="5.19755">
        <ele>534.15</ele>
        <time>2019-03-13T14:31:31Z</time>
      </trkpt>
      <trkpt lat="43.98195" lon="5.19755">
        <ele>535.59</ele>
        <time>2019-03-13T14:31:32Z</time>
      </trkpt>
      <trkpt lat="43.98197" lon="5.19754">
        <ele>535.59</ele>
        <time>2019-03-13T14:31:33Z</time>
      </trkpt>
      <trkpt lat="43.98207" lon="5.1974">
        <ele>535.11</ele>
        <time>2019-03-13T14:31:42Z</time>
      </trkpt>
      <trkpt lat="43.98215" lon="5.19727">
        <ele>535.11</ele>
        <time>2019-03-13T14:31:50Z</time>
      </trkpt>
      <trkpt lat="43.98221" lon="5.19708">
        <ele>534.15</ele>
        <time>2019-03-13T14:32:00Z</time>
      </trkpt>
      <trkpt lat="43.98224" lon="5.19699">
        <ele>534.63</ele>
        <time>2019-03-13T14:32:04Z</time>
      </trkpt>
      <trkpt lat="43.98226" lon="5.19696">
        <ele>534.63</ele>
        <time>2019-03-13T14:32:05Z</time>
      </trkpt>
      <trkpt lat="43.98229" lon="5.19692">
        <ele>532.23</ele>
        <time>2019-03-13T14:32:09Z</time>
      </trkpt>
      <trkpt lat="43.98233" lon="5.19687">
        <ele>532.23</ele>
        <time>2019-03-13T14:32:12Z</time>
      </trkpt>
      <trkpt lat="43.98239" lon="5.19676">
        <ele>532.71</ele>
        <time>2019-03-13T14:32:18Z</time>
      </trkpt>
      <trkpt lat="43.98239" lon="5.1967">
        <ele>535.11</ele>
        <time>2019-03-13T14:32:21Z</time>
      </trkpt>
      <trkpt lat="43.98245" lon="5.19662">
        <ele>534.63</ele>
        <time>2019-03-13T14:32:26Z</time>
      </trkpt>
      <trkpt lat="43.98247" lon="5.19659">
        <ele>534.15</ele>
        <time>2019-03-13T14:32:28Z</time>
      </trkpt>
      <trkpt lat="43.98248" lon="5.19652">
        <ele>533.19</ele>
        <time>2019-03-13T14:32:32Z</time>
      </trkpt>
      <trkpt lat="43.9825" lon="5.19648">
        <ele>533.67</ele>
        <time>2019-03-13T14:32:35Z</time>
      </trkpt>
      <trkpt lat="43.98253" lon="5.19643">
        <ele>537.03</ele>
        <time>2019-03-13T14:32:38Z</time>
      </trkpt>
      <trkpt lat="43.98261" lon="5.19637">
        <ele>534.63</ele>
        <time>2019-03-13T14:32:50Z</time>
      </trkpt>
      <trkpt lat="43.98267" lon="5.19638">
        <ele>538.48</ele>
        <time>2019-03-13T14:32:58Z</time>
      </trkpt>
      <trkpt lat="43.98268" lon="5.19639">
        <ele>531.75</ele>
        <time>2019-03-13T14:33:04Z</time>
      </trkpt>
      <trkpt lat="43.98268" lon="5.19639">
        <ele>537.03</ele>
        <time>2019-03-13T14:33:05Z</time>
      </trkpt>
      <trkpt lat="43.98268" lon="5.19639">
        <ele>535.59</ele>
        <time>2019-03-13T14:33:18Z</time>
      </trkpt>
      <trkpt lat="43.98266" lon="5.19639">
        <ele>536.07</ele>
        <time>2019-03-13T14:33:33Z</time>
      </trkpt>
      <trkpt lat="43.98266" lon="5.19639">
        <ele>535.59</ele>
        <time>2019-03-13T14:33:57Z</time>
      </trkpt>
      <trkpt lat="43.98266" lon="5.19638">
        <ele>536.07</ele>
        <time>2019-03-13T14:34:17Z</time>
      </trkpt>
      <trkpt lat="43.98266" lon="5.19638">
        <ele>536.07</ele>
        <time>2019-03-13T14:34:43Z</time>
      </trkpt>
      <trkpt lat="43.98266" lon="5.19639">
        <ele>536.55</ele>
        <time>2019-03-13T14:35:11Z</time>
      </trkpt>
      <trkpt lat="43.98268" lon="5.19637">
        <ele>536.55</ele>
        <time>2019-03-13T14:35:40Z</time>
      </trkpt>
      <trkpt lat="43.98269" lon="5.19637">
        <ele>536.55</ele>
        <time>2019-03-13T14:35:54Z</time>
      </trkpt>
      <trkpt lat="43.98267" lon="5.19637">
        <ele>535.11</ele>
        <time>2019-03-13T14:36:10Z</time>
      </trkpt>
      <trkpt lat="43.98267" lon="5.19637">
        <ele>536.07</ele>
        <time>2019-03-13T14:36:18Z</time>
      </trkpt>
      <trkpt lat="43.98266" lon="5.19638">
        <ele>536.55</ele>
        <time>2019-03-13T14:36:39Z</time>
      </trkpt>
      <trkpt lat="43.98265" lon="5.19637">
        <ele>536.07</ele>
        <time>2019-03-13T14:37:11Z</time>
      </trkpt>
      <trkpt lat="43.98266" lon="5.19639">
        <ele>535.11</ele>
        <time>2019-03-13T14:37:22Z</time>
      </trkpt>
      <trkpt lat="43.9827" lon="5.19649">
        <ele>533.67</ele>
        <time>2019-03-13T14:37:34Z</time>
      </trkpt>
      <trkpt lat="43.9827" lon="5.19656">
        <ele>532.23</ele>
        <time>2019-03-13T14:37:38Z</time>
      </trkpt>
      <trkpt lat="43.98273" lon="5.19669">
        <ele>531.27</ele>
        <time>2019-03-13T14:37:50Z</time>
      </trkpt>
      <trkpt lat="43.98273" lon="5.1967">
        <ele>528.86</ele>
        <time>2019-03-13T14:37:53Z</time>
      </trkpt>
      <trkpt lat="43.98276" lon="5.19679">
        <ele>528.86</ele>
        <time>2019-03-13T14:38:00Z</time>
      </trkpt>
      <trkpt lat="43.98279" lon="5.19689">
        <ele>528.38</ele>
        <time>2019-03-13T14:38:09Z</time>
      </trkpt>
      <trkpt lat="43.98281" lon="5.19694">
        <ele>525.02</ele>
        <time>2019-03-13T14:38:15Z</time>
      </trkpt>
      <trkpt lat="43.98282" lon="5.19695">
        <ele>527.9</ele>
        <time>2019-03-13T14:38:17Z</time>
      </trkpt>
      <trkpt lat="43.98283" lon="5.19698">
        <ele>525.02</ele>
        <time>2019-03-13T14:38:20Z</time>
      </trkpt>
      <trkpt lat="43.98286" lon="5.19705">
        <ele>525.02</ele>
        <time>2019-03-13T14:38:26Z</time>
      </trkpt>
      <trkpt lat="43.98286" lon="5.19721">
        <ele>524.54</ele>
        <time>2019-03-13T14:38:36Z</time>
      </trkpt>
      <trkpt lat="43.98285" lon="5.19723">
        <ele>521.17</ele>
        <time>2019-03-13T14:38:37Z</time>
      </trkpt>
      <trkpt lat="43.98285" lon="5.19726">
        <ele>523.58</ele>
        <time>2019-03-13T14:38:39Z</time>
      </trkpt>
      <trkpt lat="43.98284" lon="5.19732">
        <ele>522.13</ele>
        <time>2019-03-13T14:38:42Z</time>
      </trkpt>
      <trkpt lat="43.98284" lon="5.19748">
        <ele>522.13</ele>
        <time>2019-03-13T14:38:53Z</time>
      </trkpt>
      <trkpt lat="43.98285" lon="5.19751">
        <ele>522.13</ele>
        <time>2019-03-13T14:38:55Z</time>
      </trkpt>
      <trkpt lat="43.98286" lon="5.19759">
        <ele>520.69</ele>
        <time>2019-03-13T14:39:05Z</time>
      </trkpt>
      <trkpt lat="43.98287" lon="5.19763">
        <ele>519.73</ele>
        <time>2019-03-13T14:39:09Z</time>
      </trkpt>
      <trkpt lat="43.98288" lon="5.19766">
        <ele>518.77</ele>
        <time>2019-03-13T14:39:11Z</time>
      </trkpt>
      <trkpt lat="43.98289" lon="5.19767">
        <ele>519.73</ele>
        <time>2019-03-13T14:39:13Z</time>
      </trkpt>
      <trkpt lat="43.98289" lon="5.19768">
        <ele>518.77</ele>
        <time>2019-03-13T14:39:15Z</time>
      </trkpt>
      <trkpt lat="43.98292" lon="5.19776">
        <ele>515.4</ele>
        <time>2019-03-13T14:39:22Z</time>
      </trkpt>
      <trkpt lat="43.98296" lon="5.19782">
        <ele>514.44</ele>
        <time>2019-03-13T14:39:32Z</time>
      </trkpt>
      <trkpt lat="43.98295" lon="5.19786">
        <ele>513.96</ele>
        <time>2019-03-13T14:39:36Z</time>
      </trkpt>
      <trkpt lat="43.98295" lon="5.19793">
        <ele>513</ele>
        <time>2019-03-13T14:39:40Z</time>
      </trkpt>
      <trkpt lat="43.98295" lon="5.198">
        <ele>511.08</ele>
        <time>2019-03-13T14:39:45Z</time>
      </trkpt>
      <trkpt lat="43.98295" lon="5.19803">
        <ele>512.52</ele>
        <time>2019-03-13T14:39:47Z</time>
      </trkpt>
      <trkpt lat="43.98295" lon="5.19816">
        <ele>512.04</ele>
        <time>2019-03-13T14:39:58Z</time>
      </trkpt>
      <trkpt lat="43.98298" lon="5.19825">
        <ele>508.67</ele>
        <time>2019-03-13T14:40:06Z</time>
      </trkpt>
      <trkpt lat="43.983" lon="5.19834">
        <ele>508.67</ele>
        <time>2019-03-13T14:40:12Z</time>
      </trkpt>
      <trkpt lat="43.98302" lon="5.19833">
        <ele>507.23</ele>
        <time>2019-03-13T14:40:16Z</time>
      </trkpt>
      <trkpt lat="43.98307" lon="5.1983">
        <ele>507.71</ele>
        <time>2019-03-13T14:40:23Z</time>
      </trkpt>
      <trkpt lat="43.9831" lon="5.19827">
        <ele>503.87</ele>
        <time>2019-03-13T14:40:28Z</time>
      </trkpt>
      <trkpt lat="43.98313" lon="5.19824">
        <ele>505.79</ele>
        <time>2019-03-13T14:40:31Z</time>
      </trkpt>
      <trkpt lat="43.98314" lon="5.19823">
        <ele>503.87</ele>
        <time>2019-03-13T14:40:33Z</time>
      </trkpt>
      <trkpt lat="43.98316" lon="5.1982">
        <ele>505.31</ele>
        <time>2019-03-13T14:40:36Z</time>
      </trkpt>
      <trkpt lat="43.98318" lon="5.19817">
        <ele>501.95</ele>
        <time>2019-03-13T14:40:40Z</time>
      </trkpt>
      <trkpt lat="43.98322" lon="5.19811">
        <ele>501.46</ele>
        <time>2019-03-13T14:40:46Z</time>
      </trkpt>
      <trkpt lat="43.98326" lon="5.19804">
        <ele>498.58</ele>
        <time>2019-03-13T14:40:53Z</time>
      </trkpt>
      <trkpt lat="43.98328" lon="5.19801">
        <ele>500.5</ele>
        <time>2019-03-13T14:40:56Z</time>
      </trkpt>
      <trkpt lat="43.98329" lon="5.19793">
        <ele>500.02</ele>
        <time>2019-03-13T14:41:02Z</time>
      </trkpt>
      <trkpt lat="43.98331" lon="5.19787">
        <ele>496.66</ele>
        <time>2019-03-13T14:41:09Z</time>
      </trkpt>
      <trkpt lat="43.98332" lon="5.19783">
        <ele>497.14</ele>
        <time>2019-03-13T14:41:13Z</time>
      </trkpt>
      <trkpt lat="43.98338" lon="5.19767">
        <ele>492.81</ele>
        <time>2019-03-13T14:41:25Z</time>
      </trkpt>
      <trkpt lat="43.98338" lon="5.19766">
        <ele>495.22</ele>
        <time>2019-03-13T14:41:26Z</time>
      </trkpt>
      <trkpt lat="43.98341" lon="5.19764">
        <ele>493.29</ele>
        <time>2019-03-13T14:41:30Z</time>
      </trkpt>
      <trkpt lat="43.9835" lon="5.19767">
        <ele>491.37</ele>
        <time>2019-03-13T14:41:41Z</time>
      </trkpt>
      <trkpt lat="43.98355" lon="5.19776">
        <ele>488.49</ele>
        <time>2019-03-13T14:41:52Z</time>
      </trkpt>
      <trkpt lat="43.9836" lon="5.19788">
        <ele>486.08</ele>
        <time>2019-03-13T14:42:04Z</time>
      </trkpt>
      <trkpt lat="43.98362" lon="5.19792">
        <ele>482.24</ele>
        <time>2019-03-13T14:42:08Z</time>
      </trkpt>
      <trkpt lat="43.98368" lon="5.19799">
        <ele>483.2</ele>
        <time>2019-03-13T14:42:19Z</time>
      </trkpt>
      <trkpt lat="43.98372" lon="5.19802">
        <ele>481.28</ele>
        <time>2019-03-13T14:42:23Z</time>
      </trkpt>
      <trkpt lat="43.98376" lon="5.19807">
        <ele>480.32</ele>
        <time>2019-03-13T14:42:29Z</time>
      </trkpt>
      <trkpt lat="43.98377" lon="5.19809">
        <ele>479.35</ele>
        <time>2019-03-13T14:42:31Z</time>
      </trkpt>
      <trkpt lat="43.98382" lon="5.19818">
        <ele>475.99</ele>
        <time>2019-03-13T14:42:38Z</time>
      </trkpt>
      <trkpt lat="43.98387" lon="5.19826">
        <ele>475.99</ele>
        <time>2019-03-13T14:42:46Z</time>
      </trkpt>
      <trkpt lat="43.98392" lon="5.19837">
        <ele>472.63</ele>
        <time>2019-03-13T14:42:55Z</time>
      </trkpt>
      <trkpt lat="43.98394" lon="5.19841">
        <ele>473.59</ele>
        <time>2019-03-13T14:43:01Z</time>
      </trkpt>
      <trkpt lat="43.98396" lon="5.19843">
        <ele>471.66</ele>
        <time>2019-03-13T14:43:03Z</time>
      </trkpt>
      <trkpt lat="43.98401" lon="5.19853">
        <ele>471.66</ele>
        <time>2019-03-13T14:43:11Z</time>
      </trkpt>
      <trkpt lat="43.98404" lon="5.19855">
        <ele>470.22</ele>
        <time>2019-03-13T14:43:15Z</time>
      </trkpt>
      <trkpt lat="43.98407" lon="5.19859">
        <ele>468.78</ele>
        <time>2019-03-13T14:43:18Z</time>
      </trkpt>
      <trkpt lat="43.98408" lon="5.19864">
        <ele>469.26</ele>
        <time>2019-03-13T14:43:22Z</time>
      </trkpt>
      <trkpt lat="43.98412" lon="5.19867">
        <ele>466.86</ele>
        <time>2019-03-13T14:43:26Z</time>
      </trkpt>
      <trkpt lat="43.98415" lon="5.19868">
        <ele>468.78</ele>
        <time>2019-03-13T14:43:28Z</time>
      </trkpt>
      <trkpt lat="43.98417" lon="5.1987">
        <ele>467.34</ele>
        <time>2019-03-13T14:43:31Z</time>
      </trkpt>
      <trkpt lat="43.98421" lon="5.19871">
        <ele>467.82</ele>
        <time>2019-03-13T14:43:34Z</time>
      </trkpt>
      <trkpt lat="43.98423" lon="5.19873">
        <ele>464.45</ele>
        <time>2019-03-13T14:43:36Z</time>
      </trkpt>
      <trkpt lat="43.98426" lon="5.19877">
        <ele>464.45</ele>
        <time>2019-03-13T14:43:40Z</time>
      </trkpt>
      <trkpt lat="43.9843" lon="5.19881">
        <ele>464.45</ele>
        <time>2019-03-13T14:43:44Z</time>
      </trkpt>
      <trkpt lat="43.98439" lon="5.19891">
        <ele>462.53</ele>
        <time>2019-03-13T14:43:58Z</time>
      </trkpt>
      <trkpt lat="43.98442" lon="5.19898">
        <ele>463.49</ele>
        <time>2019-03-13T14:44:09Z</time>
      </trkpt>
      <trkpt lat="43.98443" lon="5.199">
        <ele>461.09</ele>
        <time>2019-03-13T14:44:14Z</time>
      </trkpt>
      <trkpt lat="43.98444" lon="5.19902">
        <ele>463.97</ele>
        <time>2019-03-13T14:44:17Z</time>
      </trkpt>
      <trkpt lat="43.98447" lon="5.19904">
        <ele>462.05</ele>
        <time>2019-03-13T14:44:20Z</time>
      </trkpt>
      <trkpt lat="43.98454" lon="5.19908">
        <ele>460.13</ele>
        <time>2019-03-13T14:44:31Z</time>
      </trkpt>
      <trkpt lat="43.98455" lon="5.19908">
        <ele>462.05</ele>
        <time>2019-03-13T14:44:34Z</time>
      </trkpt>
      <trkpt lat="43.98466" lon="5.19912">
        <ele>458.69</ele>
        <time>2019-03-13T14:44:45Z</time>
      </trkpt>
      <trkpt lat="43.98469" lon="5.19915">
        <ele>460.13</ele>
        <time>2019-03-13T14:44:49Z</time>
      </trkpt>
      <trkpt lat="43.98474" lon="5.19919">
        <ele>463.01</ele>
        <time>2019-03-13T14:44:55Z</time>
      </trkpt>
      <trkpt lat="43.9848" lon="5.1992">
        <ele>460.13</ele>
        <time>2019-03-13T14:45:02Z</time>
      </trkpt>
      <trkpt lat="43.98487" lon="5.19925">
        <ele>459.65</ele>
        <time>2019-03-13T14:45:13Z</time>
      </trkpt>
      <trkpt lat="43.98487" lon="5.19925">
        <ele>461.09</ele>
        <time>2019-03-13T14:45:14Z</time>
      </trkpt>
      <trkpt lat="43.98487" lon="5.19925">
        <ele>456.76</ele>
        <time>2019-03-13T14:45:16Z</time>
      </trkpt>
      <trkpt lat="43.98487" lon="5.19925">
        <ele>459.65</ele>
        <time>2019-03-13T14:45:17Z</time>
      </trkpt>
      <trkpt lat="43.9849" lon="5.19927">
        <ele>458.69</ele>
        <time>2019-03-13T14:45:21Z</time>
      </trkpt>
      <trkpt lat="43.98495" lon="5.19931">
        <ele>457.72</ele>
        <time>2019-03-13T14:45:26Z</time>
      </trkpt>
      <trkpt lat="43.98498" lon="5.19933">
        <ele>459.17</ele>
        <time>2019-03-13T14:45:29Z</time>
      </trkpt>
      <trkpt lat="43.98501" lon="5.19934">
        <ele>454.84</ele>
        <time>2019-03-13T14:45:31Z</time>
      </trkpt>
      <trkpt lat="43.98502" lon="5.19935">
        <ele>456.76</ele>
        <time>2019-03-13T14:45:32Z</time>
      </trkpt>
      <trkpt lat="43.98504" lon="5.19936">
        <ele>459.65</ele>
        <time>2019-03-13T14:45:34Z</time>
      </trkpt>
      <trkpt lat="43.98506" lon="5.19937">
        <ele>454.84</ele>
        <time>2019-03-13T14:45:36Z</time>
      </trkpt>
      <trkpt lat="43.98507" lon="5.19938">
        <ele>458.69</ele>
        <time>2019-03-13T14:45:38Z</time>
      </trkpt>
      <trkpt lat="43.98508" lon="5.19939">
        <ele>458.21</ele>
        <time>2019-03-13T14:45:39Z</time>
      </trkpt>
      <trkpt lat="43.98511" lon="5.1994">
        <ele>456.76</ele>
        <time>2019-03-13T14:45:41Z</time>
      </trkpt>
      <trkpt lat="43.98513" lon="5.19942">
        <ele>456.76</ele>
        <time>2019-03-13T14:45:43Z</time>
      </trkpt>
      <trkpt lat="43.9852" lon="5.19945">
        <ele>454.84</ele>
        <time>2019-03-13T14:45:47Z</time>
      </trkpt>
      <trkpt lat="43.98521" lon="5.19945">
        <ele>457.24</ele>
        <time>2019-03-13T14:45:48Z</time>
      </trkpt>
      <trkpt lat="43.98523" lon="5.19946">
        <ele>458.69</ele>
        <time>2019-03-13T14:45:49Z</time>
      </trkpt>
      <trkpt lat="43.98525" lon="5.19945">
        <ele>455.8</ele>
        <time>2019-03-13T14:45:51Z</time>
      </trkpt>
      <trkpt lat="43.98529" lon="5.19946">
        <ele>458.69</ele>
        <time>2019-03-13T14:45:56Z</time>
      </trkpt>
      <trkpt lat="43.9853" lon="5.19947">
        <ele>454.84</ele>
        <time>2019-03-13T14:45:57Z</time>
      </trkpt>
      <trkpt lat="43.98531" lon="5.19947">
        <ele>456.28</ele>
        <time>2019-03-13T14:45:58Z</time>
      </trkpt>
      <trkpt lat="43.98537" lon="5.19948">
        <ele>457.72</ele>
        <time>2019-03-13T14:46:03Z</time>
      </trkpt>
      <trkpt lat="43.98542" lon="5.1995">
        <ele>453.88</ele>
        <time>2019-03-13T14:46:05Z</time>
      </trkpt>
      <trkpt lat="43.98542" lon="5.1995">
        <ele>454.84</ele>
        <time>2019-03-13T14:46:06Z</time>
      </trkpt>
      <trkpt lat="43.98545" lon="5.19952">
        <ele>457.72</ele>
        <time>2019-03-13T14:46:08Z</time>
      </trkpt>
      <trkpt lat="43.98547" lon="5.19954">
        <ele>454.84</ele>
        <time>2019-03-13T14:46:10Z</time>
      </trkpt>
      <trkpt lat="43.98549" lon="5.19955">
        <ele>459.17</ele>
        <time>2019-03-13T14:46:12Z</time>
      </trkpt>
      <trkpt lat="43.9855" lon="5.19956">
        <ele>454.36</ele>
        <time>2019-03-13T14:46:13Z</time>
      </trkpt>
      <trkpt lat="43.98551" lon="5.19957">
        <ele>459.17</ele>
        <time>2019-03-13T14:46:15Z</time>
      </trkpt>
      <trkpt lat="43.98552" lon="5.1996">
        <ele>455.8</ele>
        <time>2019-03-13T14:46:17Z</time>
      </trkpt>
      <trkpt lat="43.98553" lon="5.19961">
        <ele>455.32</ele>
        <time>2019-03-13T14:46:18Z</time>
      </trkpt>
      <trkpt lat="43.98555" lon="5.19964">
        <ele>459.17</ele>
        <time>2019-03-13T14:46:20Z</time>
      </trkpt>
      <trkpt lat="43.98555" lon="5.19965">
        <ele>453.88</ele>
        <time>2019-03-13T14:46:23Z</time>
      </trkpt>
      <trkpt lat="43.98555" lon="5.19965">
        <ele>459.17</ele>
        <time>2019-03-13T14:46:24Z</time>
      </trkpt>
      <trkpt lat="43.98555" lon="5.19965">
        <ele>459.17</ele>
        <time>2019-03-13T14:46:25Z</time>
      </trkpt>
      <trkpt lat="43.98556" lon="5.19967">
        <ele>454.36</ele>
        <time>2019-03-13T14:46:29Z</time>
      </trkpt>
      <trkpt lat="43.98556" lon="5.19968">
        <ele>455.8</ele>
        <time>2019-03-13T14:46:30Z</time>
      </trkpt>
      <trkpt lat="43.9856" lon="5.19976">
        <ele>459.17</ele>
        <time>2019-03-13T14:46:39Z</time>
      </trkpt>
      <trkpt lat="43.9856" lon="5.19976">
        <ele>455.32</ele>
        <time>2019-03-13T14:46:40Z</time>
      </trkpt>
      <trkpt lat="43.9856" lon="5.19977">
        <ele>459.65</ele>
        <time>2019-03-13T14:46:42Z</time>
      </trkpt>
      <trkpt lat="43.9856" lon="5.19978">
        <ele>455.32</ele>
        <time>2019-03-13T14:46:44Z</time>
      </trkpt>
      <trkpt lat="43.9856" lon="5.19978">
        <ele>457.72</ele>
        <time>2019-03-13T14:46:45Z</time>
      </trkpt>
      <trkpt lat="43.9857" lon="5.19991">
        <ele>457.72</ele>
        <time>2019-03-13T14:46:54Z</time>
      </trkpt>
      <trkpt lat="43.98577" lon="5.19995">
        <ele>457.24</ele>
        <time>2019-03-13T14:46:57Z</time>
      </trkpt>
      <trkpt lat="43.9858" lon="5.19997">
        <ele>461.57</ele>
        <time>2019-03-13T14:46:59Z</time>
      </trkpt>
      <trkpt lat="43.98582" lon="5.19998">
        <ele>456.28</ele>
        <time>2019-03-13T14:47:00Z</time>
      </trkpt>
      <trkpt lat="43.98584" lon="5.19999">
        <ele>461.57</ele>
        <time>2019-03-13T14:47:02Z</time>
      </trkpt>
      <trkpt lat="43.98584" lon="5.2">
        <ele>457.24</ele>
        <time>2019-03-13T14:47:03Z</time>
      </trkpt>
      <trkpt lat="43.98585" lon="5.20002">
        <ele>460.61</ele>
        <time>2019-03-13T14:47:05Z</time>
      </trkpt>
      <trkpt lat="43.98586" lon="5.20002">
        <ele>460.13</ele>
        <time>2019-03-13T14:47:06Z</time>
      </trkpt>
      <trkpt lat="43.98587" lon="5.20002">
        <ele>459.65</ele>
        <time>2019-03-13T14:47:23Z</time>
      </trkpt>
      <trkpt lat="43.98587" lon="5.20002">
        <ele>459.65</ele>
        <time>2019-03-13T14:47:47Z</time>
      </trkpt>
      <trkpt lat="43.98587" lon="5.20002">
        <ele>460.13</ele>
        <time>2019-03-13T14:47:53Z</time>
      </trkpt>
      <trkpt lat="43.98588" lon="5.20002">
        <ele>456.76</ele>
        <time>2019-03-13T14:48:00Z</time>
      </trkpt>
      <trkpt lat="43.98588" lon="5.20002">
        <ele>461.09</ele>
        <time>2019-03-13T14:48:01Z</time>
      </trkpt>
      <trkpt lat="43.98588" lon="5.20002">
        <ele>460.13</ele>
        <time>2019-03-13T14:48:02Z</time>
      </trkpt>
      <trkpt lat="43.98588" lon="5.20001">
        <ele>460.13</ele>
        <time>2019-03-13T14:48:14Z</time>
      </trkpt>
      <trkpt lat="43.98586" lon="5.19996">
        <ele>456.76</ele>
        <time>2019-03-13T14:48:22Z</time>
      </trkpt>
      <trkpt lat="43.98586" lon="5.19996">
        <ele>461.57</ele>
        <time>2019-03-13T14:48:24Z</time>
      </trkpt>
      <trkpt lat="43.98586" lon="5.19996">
        <ele>457.24</ele>
        <time>2019-03-13T14:48:25Z</time>
      </trkpt>
      <trkpt lat="43.98584" lon="5.19996">
        <ele>460.13</ele>
        <time>2019-03-13T14:48:33Z</time>
      </trkpt>
    </trkseg>
  </trk>
</gpx>